[[{"header":{"parameterUnit":"m.s-1","parameterCategory":1,"la1":30.6,"la2":29.2853,"lo1":-89.7004,"lo2":-87.6739,"dy":0.0162,"dx":0.0183,"nx":112,"ny":82,"refTime":"2024-08-20T18:00:00:Z","depth":0,"parameterNumber":2,"parameterNumberName":"U-component_of_WINDS"},"data":[0.0,0.0,0.0,0.0,0.0,0.0,0.0,0.0,0.0,0.0,0.0,0.0,0.0,0.0,0.0,0.0,0.0,0.0,0.0,0.0,0.0,0.0,0.0,0.0,0.0,0.0,0.0,0.0,0.0,0.0,0.0,0.0,0.0,0.0,0.0,0.0,0.0,0.0,0.0,0.0,0.0,0.0,0.0,0.0,0.0,0.0,0.0,0.0,0.0,0.0,0.0,0.0,0.0,0.0,0.0,0.0,0.0,0.0,0.0,0.0,0.0,0.0,0.0,0.0,0.0,0.0,0.0,0.0,0.0,0.0,0.0,0.0,0.0,0.0,0.0,0.0,0.0,0.0,0.0,0.0,0.0,0.0,0.0,0.0,0.0,0.0,0.0,0.0,0.0,0.0,0.0,3.1279,3.6293,3.9012,3.8084,3.6875,3.4066,2.9159,0.0,0.0,0.0,0.0,0.0,0.0,0.0,0.0,0.0,0.0,0.0,0.0,0.0,0.0,0.0,0.0,0.0,0.0,0.0,0.0,0.0,0.0,0.0,0.0,0.0,0.0,0.0,0.0,0.0,0.0,0.0,0.0,0.0,0.0,0.0,0.0,0.0,0.0,0.0,0.0,0.0,0.0,0.0,0.0,0.0,0.0,0.0,0.0,0.0,0.0,0.0,0.0,0.0,0.0,0.0,0.0,0.0,0.0,0.0,0.0,0.0,0.0,0.0,0.0,0.0,0.0,0.0,0.0,0.0,0.0,0.0,0.0,0.0,0.0,0.0,0.0,0.0,0.0,0.0,0.0,0.0,0.0,0.0,0.0,0.0,0.0,0.0,0.0,0.0,0.0,0.0,0.0,0.0,0.0,0.0,0.0,0.0,0.0,0.0,0.0,0.0,0.0,0.0,0.0,2.8394,3.5143,3.7939,3.8969,3.8065,3.6536,3.3619,2.8924,0.0,0.0,0.0,0.0,0.0,0.0,0.0,0.0,0.0,0.0,0.0,0.0,0.0,0.0,0.0,0.0,0.0,0.0,0.0,0.0,0.0,0.0,0.0,0.0,0.0,0.0,0.0,0.0,0.0,0.0,0.0,0.0,0.0,0.0,0.0,0.0,0.0,0.0,0.0,0.0,0.0,0.0,0.0,0.0,0.0,0.0,0.0,0.0,0.0,0.0,0.0,0.0,0.0,0.0,0.0,0.0,0.0,0.0,0.0,0.0,0.0,0.0,0.0,0.0,0.0,0.0,0.0,0.0,0.0,0.0,0.0,0.0,0.0,0.0,0.0,0.0,0.0,0.0,0.0,0.0,0.0,0.0,0.0,0.0,0.0,0.0,0.0,0.0,0.0,0.0,0.0,0.0,0.0,0.0,0.0,0.0,0.0,0.0,0.0,0.0,0.0,0.0,0.0,2.8008,3.1159,3.6887,3.8973,3.9362,3.7907,3.6243,3.3356,2.8831,2.4832,0.0,0.0,0.0,0.0,0.0,0.0,0.0,0.0,0.0,0.0,0.0,0.0,0.0,0.0,0.0,0.0,0.0,0.0,0.0,0.0,0.0,0.0,0.0,0.0,0.0,0.0,0.0,0.0,0.0,0.0,0.0,0.0,0.0,0.0,0.0,0.0,0.0,0.0,0.0,0.0,0.0,0.0,0.0,0.0,0.0,0.0,0.0,0.0,0.0,0.0,0.0,0.0,0.0,0.0,0.0,0.0,0.0,0.0,0.0,0.0,0.0,0.0,0.0,0.0,0.0,0.0,0.0,0.0,0.0,0.0,0.0,0.0,0.0,0.0,0.0,0.0,0.0,0.0,0.0,0.0,0.0,0.0,0.0,0.0,0.0,0.0,0.0,0.0,0.0,0.0,0.0,0.0,0.0,0.0,0.0,0.0,0.0,0.0,0.0,0.0,0.0,0.0,3.1621,3.4064,3.759,3.9272,3.9402,3.7642,3.5432,3.2416,2.8395,2.3806,0.0,0.0,0.0,0.0,0.0,0.0,0.0,0.0,0.0,0.0,0.0,0.0,0.0,0.0,0.0,0.0,0.0,0.0,0.0,0.0,0.0,0.0,0.0,0.0,0.0,0.0,0.0,0.0,0.0,0.0,0.0,0.0,0.0,0.0,0.0,0.0,0.0,0.0,0.0,0.0,0.0,0.0,0.0,0.0,0.0,0.0,0.0,0.0,0.0,0.0,0.0,0.0,0.0,0.0,0.0,0.0,0.0,0.0,0.0,0.0,0.0,0.0,0.0,0.0,0.0,0.0,0.0,0.0,0.0,0.0,0.0,0.0,0.0,0.0,0.0,0.0,0.0,0.0,0.0,0.0,0.0,0.0,0.0,0.0,0.0,0.0,0.0,0.0,0.0,0.0,0.0,0.0,0.0,0.0,0.0,0.0,0.0,0.0,0.0,0.0,0.0,0.0,3.2424,3.5971,3.7392,3.8402,3.8499,3.723,3.3545,3.0089,2.7286,2.185,0.0,0.0,0.0,0.0,0.0,0.0,0.0,0.0,0.0,0.0,0.0,0.0,0.0,0.0,0.0,0.0,0.0,0.0,0.0,0.0,0.0,0.0,0.0,0.0,0.0,0.0,0.0,0.0,0.0,0.0,0.0,0.0,0.0,0.0,0.0,0.0,0.0,0.0,0.0,0.0,0.0,0.0,0.0,0.0,0.0,0.0,0.0,0.0,0.0,0.0,0.0,0.0,0.0,0.0,0.0,0.0,0.0,0.0,0.0,0.0,0.0,0.0,0.0,0.0,0.0,0.0,0.0,0.0,0.0,0.0,0.0,0.0,0.0,0.0,0.0,0.0,0.0,0.0,0.0,0.0,0.0,0.0,0.0,0.0,0.0,0.0,0.0,0.0,0.0,0.0,0.0,0.0,0.0,0.0,0.0,0.0,0.0,0.0,0.0,0.0,0.0,0.0,3.1113,3.4217,0.0,3.7544,3.7547,3.6212,3.3773,3.0728,2.6984,0.0,0.0,0.0,0.0,0.0,0.0,0.0,0.0,0.0,0.0,0.0,0.0,0.0,0.0,0.0,0.0,0.0,0.0,0.0,0.0,0.0,0.0,0.0,0.0,0.0,0.0,0.0,0.0,0.0,0.0,0.0,0.0,0.0,0.0,0.0,0.0,0.0,0.0,0.0,0.0,0.0,0.0,0.0,0.0,0.0,0.0,0.0,0.0,0.0,0.0,0.0,0.0,0.0,0.0,0.0,0.0,0.0,0.0,0.0,0.0,0.0,0.0,0.0,0.0,0.0,0.0,0.0,0.0,0.0,0.0,0.0,0.0,0.0,0.0,0.0,0.0,0.0,0.0,0.0,0.0,0.0,0.0,0.0,0.0,0.0,0.0,0.0,0.0,0.0,0.0,0.0,0.0,0.0,0.0,0.0,0.0,0.0,0.0,0.0,0.0,0.0,0.0,2.7317,3.0674,3.3489,0.0,3.6634,3.6486,3.5429,3.2915,2.9935,2.645,0.0,0.0,0.0,0.0,0.0,0.0,0.0,0.0,0.0,0.0,0.0,0.0,0.0,0.0,0.0,0.0,0.0,0.0,0.0,0.0,0.0,0.0,0.0,0.0,0.0,0.0,0.0,0.0,0.0,0.0,0.0,0.0,0.0,0.0,0.0,0.0,0.0,0.0,0.0,0.0,0.0,0.0,0.0,0.0,0.0,0.0,0.0,0.0,0.0,0.0,0.0,0.0,0.0,0.0,0.0,0.0,0.0,0.0,0.0,0.0,0.0,0.0,0.0,0.0,0.0,0.0,0.0,0.0,0.0,0.0,0.0,0.0,0.0,0.0,0.0,0.0,0.0,0.0,0.0,0.0,0.0,0.0,0.0,0.0,0.0,0.0,0.0,0.0,0.0,0.0,0.0,0.0,0.0,0.0,0.0,0.0,0.0,0.0,0.0,0.0,0.0,0.0,2.7472,3.1503,3.4465,3.5748,3.566,3.5349,3.5028,3.0595,2.7126,0.0,0.0,0.0,0.0,0.0,0.0,0.0,0.0,0.0,0.0,0.0,0.0,0.0,0.0,0.0,0.0,0.0,0.0,0.0,0.0,0.0,0.0,0.0,0.0,0.0,0.0,0.0,0.0,0.0,0.0,0.0,0.0,0.0,0.0,0.0,0.0,0.0,0.0,0.0,0.0,0.0,0.0,0.0,0.0,0.0,0.0,0.0,0.0,0.0,0.0,0.0,0.0,0.0,0.0,0.0,0.0,0.0,0.0,0.0,0.0,0.0,0.0,0.0,0.0,0.0,0.0,0.0,0.0,0.0,0.0,0.0,0.0,0.0,0.0,0.0,0.0,0.0,0.0,0.0,0.0,0.0,0.0,0.0,0.0,0.0,0.0,0.0,0.0,0.0,0.0,0.0,0.0,0.0,0.0,0.0,0.0,0.0,0.0,0.0,0.0,0.0,0.0,0.0,2.7394,3.1016,3.3633,3.4919,3.4757,3.447,3.4183,3.1292,2.8558,2.6374,0.0,0.0,0.0,0.0,0.0,0.0,0.0,0.0,0.0,0.0,0.0,0.0,0.0,0.0,0.0,0.0,0.0,0.0,0.0,0.0,0.0,0.0,0.0,0.0,0.0,0.0,0.0,0.0,0.0,0.0,0.0,0.0,0.0,0.0,0.0,0.0,0.0,0.0,0.0,0.0,0.0,0.0,0.0,0.0,0.0,0.0,0.0,0.0,0.0,0.0,0.0,0.0,0.0,0.0,0.0,0.0,0.0,0.0,0.0,0.0,0.0,0.0,0.0,0.0,0.0,0.0,0.0,0.0,0.0,0.0,0.0,0.0,0.0,0.0,0.0,0.0,0.0,0.0,0.0,0.0,0.0,0.0,0.0,0.0,0.0,0.0,0.0,0.0,0.0,0.0,0.0,0.0,0.0,0.0,0.0,0.0,0.0,0.0,0.0,0.0,0.0,0.0,2.7355,3.0715,3.318,3.4542,3.4307,3.3986,3.3815,3.1586,2.9209,2.6868,0.0,0.0,0.0,0.0,0.0,0.0,0.0,0.0,0.0,0.0,0.0,0.0,0.0,0.0,0.0,0.0,0.0,0.0,0.0,0.0,0.0,0.0,0.0,0.0,0.0,0.0,0.0,0.0,0.0,0.0,0.0,0.0,0.0,0.0,0.0,0.0,0.0,0.0,0.0,0.0,0.0,0.0,0.0,0.0,0.0,0.0,0.0,0.0,0.0,0.0,0.0,0.0,0.0,0.0,0.0,0.0,0.0,0.0,0.0,0.0,0.0,0.0,0.0,0.0,0.0,0.0,0.0,0.0,0.0,0.0,0.0,0.0,0.0,0.0,0.0,0.0,0.0,0.0,0.0,0.0,0.0,0.0,0.0,0.0,0.0,0.0,0.0,0.0,0.0,0.0,0.0,0.0,0.0,0.0,0.0,0.0,0.0,0.0,0.0,0.0,0.0,0.0,2.7369,3.0566,3.297,3.4523,3.416,3.3807,3.3807,3.1586,2.931,2.7231,0.0,0.0,0.0,0.0,0.0,0.0,0.0,0.0,0.0,0.0,0.0,0.0,0.0,0.0,0.0,0.0,0.0,0.0,0.0,0.0,0.0,0.0,0.0,0.0,0.0,0.0,0.0,0.0,0.0,0.0,0.0,0.0,0.0,0.0,0.0,0.0,0.0,0.0,0.0,0.0,0.0,0.0,0.0,0.0,0.0,0.0,0.0,0.0,0.0,0.0,0.0,0.0,0.0,0.0,0.0,0.0,0.0,0.0,0.0,0.0,1.9757,0.0,0.0,0.0,0.0,0.0,0.0,0.0,0.0,0.0,0.0,0.0,0.0,0.0,0.0,0.0,0.0,0.0,0.0,0.0,0.0,0.0,0.0,0.0,0.0,0.0,0.0,0.0,0.0,0.0,0.0,0.0,0.0,0.0,0.0,0.0,0.0,0.0,0.0,0.0,0.0,0.0,2.7433,3.0487,3.2866,3.4523,3.416,3.3807,3.3807,3.1586,2.9738,2.8625,2.4096,0.0,0.0,0.0,0.0,0.0,0.0,0.0,0.0,0.0,0.0,0.0,0.0,0.0,0.0,0.0,0.0,0.0,0.0,0.0,0.0,0.0,0.0,0.0,0.0,0.0,0.0,0.0,0.0,0.0,0.0,0.0,0.0,0.0,0.0,0.0,0.0,0.0,0.0,0.0,0.0,0.0,0.0,0.0,0.0,0.0,0.0,0.0,0.0,0.0,0.0,0.0,0.0,0.0,0.0,0.0,0.0,0.0,0.0,0.0,0.0,2.2782,0.0,0.0,0.0,0.0,0.0,0.0,0.0,0.0,0.0,0.0,0.0,0.0,0.0,0.0,0.0,0.0,0.0,0.0,0.0,0.0,0.0,0.0,0.0,0.0,0.0,0.0,0.0,0.0,0.0,0.0,0.0,0.0,0.0,0.0,0.0,0.0,0.0,0.0,0.0,0.0,2.8135,3.108,3.3312,3.4579,3.416,3.3807,3.3807,3.2302,3.093,2.9962,2.6485,0.0,0.0,0.0,0.0,0.0,0.0,0.0,0.0,0.0,0.0,0.0,0.0,0.0,0.0,0.0,0.0,0.0,0.0,0.0,0.0,0.0,0.0,0.0,0.0,0.0,0.0,0.0,0.0,0.0,0.0,0.0,0.0,0.0,0.0,0.0,0.0,0.0,0.0,0.0,0.0,0.0,0.0,0.0,0.0,0.0,0.0,0.0,0.0,0.0,0.0,0.0,0.0,0.0,2.8548,2.9694,3.0383,3.0256,3.0698,3.1371,2.8525,2.7717,2.8238,2.5765,0.0,0.0,0.0,0.0,0.0,0.0,0.0,0.0,0.0,0.0,0.0,0.0,0.0,0.0,0.0,0.0,0.0,0.0,0.0,0.0,0.0,0.0,0.0,0.0,3.0062,2.9812,0.0,0.0,0.0,0.0,0.0,0.0,0.0,0.0,0.0,0.0,0.0,0.0,2.9055,3.1808,3.3786,3.4536,3.4136,3.3807,3.3807,3.3073,3.2151,3.1068,2.8819,2.634,0.0,0.0,0.0,0.0,0.0,0.0,0.0,0.0,0.0,0.0,0.0,0.0,0.0,0.0,0.0,0.0,0.0,0.0,0.0,0.0,0.0,0.0,0.0,0.0,0.0,0.0,0.0,0.0,0.0,0.0,0.0,0.0,1.6468,1.815,0.0,0.0,0.0,0.0,0.0,0.0,0.0,0.0,0.0,0.0,0.0,0.0,0.0,2.6928,2.8572,3.0923,3.2083,3.205,3.3769,3.462,3.468,3.4661,3.5174,3.6015,3.543,0.0,2.9948,2.814,0.0,0.0,0.0,0.0,0.0,0.0,0.0,0.0,0.0,0.0,0.0,0.0,0.0,0.0,0.0,0.0,0.0,0.0,0.0,0.0,0.0,0.0,3.2146,3.1549,3.2645,3.3179,0.0,2.811,2.5533,2.3637,2.1577,0.0,0.0,0.0,0.0,0.0,0.0,0.0,2.9757,3.2031,3.3646,3.4195,3.3986,3.3807,3.3807,3.3073,3.2236,3.1396,3.0053,2.8455,2.6692,2.4782,0.0,0.0,0.0,0.0,0.0,0.0,0.0,0.0,0.0,0.0,0.0,0.0,0.0,0.0,0.0,0.0,0.0,0.0,0.0,0.0,0.0,0.0,0.0,0.0,0.0,0.0,0.0,0.0,0.0,1.6555,1.9134,2.031,2.0587,2.0139,0.0,0.0,0.0,0.0,0.0,0.0,0.0,0.0,0.0,2.9078,2.9943,3.1178,3.2924,3.4501,3.5284,3.5254,3.643,3.6978,3.6954,3.693,3.7123,3.7502,3.745,3.6392,3.4507,3.2333,3.0448,2.8736,0.0,0.0,0.0,0.0,2.6346,2.7113,2.7802,2.8521,0.0,2.7764,0.0,0.0,0.0,0.0,0.0,0.0,0.0,0.0,0.0,0.0,3.4726,3.4677,3.5573,3.621,3.5411,3.368,3.1205,0.0,2.6801,2.5687,2.2469,0.0,0.0,0.0,0.0,0.0,3.194,3.3728,3.4851,3.4913,3.4663,3.4302,3.3844,3.3476,3.3004,3.2347,3.1387,3.0208,2.8843,2.6982,2.4875,0.0,0.0,0.0,0.0,0.0,0.0,0.0,0.0,0.0,0.0,0.0,0.0,0.0,0.0,0.0,0.0,0.0,0.0,0.0,0.0,0.0,0.0,0.0,0.0,0.0,0.0,0.0,0.0,1.8887,2.1415,2.2441,2.3314,2.316,0.0,0.0,0.0,0.0,0.0,0.0,2.734,2.8623,3.0481,3.3125,3.3746,3.4762,3.6296,3.7171,3.7578,3.7606,3.8343,3.8704,3.8704,3.8661,3.8642,3.8642,3.8642,3.8642,3.843,3.5892,3.3987,3.2526,3.1006,2.989,2.9286,3.0175,3.0645,3.103,3.2413,3.3014,3.3106,3.2504,0.0,3.084,2.9648,0.0,0.0,0.0,0.0,3.2658,3.4697,3.5835,3.6562,3.6933,3.7674,3.8204,3.7932,3.7533,3.6012,0.0,3.1564,3.0794,2.6996,0.0,0.0,0.0,0.0,3.2239,3.413,3.5426,3.607,3.572,3.5293,3.4752,3.4174,3.3917,3.3545,3.2932,3.2214,3.133,3.0276,2.8698,2.695,2.5101,0.0,0.0,0.0,0.0,0.0,0.0,0.0,0.0,0.0,0.0,0.0,0.0,0.0,0.0,0.0,0.0,0.0,0.0,0.0,0.0,0.0,0.0,0.0,0.0,0.0,0.0,0.0,0.0,0.0,2.4928,2.588,0.0,0.0,0.0,0.0,2.6485,2.8037,3.0075,3.2576,3.2749,3.3972,3.6671,3.6603,3.6988,3.7973,3.8777,3.9181,3.9181,3.9988,4.0373,4.0373,4.0373,4.0354,4.0354,4.0354,4.0354,4.0181,3.7623,3.6084,3.5218,3.4295,3.341,3.2756,3.3712,3.4571,3.531,3.5474,3.6056,3.6738,3.6694,3.618,3.5566,3.5488,3.4336,0.0,0.0,3.4985,3.5834,3.6667,3.7425,3.7936,3.7719,3.8213,3.8537,3.7698,3.8136,3.8228,0.0,3.443,3.2756,3.2506,0.0,3.0848,3.2393,3.3469,3.453,3.5745,3.6558,3.6827,3.6325,3.5495,3.4972,3.4935,3.4247,3.3458,3.2676,3.2098,3.153,3.0884,2.9494,2.8415,2.7717,2.5207,0.0,0.0,0.0,0.0,0.0,0.0,0.0,0.0,0.0,0.0,0.0,0.0,0.0,0.0,0.0,0.0,0.0,0.0,0.0,0.0,0.0,0.0,0.0,0.0,0.0,0.0,0.0,0.0,2.7552,2.9006,0.0,2.828,2.9214,3.0148,3.0681,3.1796,3.3313,3.5306,3.5402,3.6325,3.8396,3.8411,3.8777,3.9642,3.9931,4.0065,4.0065,4.0354,4.0489,4.0489,4.0489,4.0425,4.0232,4.0232,4.012,3.9848,3.8954,3.8323,3.7853,3.6988,3.6449,3.6219,3.6565,3.6887,3.7156,3.7166,3.7377,3.7647,3.7685,3.7585,3.7434,3.7436,3.7035,3.674,3.7579,3.8035,3.8454,3.9187,3.9423,3.9414,3.928,3.9273,3.9245,3.8923,3.9113,3.9235,3.8935,3.7417,3.5834,3.4757,3.4564,3.4571,3.4608,3.5193,3.6103,3.7337,3.7572,3.7471,3.7095,3.6321,3.5624,3.5045,3.4266,3.3458,3.2669,3.1925,3.1336,3.0904,2.9368,2.8351,2.7909,2.5909,2.3216,0.0,0.0,0.0,0.0,0.0,0.0,0.0,0.0,0.0,0.0,0.0,0.0,0.0,0.0,0.0,0.0,0.0,0.0,0.0,0.0,0.0,0.0,0.0,0.0,0.0,0.0,2.8123,2.9775,3.1506,3.2314,3.1737,3.2718,3.3622,3.4141,3.4988,3.6103,3.7507,3.7584,3.8238,3.9662,3.97,3.995,4.0489,4.0489,4.0642,4.0931,4.0811,4.0912,4.118,4.1073,4.0921,4.0737,4.0737,4.0609,4.0405,4.0405,4.0331,4.0118,3.9095,3.8754,3.8834,3.8834,3.8834,3.8834,3.8834,3.8834,3.8854,3.8911,3.9012,3.9119,3.9104,3.912,3.9256,3.9809,3.9979,4.005,4.0408,4.0329,4.0095,3.9835,3.9599,3.9414,3.9414,3.9414,3.9529,3.988,3.903,3.7955,3.6954,3.7012,3.7074,3.6673,3.6954,3.7539,3.8461,3.8402,3.8192,3.7941,3.7165,3.6358,3.5514,3.4431,3.3568,3.3054,3.1733,3.096,3.0809,2.9176,2.8102,2.7701,2.6044,2.4015,2.1562,0.0,0.0,0.0,0.0,0.0,0.0,0.0,0.0,0.0,0.0,0.0,0.0,0.0,0.0,0.0,0.0,0.0,0.0,0.0,0.0,0.0,0.0,0.0,2.4359,2.7189,2.989,3.1602,3.3295,3.4314,3.4295,3.5801,3.6762,3.6748,3.757,3.8416,3.9262,3.9339,3.9704,4.0473,4.0546,4.0566,4.0566,4.0566,4.1008,4.1854,4.1495,4.1758,4.2502,4.2148,4.1996,4.1996,4.1996,4.1996,4.1971,4.1971,4.1996,4.1851,4.0606,4.0288,4.0527,4.0508,4.0489,4.0489,4.0489,4.0489,4.0489,4.0489,4.0585,4.0696,4.0696,4.0735,4.0773,4.07,4.0681,4.0595,4.0196,4.0081,3.9901,3.9238,3.9099,3.9099,3.9099,3.9099,3.9205,3.9529,3.9155,3.8917,3.9269,3.8623,3.8239,3.8765,3.8842,0.0,3.9093,3.9099,3.8999,3.8719,3.7973,3.7165,3.6358,3.4798,3.3807,3.3733,3.1531,3.0351,3.0583,2.9022,2.7902,2.7361,2.585,2.4785,2.4187,0.0,0.0,0.0,0.0,0.0,0.0,0.0,0.0,0.0,0.0,0.0,0.0,0.0,0.0,0.0,0.0,0.0,0.0,0.0,0.0,0.0,0.0,2.8612,2.798,3.0732,3.3199,3.4334,3.593,3.6853,3.6621,3.7578,3.8117,3.7886,3.8664,3.9273,3.9501,4.0068,4.0482,4.0713,4.1531,4.1954,4.1954,4.2232,4.2508,4.2739,4.2355,4.2292,4.2502,4.2148,4.1893,4.1707,4.1707,4.1585,4.1354,4.1354,4.1497,4.1651,4.0915,4.0794,4.0998,4.0424,4.0339,4.0473,4.0286,4.0339,4.0473,4.0267,4.0358,4.0562,4.0562,4.0581,4.055,4.0307,4.0271,4.0196,3.9838,3.9552,3.9314,3.9133,3.8961,3.8803,3.8803,3.8803,3.8884,3.9178,3.9102,3.9194,3.9776,3.9854,3.981,3.9757,3.9539,0.0,3.9115,3.8933,3.8773,3.8707,3.7973,3.7165,3.6358,3.5312,3.3935,3.2155,3.1439,3.102,3.0885,2.9851,2.9058,2.86,2.7631,2.6705,0.0,0.0,0.0,0.0,0.0,0.0,0.0,0.0,0.0,0.0,0.0,0.0,0.0,0.0,0.0,0.0,0.0,0.0,0.0,0.0,0.0,0.0,3.0505,3.2241,3.243,3.4063,3.5718,3.6949,3.795,3.8565,3.8594,3.9052,3.922,3.8863,3.9632,4.0085,4.0085,4.0853,4.1305,4.1305,4.1949,4.2287,4.2287,4.2519,4.2811,4.3174,4.2791,4.2799,4.312,4.2791,4.256,0.0,4.2403,4.2295,4.2121,4.2121,4.2216,0.0,0.0,0.0,0.0,0.0,4.099,4.1112,4.0948,4.099,4.1112,4.0948,4.099,4.1131,4.1131,4.1131,4.1092,4.0927,4.0903,4.0817,4.0509,4.0277,4.0105,3.9981,3.9817,3.9625,3.9276,3.9203,3.9136,3.8968,3.9008,0.0,3.9622,3.9944,4.0024,3.9731,3.9529,3.9282,3.8961,3.8803,3.8707,3.8707,3.8285,3.7679,3.6853,3.5697,0.0,0.0,0.0,3.1238,3.0847,3.013,0.0,0.0,0.0,0.0,0.0,0.0,0.0,0.0,2.8384,2.8937,0.0,0.0,0.0,0.0,0.0,0.0,0.0,0.0,0.0,0.0,0.0,0.0,0.0,0.0,0.0,0.0,3.3705,3.5359,3.6877,3.7113,3.768,3.9123,3.9373,3.9605,4.0005,4.0042,3.9918,3.9661,4.0284,4.0735,4.0829,0.0,0.0,0.0,0.0,4.2227,4.2227,4.2278,4.2662,4.3441,4.31,4.3316,4.3986,4.3646,4.3497,4.3497,4.3497,4.3497,4.3497,4.3497,4.3497,4.3367,4.2198,4.1838,4.1971,4.1996,4.1996,4.1996,4.1971,0.0,0.0,4.1971,4.1971,4.1996,4.1996,4.1996,4.1977,4.1971,4.1945,4.1893,4.1613,4.1545,4.1475,4.1158,4.1111,4.091,4.0194,4.0029,3.979,3.9001,3.9042,3.9156,3.9063,3.9358,3.9505,3.9133,3.9099,3.8999,3.875,3.8707,3.8707,3.8707,0.0,0.0,3.7551,3.6138,3.5192,3.5009,3.3025,3.1658,3.1229,3.0864,3.1083,3.1976,3.2699,3.3537,3.4487,3.5968,3.643,3.5853,3.1987,3.2248,0.0,0.0,0.0,0.0,0.0,0.0,0.0,0.0,0.0,0.0,0.0,0.0,0.0,0.0,0.0,3.3597,3.5867,3.7733,3.8747,3.9396,3.9642,3.9335,3.9873,4.013,3.9716,3.9709,3.9758,3.9808,4.0,4.0357,4.1021,4.1796,4.2239,4.2239,4.3107,4.3602,4.3602,4.3931,4.4183,4.4334,0.0,0.0,4.3986,4.3646,4.3497,4.3497,4.3497,4.3497,4.3497,4.3497,4.3497,4.3456,4.2798,4.2191,4.1707,4.1919,4.1996,4.1971,4.1744,4.1807,4.1971,4.1744,4.1807,4.1996,4.1996,4.1996,0.0,4.1744,4.168,4.1613,4.128,4.119,4.119,4.1111,4.1111,4.1075,4.091,4.0873,4.0634,3.9827,3.9706,3.9547,3.8902,3.9223,3.9505,3.9133,3.9099,3.8999,3.875,3.8707,3.8707,3.8707,3.8707,3.8377,3.7551,3.7184,3.6431,3.5082,3.4825,3.4755,3.4858,3.5609,3.59,3.5676,3.583,3.6017,3.6219,3.6546,3.7334,3.8527,3.7065,3.681,0.0,0.0,0.0,0.0,0.0,0.0,0.0,0.0,0.0,0.0,0.0,2.8202,3.0366,0.0,3.452,3.6574,3.793,3.8988,3.9672,4.0194,4.0335,3.995,4.0258,4.0319,3.9882,4.0046,4.0171,4.0108,4.0725,4.1277,4.168,4.2451,4.2892,4.2892,4.3457,4.3758,4.3758,4.3962,4.4035,4.4035,4.3836,4.3758,4.374,4.3563,4.3497,4.3497,4.3497,4.3497,4.3497,4.3497,4.3497,4.3477,4.3254,4.2894,4.2556,4.2705,4.2746,4.2716,4.2619,4.2631,4.2716,4.2588,4.2631,4.2746,4.2746,4.2746,4.2716,4.2588,4.2543,4.2511,4.2353,4.2304,4.2304,4.2304,4.2304,4.2194,4.1791,4.1699,4.146,4.0671,4.0506,4.0249,3.9441,3.9552,3.9565,3.8997,3.8894,3.8855,3.8719,3.8707,3.8707,3.8707,3.8707,3.8542,3.812,3.7716,3.6964,3.5734,3.5932,3.6227,3.6486,3.7148,3.746,3.7353,3.7777,3.8007,3.8007,3.8834,3.97,4.0546,4.0604,4.0358,0.0,0.0,0.0,0.0,0.0,0.0,0.0,0.0,2.6411,2.8298,3.0416,3.2551,3.4638,3.5791,3.7064,3.9054,3.9465,3.967,4.0043,4.0232,4.0336,4.0336,4.0422,4.0372,4.0042,4.0488,4.0703,4.0457,4.1585,4.2378,4.2525,4.3149,4.3497,4.3497,4.3497,4.3497,4.3497,4.3497,4.3497,4.3497,4.3497,4.3497,4.3497,4.3497,4.3497,4.3497,4.3497,4.3497,4.3497,4.3497,4.3497,4.3497,4.3497,4.3497,4.3497,4.3497,4.3497,4.3497,4.3497,4.3497,4.3497,4.3497,4.3497,4.3497,4.3497,4.3497,4.3497,4.3497,4.3497,4.3497,4.3497,4.3497,4.3497,4.3497,4.3497,4.3314,4.2671,4.2525,4.2304,4.1497,4.135,4.1093,4.0267,4.012,3.9808,3.8836,3.8707,3.8707,3.8707,3.8707,3.8707,3.8707,3.8707,3.8707,3.8707,3.8102,3.7441,3.6798,3.7025,3.7287,3.758,3.787,3.8167,3.8488,3.9181,3.9623,3.9796,4.1143,4.1893,4.2066,4.2931,4.297,2.1626,2.1909,2.2766,2.5308,2.5496,2.6464,0.0,0.0,3.1828,3.4237,3.5554,3.6358,3.6512,3.7886,3.9054,3.9277,3.971,4.0024,4.0081,3.9861,3.9712,3.9712,4.0175,4.0266,3.9712,4.0354,4.0862,4.0988,4.1824,4.2598,4.3314,4.3442,4.3497,4.3497,4.3497,4.3497,4.3497,4.3497,4.3497,4.3497,4.3497,4.3497,4.3497,4.3497,4.3497,4.3497,4.3497,4.3497,4.3497,4.3497,4.3497,4.3497,4.3497,4.3497,4.3497,4.3497,4.3497,4.3497,4.3497,4.3497,4.3497,4.3497,4.3497,4.3497,4.3497,4.3497,4.3497,4.3497,4.3497,4.3497,4.3497,4.3497,4.3497,4.3497,4.3497,4.3461,4.3387,4.3369,4.313,4.2323,4.2176,4.1919,4.1111,4.0983,4.0451,3.8927,3.8707,3.8707,3.8707,3.8707,3.8707,3.8707,3.8707,3.8707,3.8707,3.8615,3.8524,3.845,3.8683,3.8976,3.9316,3.9637,3.9927,4.02,4.0315,4.0739,4.1527,4.172,4.22,4.297,4.3797,4.4105,2.5563,2.6562,0.0,0.0,3.0206,3.1327,3.3819,3.4114,3.4301,3.5846,3.7085,3.7852,3.7806,3.8741,3.9585,0.0,3.9794,3.9797,3.9797,3.969,3.934,3.8702,3.9599,4.0177,3.9922,4.0424,4.101,4.1577,4.205,4.2653,4.3442,4.3497,4.3497,4.3497,4.3497,4.3497,4.3497,4.3497,4.3497,4.3497,4.3497,4.3497,4.3497,4.3497,4.3497,4.3497,4.3497,4.3497,4.3497,4.3497,4.3497,4.3497,4.3497,4.3497,4.3497,4.3497,4.3497,4.3497,4.3497,4.3497,4.3497,4.3497,4.3497,4.3497,4.3497,4.3497,4.3497,4.3497,4.3497,4.3497,4.3497,4.3497,4.341,4.3105,4.3014,4.3014,4.3014,4.3014,4.3032,4.3023,4.3002,4.2745,4.1937,4.1809,4.1423,4.0286,4.0102,4.0102,4.0102,4.0102,3.9918,3.9441,3.8982,3.8707,3.8707,3.8707,3.8762,3.8923,3.9036,3.9339,3.988,4.0479,4.0939,4.1258,4.1739,4.2181,4.2566,4.3028,4.3431,4.3816,4.4662,4.5047,2.7994,0.0,0.0,3.2192,3.373,3.5052,3.5473,3.5854,3.6363,3.7174,3.7957,3.8465,3.8465,3.8968,3.9477,3.9738,3.9749,3.9754,3.9754,3.9387,3.8944,3.844,3.912,3.9755,4.0081,4.0618,4.1137,4.1625,4.214,4.2691,4.3281,4.3437,4.3497,4.3497,4.3497,4.3497,4.3497,4.3497,4.3497,4.3497,4.3497,4.3497,4.3497,4.3497,4.3548,4.3612,4.3548,4.3497,4.3497,4.3497,4.3497,4.3532,4.3597,4.3646,4.3646,4.3646,4.3563,4.3497,4.3497,4.3497,4.3497,4.3497,4.3497,4.3497,4.3497,4.3497,4.3497,4.3497,4.3497,4.3497,4.3497,4.3497,4.3356,4.2826,4.2711,4.2711,4.2711,4.2711,4.2864,4.341,4.3497,4.3296,4.2727,4.2635,4.2433,4.1864,4.1772,4.1607,4.1167,4.1111,4.0891,4.0286,3.9717,3.9368,3.9368,3.9368,3.9436,3.9657,3.9842,4.0134,4.0625,4.1399,4.1894,4.2162,4.2777,4.3201,4.3431,4.4028,4.4412,4.4662,4.5297,4.5586,0.0,0.0,3.209,3.3873,3.5331,3.6768,3.8401,3.8568,3.8609,3.9364,3.892,3.8392,3.8392,3.8686,3.8917,3.8917,3.9586,4.0081,4.0081,3.8855,3.8359,3.9421,3.8905,3.8904,0.0,4.0824,4.1155,4.0858,4.2053,4.2791,4.2809,4.324,4.3497,4.3497,4.3497,4.3497,4.3497,4.3497,4.3497,4.3497,4.3497,4.3497,4.3497,4.3497,4.3679,4.3955,4.3646,4.3497,4.3497,4.3497,4.3497,4.3548,4.3849,4.3967,4.3967,4.3967,4.3772,4.3497,4.3497,4.3497,4.3497,4.3497,4.3497,4.3497,4.3497,4.3497,4.3497,4.3497,4.3497,4.3497,4.3497,4.3497,4.3356,4.2826,4.2711,4.2711,4.2711,4.2711,4.2864,4.341,4.3497,4.3479,4.3461,4.3442,4.3442,4.3424,4.3424,4.2855,4.1313,4.1111,4.1111,4.1075,4.1056,4.1038,4.1038,4.1038,4.1038,4.1038,4.166,4.2033,4.2033,4.2699,4.3066,4.3066,4.3085,4.347,4.4259,4.4297,4.472,4.5547,4.5586,4.5586,0.0,0.0,3.398,3.5821,3.6955,3.7945,3.9101,3.9126,3.8726,3.8199,3.7495,3.6766,3.5892,3.607,3.663,3.7616,3.8263,3.8977,3.9946,3.9485,3.8954,3.8826,3.9229,0.0,0.0,0.0,0.0,4.0783,4.1557,4.2136,4.2429,4.3347,4.3726,4.3532,4.3726,4.3726,4.3479,4.3497,4.3497,4.3479,4.3726,4.3726,4.3532,4.3726,4.3772,4.3679,4.3548,4.3497,4.3513,4.3758,4.3818,4.3881,4.4252,4.4419,4.4419,4.4419,4.4165,4.3804,4.3563,4.3497,4.3497,4.3497,4.3497,4.3497,4.3497,4.3497,4.3497,4.3497,4.3497,4.341,4.305,4.2976,4.2714,4.175,4.181,4.2121,4.2121,4.244,4.2864,4.341,4.3497,4.3497,4.3497,4.3497,4.3497,4.3497,4.3497,4.3296,4.2763,4.2231,4.1901,4.1901,4.1423,4.1111,4.1111,4.1111,4.128,4.1735,4.1983,4.2299,4.2757,4.348,4.3893,4.3893,4.4451,4.4893,4.5163,4.5163,4.5297,4.5586,4.5586,4.5586,0.0,3.3883,3.5396,3.7154,3.796,3.8483,3.9025,3.8544,3.7711,3.6674,3.5545,3.4433,3.3334,3.3305,3.4056,3.5863,3.6832,3.8002,3.9852,3.9675,3.9309,3.9164,3.9719,4.0062,0.0,0.0,0.0,4.0703,4.1632,4.2192,4.2198,4.3225,4.3772,4.366,4.3881,4.3912,4.366,4.3679,4.3631,4.3479,4.3726,4.3772,4.3712,4.3893,4.3881,4.3679,4.3679,4.3631,4.3513,4.3726,4.3836,4.3881,4.4392,4.458,4.458,4.458,4.4447,4.4146,4.3804,4.3597,4.3497,4.3497,4.3497,4.3497,4.3497,4.3497,4.3497,4.3497,4.3497,4.341,4.3069,4.2976,4.2752,4.175,4.1853,4.2121,4.2121,4.244,4.2864,4.341,4.3497,4.3497,4.3497,4.3497,4.3497,4.3497,4.3497,4.3497,4.3497,4.3039,4.2727,4.2727,4.2268,4.2022,4.2147,4.2147,4.237,4.297,4.3118,4.3368,4.3809,4.4435,4.4759,4.4759,4.5297,4.5586,4.5586,4.5586,4.5586,4.5586,4.5586,4.5586,3.3028,3.4682,3.634,3.7882,3.8329,3.8365,3.8328,3.7081,3.5687,3.4888,3.319,3.1578,0.0,0.0,3.1453,3.3803,3.5457,3.7294,3.9738,3.949,3.9427,0.0,0.0,0.0,0.0,0.0,0.0,4.0665,0.0,4.2869,4.209,4.2996,4.3679,4.3955,4.3986,4.3986,4.3986,4.3986,4.3818,4.3497,4.3513,4.366,4.3986,4.3986,4.4016,4.4016,4.4016,4.3836,4.3548,4.3563,4.3563,4.3664,4.4337,4.465,4.4606,4.4624,4.458,4.4527,4.4117,4.3772,4.3497,4.3497,4.3497,4.3497,4.3497,4.3497,4.3497,4.3497,4.3497,4.3479,4.3463,4.3444,4.3321,4.277,4.2655,4.2711,4.2711,4.2711,4.2902,4.341,4.3497,4.3497,4.3497,4.3497,4.3497,4.3497,4.3497,4.3497,4.3497,4.3497,4.3497,4.3497,4.3513,4.3646,4.3986,4.4016,4.4204,4.4606,4.4919,4.5096,4.5118,4.5438,4.5586,4.5586,4.5586,4.5586,4.5586,4.5586,4.5586,4.5586,4.5605,4.5605,3.52,3.6838,3.7966,3.801,3.8027,3.7863,3.7283,3.5894,3.4365,3.3032,3.1129,2.9241,2.7493,0.0,0.0,3.2269,3.5032,0.0,3.9814,4.065,0.0,4.145,0.0,4.2458,4.2739,4.3316,0.0,0.0,4.2204,4.2408,4.2576,4.3397,4.3804,4.3612,4.3881,4.3881,4.3612,4.3631,4.3597,4.3479,4.374,4.3772,4.3646,4.3881,4.4016,4.4016,4.4016,4.4136,4.4337,4.4606,4.4688,4.4707,4.4896,4.4966,4.4943,4.4682,4.4419,4.4146,4.4046,4.3772,4.3497,4.3497,4.3497,4.3497,4.3497,4.3497,4.3497,4.3497,4.3497,4.341,4.3014,4.2902,4.277,4.2162,4.2382,4.2711,4.2711,4.3014,4.3339,4.3479,4.3497,4.3497,4.3497,4.3497,4.3497,4.3497,4.3497,4.3497,4.3497,4.3497,4.3497,4.3497,4.3726,4.3912,4.3986,4.4261,4.4606,4.4943,4.5052,4.5222,4.5457,4.5549,4.5586,4.5586,4.5586,4.5586,4.5586,4.5586,4.5586,4.5586,4.5699,4.5757,3.5859,3.7312,3.8234,3.772,3.7345,3.6702,3.542,3.3842,3.2004,2.9821,2.8164,0.0,2.4703,0.0,0.0,0.0,0.0,0.0,3.8988,4.0441,4.1373,0.0,4.2566,0.0,4.3585,4.4047,4.4187,0.0,4.3407,4.3039,4.2805,4.3423,4.374,4.3726,4.3893,4.3893,4.3726,4.3726,4.3726,4.3726,4.3893,4.3986,4.3992,4.4165,4.4261,4.4261,0.0,4.4535,4.4606,4.4781,4.4872,4.4872,4.4872,4.4872,4.4849,4.4455,4.4175,4.3986,4.3818,4.3646,4.3497,4.3497,4.3497,4.3497,4.3497,4.3497,4.3497,4.3497,4.3497,4.3444,4.3142,4.305,4.2976,4.2619,4.279,4.305,4.305,4.3286,4.3497,4.3497,4.3497,4.3497,4.3497,4.3497,4.3497,4.3497,4.3497,4.3529,4.3693,4.3726,4.3791,4.3943,4.4136,4.4318,4.4482,4.4707,4.4966,4.5302,4.5322,4.54,4.5586,4.5586,4.5586,4.5586,4.5586,4.5586,4.5586,4.5643,4.5699,4.5699,4.5796,4.5838,3.5935,3.697,3.7685,3.721,3.6425,3.5275,3.338,3.1373,2.9144,2.6424,0.0,2.3813,2.2404,2.3355,2.5348,2.8401,0.0,3.4718,3.7988,3.9622,4.0816,4.17,4.2566,4.3374,4.4066,4.4143,4.4414,4.5147,4.4623,4.392,4.3088,4.3342,4.3646,4.3986,4.3904,4.3849,4.3849,4.3737,4.3725,4.3757,4.3818,4.4082,4.4527,4.458,4.4606,4.4682,4.4966,0.0,4.4732,4.4732,4.4732,4.4707,4.4631,4.458,4.4553,4.4106,4.3924,4.3912,4.3646,4.3582,4.3582,4.3513,4.3497,4.3497,4.3497,4.3497,4.3497,4.3497,4.3497,4.3497,4.3497,4.3497,4.3497,4.3497,4.3497,4.3497,4.3497,4.3497,4.3497,4.3497,4.3497,4.3497,4.3497,4.3497,4.3513,4.3563,4.3582,4.3693,4.4087,4.4058,4.4146,4.4553,4.4631,4.4781,4.5074,4.514,4.5302,4.5586,4.5586,4.5586,4.5586,4.5586,4.5586,4.5586,4.5586,4.5586,4.5586,4.5738,4.5796,4.5796,4.5892,4.5931,3.7254,3.7435,3.721,3.6684,3.5518,3.4091,3.2468,2.9401,0.0,0.0,0.0,2.1749,2.0968,2.3217,0.0,2.7995,0.0,0.0,0.0,0.0,4.0816,0.0,0.0,0.0,0.0,0.0,0.0,0.0,0.0,4.3045,4.4218,4.3812,4.3646,4.3986,4.3353,4.2999,4.3021,4.2358,4.2217,4.2621,4.2878,4.3405,4.4136,4.4447,4.4732,4.503,4.5074,0.0,4.5438,4.5438,4.5438,4.5362,4.4825,4.458,4.4501,4.3855,4.3597,4.3631,4.3836,4.3893,4.3881,4.3597,4.3497,4.3497,4.3497,4.3497,4.3497,4.3497,4.3497,4.3497,4.3497,4.3497,4.3497,4.3497,4.3497,4.3497,4.3497,4.3497,4.3497,4.3497,4.3497,4.3497,4.3497,4.3497,4.3597,4.3881,4.3893,4.4146,4.483,4.4401,4.4146,4.4553,4.4849,4.5052,4.5096,4.5342,4.555,4.5605,4.5586,4.5586,4.5586,4.5586,4.5586,4.5586,4.5586,4.5586,4.5586,4.5738,4.5796,4.5796,4.5988,4.6078,3.7395,3.747,3.697,3.6075,3.4882,3.3177,3.011,0.0,0.0,0.0,0.0,2.0092,1.9368,0.0,0.0,0.0,0.0,0.0,0.0,0.0,0.0,0.0,0.0,0.0,0.0,0.0,0.0,0.0,0.0,4.2372,4.3015,4.2551,4.2331,4.2488,4.2118,4.1915,4.1927,4.1712,4.1712,4.194,4.2114,4.2566,4.3265,4.3278,4.3582,4.4059,4.4059,0.0,4.4893,4.447,4.4547,4.482,4.3871,4.3502,4.3431,4.2913,4.272,4.2731,4.2913,4.2968,4.2941,4.276,4.3194,4.3726,4.3529,4.3497,4.3497,4.3497,4.3497,4.3497,4.3497,4.3497,4.3497,4.3497,4.3497,4.3497,4.3497,4.3497,4.3497,4.3497,4.3497,4.3497,4.3497,4.3646,4.3818,4.3986,4.4175,4.4508,4.503,4.4787,4.4713,4.5077,4.5263,4.5362,4.5362,4.5513,4.5586,4.5586,4.5586,4.5586,4.5586,4.5586,4.5586,4.5586,4.568,4.5699,4.5699,4.5873,4.5969,4.5967,4.6119,4.6208,3.7136,3.7274,3.6767,3.5723,3.4284,3.2135,2.8206,2.5244,0.0,0.0,1.8856,1.8654,1.8227,0.0,0.0,0.0,0.0,0.0,0.0,0.0,0.0,0.0,0.0,0.0,0.0,0.0,0.0,0.0,0.0,0.0,4.1595,4.1342,4.1248,4.1396,4.1157,4.1034,4.1052,4.1062,4.1129,4.1248,4.1381,4.1801,4.2498,4.2367,4.2598,4.3104,4.3104,0.0,0.0,4.3355,4.347,4.3953,4.2909,4.2502,4.246,4.2124,4.1996,4.2021,4.2076,4.21,4.21,4.21,4.2758,4.3506,4.3254,4.3176,4.3176,4.3176,4.3176,4.3176,4.3176,4.3176,4.3199,4.3336,4.3419,4.3497,4.3497,4.3497,4.3497,4.3497,4.3582,4.3597,4.3597,4.3881,4.4146,4.4214,4.4508,4.4825,4.5161,4.5201,4.5302,4.5568,4.5586,4.5586,4.5586,4.5586,4.5586,4.5586,4.5586,4.5586,4.5586,4.5586,4.5605,4.5624,4.5757,4.5828,4.5812,4.602,4.6103,4.6082,4.624,4.6308,3.6803,3.6827,3.6371,3.594,3.3459,3.0517,2.839,0.0,0.0,1.932,1.8037,1.7374,1.8223,1.922,0.0,0.0,0.0,0.0,0.0,0.0,0.0,0.0,0.0,0.0,0.0,0.0,0.0,0.0,0.0,0.0,4.1539,4.1574,4.1825,4.2354,4.1359,4.0879,4.0928,3.9855,3.9565,4.0055,4.0675,4.1372,4.2181,4.2738,4.3052,4.3104,4.3104,0.0,0.0,4.3124,4.3143,4.3165,4.2699,4.2502,4.246,4.2124,4.1996,4.2027,4.2354,4.2441,4.2441,4.2441,4.2314,4.2196,4.2145,4.2145,4.2145,4.2145,4.2145,4.2145,4.2145,4.2145,4.2254,4.2739,4.3195,4.3497,4.3497,4.3497,4.3497,4.3497,4.3758,4.3955,4.3955,4.4261,4.4657,4.4966,4.503,4.518,4.5513,4.5568,4.5568,4.5586,4.5586,4.5586,4.5586,4.5586,4.5586,4.5586,4.5586,4.5586,4.5586,4.5586,4.5643,4.5776,4.5796,4.5819,4.5881,4.6027,4.6103,4.6082,4.624,4.6308,3.5814,3.5724,3.4909,3.4111,3.2018,2.9382,2.6499,0.0,1.9624,1.8286,1.7165,1.6686,1.7573,1.8414,1.9994,0.0,2.3419,2.4954,0.0,0.0,0.0,0.0,0.0,0.0,0.0,0.0,0.0,0.0,0.0,0.0,4.0384,4.0195,4.0221,4.0446,4.0021,3.9795,3.982,3.9328,3.911,3.9166,3.962,4.009,4.0599,4.0889,4.1189,4.1527,4.1527,0.0,0.0,4.1739,4.1835,4.2242,4.1562,4.1297,4.128,4.1151,4.1113,4.1132,4.1262,4.1297,4.1297,4.1297,4.1226,4.1226,4.1822,4.1996,4.1996,4.1996,4.1996,4.1996,4.1996,4.1996,4.2046,4.2273,4.2847,4.3378,4.3378,4.3799,4.4154,4.4154,4.428,4.4346,4.4346,4.4657,4.4943,4.5074,4.5263,4.5438,4.5586,4.5586,4.5586,4.5586,4.5586,4.5586,4.5586,4.5586,4.5586,4.5586,4.5586,4.5586,4.5586,4.568,4.5757,4.5796,4.593,4.5995,4.6027,4.6153,4.6215,4.6222,4.6278,4.6308,3.4252,3.4504,3.3875,3.301,3.1182,2.8737,0.0,0.0,1.9219,1.7702,1.6563,1.6079,1.6857,1.77,1.9068,2.1521,2.1589,2.2815,2.6956,0.0,0.0,0.0,0.0,0.0,0.0,0.0,0.0,0.0,0.0,0.0,3.9599,3.9462,3.9389,3.9389,3.9389,3.9389,3.9389,3.9289,3.9144,3.897,3.9275,3.9529,3.9754,3.9821,4.0082,4.0489,4.0489,0.0,0.0,4.0739,4.0854,4.1354,4.0739,4.0489,4.0489,4.0489,4.0489,4.0489,4.0489,4.0489,4.0489,4.0489,4.0489,4.0617,4.1354,4.1567,4.1567,4.1567,4.1567,4.1567,4.1567,4.167,4.1808,4.1808,4.2378,4.2989,4.3234,4.3787,4.4278,4.4542,4.4682,4.4751,4.4751,4.503,4.5243,4.5243,4.5438,4.5586,4.5586,4.5586,4.5605,4.5643,4.5643,4.5624,4.5586,4.5586,4.5586,4.5586,4.5586,4.5586,4.5586,4.5738,4.5808,4.5819,4.6018,4.6121,4.6157,4.6253,4.6308,4.6308,4.6308,4.6308,3.2049,3.3204,3.3727,3.3377,3.1235,2.8652,0.0,2.2722,1.9148,1.786,1.6328,1.5434,1.6166,1.7075,1.8273,2.0035,2.0977,2.2726,2.6226,0.0,0.0,0.0,0.0,0.0,0.0,0.0,0.0,0.0,0.0,0.0,3.9622,3.9901,4.0081,4.0081,4.0081,4.0081,4.0081,3.9775,3.9599,3.9599,3.9922,4.0101,4.0101,4.0372,4.0489,0.0,0.0,0.0,0.0,4.0489,4.0508,4.0508,4.0489,4.0489,4.0489,4.0489,4.0489,4.0489,4.0489,4.0489,4.0489,4.0489,4.0489,4.0489,4.0508,4.0527,4.0527,4.0527,4.0527,4.0527,4.0527,4.0918,4.13,4.13,4.1651,4.2247,4.3121,4.3309,4.3554,4.4429,4.4872,4.5096,4.5096,4.5362,4.5586,4.5586,4.5586,4.5586,4.5586,4.5586,4.5643,4.5776,4.5796,4.5738,4.5605,4.5586,4.5586,4.5586,4.5586,4.5586,4.5586,4.5738,4.5834,4.589,4.6023,4.6174,4.6308,4.6308,4.6308,4.6308,4.6308,4.6308,2.7153,2.826,2.88,2.732,2.613,2.4795,2.2885,2.0484,1.8329,1.7159,1.6035,1.5516,1.6298,1.667,1.8003,2.1446,2.1716,0.0,0.0,0.0,0.0,0.0,0.0,0.0,0.0,0.0,0.0,0.0,0.0,0.0,3.8317,3.8327,3.8861,4.0062,4.0101,4.0101,4.0101,4.0002,3.9819,3.9599,3.9943,4.0101,4.0101,4.0177,4.0339,0.0,0.0,0.0,0.0,4.0489,4.0489,4.0489,4.0489,4.0489,4.0489,4.0489,4.0489,4.0489,4.0489,4.0489,4.0489,4.0489,4.0489,4.0489,4.0489,4.0489,4.0489,4.0489,4.0489,4.0489,4.0489,4.0633,4.0739,4.0739,4.1319,4.1934,4.2221,4.2757,4.3235,4.3522,4.4116,4.4556,4.4556,4.5129,4.5586,4.5586,4.5586,4.5586,4.5586,4.5586,4.5605,4.5643,4.5643,4.568,4.5738,4.5738,4.5699,4.5605,4.5586,4.5624,4.5738,4.5815,4.5921,4.6027,4.618,4.6257,4.6308,4.6308,4.6308,4.6308,4.6308,4.6308,0.0,2.4598,2.5148,2.3873,2.3142,2.2359,2.0877,1.9282,1.782,1.6772,1.5896,1.5452,1.5912,1.6285,1.7465,2.0389,2.0993,0.0,0.0,0.0,0.0,0.0,0.0,0.0,0.0,0.0,0.0,0.0,0.0,0.0,3.7869,3.7768,3.8223,3.9312,3.9313,3.9313,3.9313,3.9313,3.9203,3.9012,3.9528,3.9792,3.9811,4.0116,4.0358,0.0,0.0,0.0,0.0,4.0581,4.0562,4.0489,4.0489,4.0489,4.0489,4.0489,4.0489,4.0489,4.0489,4.0489,4.0489,4.0489,4.0489,4.0489,4.0489,4.0489,4.0489,4.0489,4.0489,4.0489,4.0489,4.0489,4.0489,4.0489,4.0912,4.1393,4.1739,4.2239,4.272,4.3047,4.3508,4.3932,4.4239,4.4739,4.522,4.5547,4.5586,4.5605,4.568,4.568,4.5699,4.5776,4.5738,4.5757,4.5834,4.5776,4.5699,4.5605,4.5586,4.5643,4.5796,4.5847,4.5959,4.6084,4.6228,4.6308,4.6308,4.6308,4.6308,4.6308,4.6308,4.6308,0.0,2.1837,2.2601,2.2406,2.1793,2.1034,2.0225,1.8824,0.0,1.66,1.5823,1.5313,1.538,1.5997,1.6849,1.7965,0.0,0.0,0.0,0.0,0.0,0.0,0.0,0.0,0.0,0.0,0.0,0.0,0.0,0.0,3.7954,3.7926,3.794,3.7945,3.7873,3.7873,3.8007,3.8007,3.8007,3.8007,3.8834,3.92,3.9238,3.9988,4.0412,0.0,0.0,0.0,0.0,4.0523,4.0489,4.0431,4.0431,4.045,4.0508,4.0489,4.0489,4.0489,4.0508,4.0508,4.0489,4.0489,4.0489,4.0489,4.0489,4.0489,4.0489,4.0489,4.0489,4.0489,4.0489,4.0489,4.0489,4.0489,4.0489,4.0719,4.1527,4.172,4.195,4.2758,4.297,4.3239,4.3989,4.4162,4.4509,4.5374,4.5509,4.5603,4.5776,4.5794,4.5885,4.6078,4.5982,4.5907,4.5892,4.5719,4.5605,4.5586,4.5586,4.5643,4.5796,4.5871,4.5975,4.6108,4.624,4.6308,4.6308,4.6308,4.6308,4.6308,4.6308,4.6308,1.4723,0.0,1.9669,1.837,1.8364,1.8451,0.0,1.7164,1.6657,1.5834,0.0,1.5752,1.6956,1.6816,1.7843,0.0,0.0,0.0,0.0,0.0,0.0,0.0,0.0,0.0,0.0,0.0,0.0,0.0,0.0,3.7012,3.6449,3.6317,3.6308,3.6402,3.6243,3.6757,3.7988,3.8007,3.8007,3.8007,3.8257,3.8377,3.8377,3.8689,3.8827,0.0,0.0,0.0,3.885,3.8863,3.9246,3.98,3.9704,4.0085,4.0639,4.0543,4.0489,4.0508,4.062,4.06,4.0489,4.0489,4.0489,4.0489,4.0489,4.0489,4.0489,4.0489,4.0489,4.0489,4.0489,4.0489,4.0489,4.0489,4.0489,4.0546,4.0758,4.0796,4.0873,4.1066,4.1643,4.2181,4.2354,4.2951,4.3662,4.447,4.4699,4.5007,4.5719,4.5827,4.5889,4.5947,4.5928,4.5893,4.5813,4.5776,4.5719,4.5605,4.5586,4.568,4.5873,4.5891,4.6013,4.6249,4.6285,4.6308,4.6308,4.6308,4.6308,4.6308,4.6308,4.6308,1.2791,1.5342,1.7777,1.6803,1.7218,1.7714,1.7267,0.0,0.0,0.0,0.0,1.573,1.7015,0.0,0.0,0.0,0.0,0.0,0.0,0.0,0.0,0.0,0.0,0.0,0.0,0.0,0.0,0.0,0.0,3.6319,3.5919,3.5836,3.5824,3.5893,3.5794,3.6103,3.6892,3.6911,3.6911,3.6911,3.7373,3.7604,3.7602,3.8083,3.8331,0.0,0.0,0.0,3.8346,3.835,3.8608,3.9011,3.8914,3.9154,3.9508,3.9492,3.9454,3.9431,3.955,3.98,4.0104,4.0104,4.0335,4.0639,4.0639,4.0639,4.062,4.0543,4.0489,4.0489,4.0489,4.0489,4.0489,4.0489,4.0489,4.0489,4.0489,4.0489,4.0489,4.0489,4.0873,4.1335,4.1739,4.22,4.2797,4.3662,4.3855,4.4124,4.4703,4.4834,4.5004,4.5445,4.5429,4.5537,4.5907,4.5873,4.5776,4.5605,4.5643,4.5757,4.5892,4.596,4.6093,4.6308,4.6308,4.6308,4.6308,4.6308,4.6308,4.6308,4.6308,4.6308,1.2872,1.4889,1.6763,1.6254,1.7109,1.8005,1.7652,0.0,0.0,0.0,0.0,0.0,0.0,0.0,0.0,0.0,0.0,0.0,0.0,0.0,0.0,0.0,0.0,0.0,0.0,0.0,0.0,0.0,0.0,3.5513,3.5527,3.5523,3.5507,3.5527,3.5512,3.5418,3.5243,3.5474,3.563,3.5624,3.6433,3.6822,3.6861,3.7617,3.7976,3.8022,0.0,0.0,3.8027,3.8027,3.8088,3.8157,3.8118,3.8122,3.8166,3.8251,3.8219,3.8155,3.8262,3.8786,3.9419,3.9403,3.9851,4.0444,4.0579,4.0631,4.0612,4.0559,4.0549,4.0543,4.0543,4.0543,4.0543,4.0489,4.0489,4.0489,4.0489,4.0489,4.0489,4.0489,4.0489,4.0719,4.147,4.1623,4.195,4.2876,4.3047,4.3184,4.3553,4.3612,4.3915,4.4724,4.4699,4.4929,4.5655,4.5613,4.5466,4.5282,4.5618,4.5853,4.593,4.6063,4.6173,4.6308,4.6308,4.6308,4.6308,4.6308,4.6308,4.6308,4.6308,4.6308,1.3237,1.5721,1.719,1.493,1.6673,1.8505,1.6965,0.0,0.0,0.0,0.0,0.0,0.0,0.0,0.0,0.0,0.0,0.0,0.0,0.0,0.0,0.0,0.0,0.0,0.0,0.0,0.0,0.0,0.0,3.3729,3.3775,3.3775,3.3782,3.3789,3.3724,3.3685,3.3646,3.4999,3.5685,3.5698,3.5956,3.6067,3.6074,3.6265,3.636,3.637,0.0,3.636,3.6367,3.6367,3.6796,3.7437,3.7339,3.7728,3.8349,3.8315,3.8298,3.8276,3.8296,3.8416,3.8567,3.8517,3.8587,3.882,3.9567,3.979,3.9926,4.0567,4.0757,4.0735,4.0677,4.0677,4.0639,4.0543,4.0489,4.0489,4.0489,4.0489,4.0489,4.0489,4.0489,4.0527,4.0681,4.0793,4.1162,4.2047,4.2329,4.2733,4.3496,4.3644,4.3739,4.3887,4.3885,4.3899,4.3989,4.3967,4.389,4.3742,4.5085,4.595,4.6065,4.6205,4.6282,4.6308,4.6308,4.6308,4.6308,4.6308,4.6308,4.6308,4.6308,4.6308,1.1621,1.418,1.6124,1.4604,1.766,2.0665,1.9218,0.0,0.0,0.0,0.0,0.0,0.0,0.0,0.0,0.0,0.0,0.0,0.0,0.0,0.0,0.0,0.0,0.0,0.0,0.0,0.0,0.0,0.0,0.0,3.3398,3.3398,3.3398,3.3398,3.3325,3.3301,3.3301,3.399,3.4599,3.5067,3.5621,3.5898,3.5905,3.5966,3.5996,3.5996,0.0,3.5974,3.5949,3.5984,3.6211,3.6543,3.6523,3.6735,3.7058,3.7018,3.7017,3.7054,3.7054,3.7391,3.7793,3.777,3.8089,3.8545,3.8928,3.9054,3.9229,4.0073,4.0548,4.0784,4.0765,4.0745,4.0735,4.0677,4.0658,4.0658,4.062,4.062,4.06,4.0508,4.0489,4.0508,4.06,4.0658,4.087,4.1389,4.154,4.1782,4.2235,4.2334,4.2519,4.2949,4.3008,4.3183,4.3613,4.3639,4.3602,4.3518,4.4646,4.5143,4.4818,4.5763,4.6074,4.5605,4.5988,4.6235,4.6308,4.623,4.623,4.6308,4.6308,4.6264,1.0883,1.3114,1.522,1.504,0.0,2.145,2.0728,0.0,0.0,0.0,0.0,0.0,0.0,0.0,0.0,0.0,0.0,0.0,0.0,0.0,0.0,0.0,0.0,0.0,0.0,0.0,0.0,0.0,0.0,0.0,3.2754,3.2773,3.2771,3.277,3.2712,3.2682,3.2663,3.2792,3.3329,3.4192,3.4914,3.5283,3.5293,3.5566,3.5684,3.5703,3.5918,3.5953,3.5907,3.5963,3.5966,3.5918,3.5976,3.5976,3.5916,3.5912,3.5969,3.5996,3.5996,3.6445,3.6992,3.6992,3.7441,3.8026,3.8239,3.8299,3.8474,3.9357,3.9922,4.0376,4.0746,4.0848,4.0834,4.0803,4.0808,4.0789,4.0731,4.0718,4.0696,4.0581,4.0562,4.0581,4.0639,4.0694,4.0789,4.0924,4.1023,4.1066,4.1138,4.1156,4.1381,4.1963,4.2049,4.2363,4.3066,4.3103,4.308,4.3047,4.3995,4.4273,4.3707,4.4969,4.535,4.464,4.519,4.5611,4.5937,4.5824,4.5929,4.6202,4.6202,4.6144,1.3003,1.4353,1.5366,1.6451,1.7639,0.0,1.9119,1.7841,0.0,0.0,0.0,0.0,0.0,0.0,0.0,0.0,0.0,0.0,0.0,0.0,0.0,0.0,0.0,0.0,0.0,0.0,0.0,0.0,0.0,0.0,3.0879,3.0898,3.0898,3.0884,3.0887,3.0864,3.0794,3.1518,3.2382,3.3304,3.3361,3.3429,3.3516,3.4336,3.4726,3.4844,3.5644,3.5953,3.5905,3.5978,3.5959,3.5918,3.5976,3.5996,3.5996,3.5995,3.5995,3.5996,3.5996,3.6035,3.6094,3.6094,3.6133,3.6348,3.7148,3.7382,3.7577,3.8456,3.873,3.9101,4.0605,4.0994,4.0943,4.0824,4.0796,4.0796,4.0796,4.0796,4.0773,4.0696,4.0696,4.0658,4.0543,4.0676,4.0796,4.0816,4.1027,4.1136,4.1036,4.1017,4.0984,4.0918,4.1033,4.1172,4.1367,4.1386,4.1385,4.1364,4.2887,4.372,4.3612,4.3719,4.371,4.3518,4.3572,4.4001,4.4823,4.481,4.5196,4.5924,4.5924,4.5927,1.1278,1.309,1.4894,1.5542,1.6687,0.0,0.0,1.7927,0.0,0.0,0.0,0.0,0.0,0.0,0.0,0.0,0.0,0.0,0.0,0.0,0.0,0.0,0.0,0.0,0.0,0.0,0.0,0.0,0.0,0.0,3.0428,3.0443,3.0516,3.0637,3.0595,3.0564,3.0544,3.0802,3.1109,3.1468,3.2596,3.3147,3.3196,3.3556,3.3773,3.3847,3.4178,3.428,3.4274,3.4911,3.5137,3.5095,3.5702,3.5963,3.5996,3.5957,3.5957,3.5996,3.5996,3.5996,3.5996,3.5996,3.5996,3.6055,3.6387,3.6484,3.668,3.7559,3.7793,3.8184,3.9883,4.0312,4.0448,4.0921,4.1052,4.1033,4.0935,4.0925,4.0882,4.0734,4.0703,4.0677,4.0639,4.0717,4.0791,4.08,4.0955,4.1044,4.0886,4.088,4.0853,4.0817,4.0852,4.0896,4.0955,4.0955,4.0955,4.0955,4.2132,4.2571,4.2013,4.2934,4.3202,4.2596,4.3041,4.3482,4.3885,4.3815,4.3968,4.4349,4.4349,4.4291,1.0457,1.2255,1.4228,0.0,0.0,0.0,1.7658,0.0,0.0,0.0,0.0,0.0,0.0,0.0,0.0,0.0,0.0,0.0,0.0,0.0,0.0,0.0,0.0,0.0,0.0,0.0,0.0,0.0,0.0,0.0,0.0,2.9448,2.9532,2.9683,2.9635,2.9766,3.0063,2.9939,3.0054,3.0398,3.1572,3.218,3.23,3.2608,3.2785,3.2865,3.3156,3.3239,3.3242,3.3971,3.4199,3.4173,3.4805,3.5238,3.5513,3.5467,3.565,3.5908,3.5956,3.5976,3.5976,3.5996,3.5996,3.5996,3.5996,3.5984,3.6099,3.6684,3.6824,3.7136,3.86,3.9235,3.9648,4.0234,4.0586,4.0762,4.0664,4.0843,4.0947,4.077,4.0707,4.0696,4.0639,4.0735,4.0798,4.0773,4.0893,4.0954,4.0798,4.0689,4.0619,4.0604,4.0706,4.078,4.08,4.08,4.08,4.08,4.1434,4.152,4.0927,4.1959,4.2264,4.1613,4.2098,4.2521,4.2899,4.2794,4.2951,4.3297,4.3297,4.3256,1.1238,1.2231,1.3483,0.0,0.0,0.0,0.0,0.0,0.0,0.0,0.0,0.0,0.0,0.0,0.0,0.0,0.0,0.0,0.0,0.0,0.0,0.0,0.0,0.0,0.0,0.0,0.0,0.0,0.0,0.0,0.0,2.7584,2.7692,2.7693,2.7693,2.8147,2.9083,2.8894,2.9334,3.0359,3.0117,3.0169,3.0525,3.1395,3.1831,3.1931,3.28,3.3167,3.3173,3.3261,3.3292,3.3288,3.3223,3.3722,3.4501,3.4484,3.4996,3.571,3.5831,3.5879,3.5898,3.5957,3.5996,3.5996,3.5996,3.595,3.5892,3.5892,3.5794,3.5898,3.6761,3.778,3.8574,3.8594,3.9258,3.9883,3.9883,4.0454,4.0949,4.079,4.0718,4.0639,4.0489,4.0639,4.0769,4.0697,4.0857,4.0908,4.0716,4.0405,4.0196,4.0188,4.0489,4.0716,4.0793,4.0793,4.0793,4.0793,4.0735,4.0696,4.0696,4.0696,4.0639,4.0489,4.0489,4.0912,4.1797,4.1797,4.2239,4.3085,4.3085,4.3085,1.1291,1.289,0.0,0.0,0.0,0.0,0.0,0.0,0.0,0.0,0.0,0.0,0.0,0.0,0.0,0.0,0.0,0.0,0.0,0.0,0.0,0.0,0.0,0.0,0.0,0.0,0.0,0.0,0.0,0.0,0.0,2.7239,2.7376,2.7422,2.757,2.7765,2.8039,2.7988,2.8192,2.8659,2.9133,2.9647,3.0161,3.0423,3.0599,3.0729,3.1127,3.1328,3.141,3.2042,3.2702,3.3284,3.3167,3.3319,3.3576,3.3539,3.3697,3.3942,3.3984,3.4399,3.4928,3.4997,3.543,3.5933,3.592,3.5921,3.5872,3.5795,3.574,3.5755,3.6006,3.6317,3.6884,3.8158,3.8652,3.8867,3.8965,3.9089,3.9152,3.9058,3.8992,3.8907,3.8834,3.8939,3.9204,3.9701,3.9915,4.0079,4.0251,3.9979,3.9772,3.9766,4.0062,4.029,4.0309,4.0485,4.06,4.06,4.0581,4.06,4.0696,4.062,4.0543,4.0489,4.0489,4.0623,4.0893,4.0893,4.1008,4.1258,4.1258,4.1258,1.2653,0.0,0.0,0.0,0.0,0.0,0.0,0.0,0.0,0.0,0.0,0.0,0.0,0.0,0.0,0.0,0.0,0.0,0.0,0.0,0.0,0.0,0.0,0.0,0.0,0.0,0.0,0.0,0.0,0.0,0.0,2.6034,2.6151,2.6202,2.631,2.6593,2.7071,2.7004,2.7287,2.789,2.8276,2.8638,2.9027,2.9694,3.0051,3.0126,3.0393,3.0532,3.0597,3.113,3.1677,3.2189,3.2069,3.2261,3.2601,3.2564,3.2763,3.3096,3.3134,3.3503,3.3951,3.4016,3.462,3.535,3.533,3.5553,3.5757,3.568,3.5641,3.5622,3.5622,3.5622,3.59,3.706,3.7589,3.787,3.7948,3.8174,3.8345,3.8266,3.8241,3.8214,3.8108,3.8232,3.8458,3.8838,3.883,3.895,3.9333,3.9221,3.9176,3.9376,3.969,3.9901,3.9901,4.0062,4.0212,4.0339,4.0212,4.0251,4.0454,4.0495,4.0489,4.0489,4.0489,4.0457,4.0339,4.0457,4.0457,4.0339,4.0457,4.0489,0.0,0.0,0.0,0.0,0.0,0.0,0.0,0.0,0.0,0.0,0.0,0.0,0.0,0.0,0.0,0.0,0.0,0.0,0.0,0.0,0.0,0.0,0.0,0.0,0.0,0.0,0.0,0.0,0.0,0.0,0.0,2.4393,2.4495,2.4478,2.4495,2.5042,2.6123,2.5972,2.6483,2.7629,2.7497,2.742,2.7431,2.9046,2.9785,2.9832,3.0203,3.0383,3.038,3.0458,3.0506,3.0487,3.0417,3.0891,3.1583,3.1583,3.2045,3.2679,3.2807,3.2916,3.2993,3.3057,3.3664,3.4372,3.4372,3.4845,3.5391,3.5449,3.543,3.5411,3.5488,3.5493,3.5545,3.5661,3.6288,3.6876,3.6876,3.751,3.8042,3.7979,3.8026,3.8026,3.793,3.8055,3.8121,3.8025,3.7751,3.7699,3.8128,3.8196,3.8357,3.8801,3.9158,3.9326,3.9326,3.9448,3.9618,3.9927,3.9738,3.9731,4.0042,4.0321,4.0473,4.0473,4.0489,4.0372,4.0101,4.0339,4.0339,4.0101,4.0356,4.0473,0.0,1.5108,0.0,0.0,0.0,0.0,0.0,0.0,0.0,0.0,0.0,0.0,0.0,0.0,0.0,0.0,0.0,0.0,0.0,0.0,0.0,0.0,0.0,0.0,0.0,0.0,0.0,0.0,0.0,0.0,2.419,2.4393,2.4445,2.4266,2.4428,2.462,2.4867,2.5009,2.5256,0.0,2.642,2.6692,2.6523,2.7565,2.8154,2.8403,2.9164,2.9475,2.9539,3.0229,3.0506,3.0487,3.0417,3.0513,3.0679,3.0679,3.0794,3.0948,3.0968,3.1429,3.2018,3.2088,3.2694,3.3396,3.3396,3.3504,3.375,3.4334,3.4487,3.4641,3.5334,3.5493,3.5526,3.5545,3.5734,3.5912,3.597,3.6083,3.6191,3.623,3.622,3.6226,3.6363,3.6411,3.6615,3.7156,3.7206,3.7251,3.7335,3.7007,3.6786,3.6887,3.7158,3.7324,3.7324,3.8146,3.8682,3.8766,3.9286,3.9622,3.969,4.0022,4.0177,4.0177,4.0389,4.0372,4.0101,4.0158,4.0158,4.0101,4.0158,4.0304,0.0,0.0,0.0,0.0,0.0,0.0,0.0,0.0,0.0,0.0,0.0,0.0,0.0,0.0,0.0,0.0,0.0,0.0,0.0,0.0,0.0,0.0,0.0,0.0,0.0,0.0,0.0,0.0,0.0,2.3855,2.417,2.4303,2.4303,2.419,2.4303,2.441,2.4495,2.4591,2.4741,2.4904,2.5469,2.5697,2.5672,2.6917,2.7593,2.7738,2.8326,2.8579,2.8637,2.9486,2.9833,2.9871,3.0256,3.0398,3.0398,3.0398,3.0398,3.0398,3.0398,3.0698,3.1083,3.1114,3.1711,3.2422,3.2422,3.2692,3.3077,3.3468,3.3583,3.368,3.4141,3.4564,3.4845,3.4721,3.5017,3.5362,3.54,3.5423,3.541,3.5402,3.5584,3.5768,3.5786,3.5801,3.5918,3.6284,3.6224,3.6234,3.6507,3.6168,3.6021,3.6277,3.6445,3.6517,3.6517,3.7054,3.7455,3.7582,3.7848,3.8065,3.822,3.8384,3.9001,4.0081,4.0082,4.0004,3.9859,3.9859,3.9775,3.9622,3.9943,4.0177,0.0,0.0,0.0,0.0,0.0,0.0,0.0,0.0,0.0,0.0,0.0,0.0,0.0,0.0,0.0,0.0,0.0,0.0,0.0,0.0,0.0,0.0,0.0,0.0,0.0,0.0,0.0,0.0,0.0,2.3774,2.4094,2.417,2.419,2.419,2.419,2.4284,2.4462,2.4478,2.4575,2.4746,2.479,2.4864,2.5049,2.6435,2.7096,2.7141,2.7508,2.7678,2.7736,2.8563,2.889,2.8948,2.9698,2.9967,2.9987,3.0121,3.0179,3.0198,3.034,3.0398,3.0398,3.0398,3.0891,3.1487,3.1487,3.1948,3.2506,3.2641,3.2699,3.2718,3.2814,3.3371,3.3887,3.3751,3.4257,3.4791,3.4997,3.5073,3.5119,3.511,3.5528,3.5821,3.5724,3.5684,3.5669,3.5605,3.5312,3.5246,3.5639,3.545,3.5435,3.5817,3.5862,3.5862,3.5862,3.5991,3.6168,3.637,3.6325,3.639,3.6619,3.6619,3.7534,3.9485,3.9296,3.9142,3.9096,3.9096,3.8952,3.8697,3.9448,3.9813,0.0,0.0,0.0,0.0,0.0,0.0,0.0,0.0,0.0,0.0,0.0,0.0,0.0,0.0,0.0,0.0,0.0,0.0,0.0,0.0,0.0,0.0,0.0,0.0,0.0,0.0,0.0,0.0,2.2863,2.3414,2.3753,2.4036,2.419,2.419,2.419,2.4209,2.4247,2.4428,2.4512,2.4526,2.4716,2.4864,2.501,2.5227,2.5432,2.5638,2.6437,2.6774,2.6832,2.7698,2.8063,2.8063,2.8179,2.8236,2.8313,2.9025,2.9275,2.9371,3.014,3.0398,3.0398,3.0398,3.0475,3.0571,3.0571,3.0648,3.0891,3.166,3.1852,3.1969,3.2503,3.2726,3.2928,3.3336,3.3368,3.3561,3.4543,3.4755,3.485,3.5139,3.5474,3.5729,3.571,3.564,3.5618,3.5603,3.5312,3.5037,3.4885,3.457,3.4321,3.4146,3.4137,3.4137,3.4137,3.478,3.5183,3.522,3.5909,3.6313,3.6352,3.6352,3.6601,3.7143,3.7401,3.7378,3.7094,3.7094,3.7069,3.7038,3.8135,3.8631,0.0,0.0,0.0,0.0,0.0,0.0,0.0,0.0,0.0,0.0,0.0,0.0,0.0,0.0,0.0,0.0,0.0,0.0,0.0,0.0,0.0,0.0,0.0,0.0,0.0,0.0,0.0,0.0,2.2669,2.3346,2.3692,2.4116,2.4321,2.419,2.4321,2.4321,2.419,2.4284,2.4321,2.4321,2.4545,2.4712,2.4891,2.4962,2.5111,2.5322,2.5717,2.587,2.5947,2.6813,2.7178,2.7217,2.7717,2.7928,2.7995,2.836,2.8475,2.861,2.9444,2.9706,2.9756,3.0237,3.0398,3.0367,3.0209,3.0267,3.0444,3.0682,3.0855,3.1008,3.1121,3.1516,3.1857,3.1844,3.2091,3.2542,3.3352,3.4012,3.4579,3.5105,3.5449,3.5637,3.5637,3.563,3.5603,3.5565,3.5417,3.5223,3.4963,3.4655,3.4357,3.4068,3.3876,3.3807,3.3807,3.4119,3.4339,3.4339,3.4688,3.4908,3.4908,3.4908,3.4954,3.5058,3.6147,3.6714,3.6702,3.6552,3.6481,3.6509,3.7125,3.7446,0.0,0.0,0.0,0.0,0.0,0.0,0.0,0.0,0.0,0.0,0.0,0.0,0.0,0.0,0.0,0.0,0.0,0.0,0.0,0.0,0.0,0.0,0.0,0.0,0.0,0.0,0.0,0.0,2.2522,2.3323,2.3566,2.4155,2.441,2.4209,2.4393,2.441,2.419,2.4132,2.4132,2.419,2.4266,2.4441,2.4731,2.4891,2.5053,2.5224,2.5274,2.5303,2.5341,2.6005,2.6274,2.6332,2.6986,2.7283,2.7369,2.7599,2.768,2.7808,2.8621,2.8825,2.8879,2.9723,2.996,2.9914,2.9912,3.0047,3.0169,2.9969,3.008,3.0155,2.9908,3.0335,3.0746,3.0549,3.0962,3.1603,3.2426,3.3438,3.4367,3.4842,3.5228,3.5475,3.5475,3.5523,3.5565,3.5526,3.5493,3.5398,3.5122,3.487,3.4572,3.4242,3.3961,3.3807,3.3807,3.3807,3.3807,3.3807,3.3807,3.3807,3.3807,3.3807,3.3807,3.3807,3.5018,3.5745,3.5962,3.5763,3.5661,3.5661,3.6177,3.6354,0.0,0.0,0.0,0.0,0.0,0.0,0.0,0.0,0.0,0.0,0.0,0.0,0.0,0.0,0.0,0.0,0.0,0.0,0.0,0.0,0.0,0.0,0.0,0.0,0.0,0.0,0.0,0.0,2.238,2.3212,2.323,2.4042,2.441,2.4209,2.4393,2.441,2.419,2.3896,2.3896,2.4208,2.3896,2.4002,2.4528,2.4731,2.4896,2.5022,2.5214,2.5303,2.5303,2.5341,2.536,2.536,2.5418,2.5476,2.563,2.6456,2.6807,2.6985,2.7778,2.7929,2.7899,2.864,2.8749,2.8742,2.9485,2.9731,2.9731,2.9731,2.9731,2.9678,2.9474,2.9471,2.9613,3.0102,3.0252,3.0711,3.2265,3.3438,3.42,3.4246,3.4716,3.5141,3.5141,3.5339,3.5493,3.5493,3.5493,3.5398,3.5122,3.487,3.4572,3.4242,3.3961,3.3807,3.3807,3.3807,3.3807,3.3807,3.3807,3.3807,3.3807,3.3807,3.3807,3.3807,3.388,3.3935,3.3944,3.3935,3.3935,3.3954,3.5045,3.5373,0.0,0.0,0.0,0.0,0.0,0.0,0.0,0.0,0.0,0.0,0.0,0.0,0.0,0.0,0.0,0.0,0.0,0.0,0.0,0.0,0.0,0.0,0.0,0.0,0.0,0.0,0.0,0.0,0.0,2.3189,2.3189,2.4155,2.4545,2.4209,2.4528,2.4441,2.3878,2.3774,2.3774,2.3876,2.3774,2.3981,2.4512,2.4716,2.4864,2.501,2.5214,2.5303,2.5303,2.5303,2.5303,2.5303,2.5341,2.5409,2.5505,2.587,2.5983,2.6092,2.6935,2.7046,2.6904,2.7519,2.7883,2.811,2.8052,2.8476,2.901,2.9103,2.9208,2.9344,2.9395,2.9412,2.9405,2.9435,2.9824,3.0356,3.0944,3.2316,3.3436,3.3436,3.4196,3.4832,3.4832,3.4926,3.4981,3.4981,3.4981,3.4944,3.487,3.4572,3.4334,3.42,3.3961,3.3807,3.3807,3.3807,3.3807,3.3807,3.3807,3.3807,3.3807,3.3807,3.3807,3.3807,3.3807,3.3807,3.3807,3.3807,3.3807,3.3807,3.4223,3.4344,0.0,0.0,0.0,0.0,0.0,0.0,0.0,0.0,0.0,0.0,0.0,0.0,0.0,0.0,0.0,0.0,0.0,0.0,0.0,0.0,0.0,0.0,0.0,0.0,0.0,0.0,0.0,0.0,0.0,0.0,2.2428,2.3342,2.3864,2.3897,2.4085,2.4041,2.3714,2.3588,2.3522,2.3522,2.3414,2.3678,2.4229,2.4437,2.467,2.4937,2.513,2.5243,2.5303,2.5303,2.5303,2.5303,2.537,2.5437,2.5498,2.5582,2.5567,2.5602,2.6095,2.606,2.5873,2.6317,2.6656,2.6862,2.6645,2.7236,2.7997,2.8088,2.8396,2.8764,2.9001,2.906,2.9016,2.8845,2.9217,2.9625,2.9782,3.1186,3.2479,3.2479,3.3381,3.4116,3.4116,3.4444,3.4694,3.4694,3.4694,3.4694,3.4694,3.4401,3.42,3.42,3.3961,3.3807,3.3807,3.3807,3.3807,3.3807,3.3807,3.3807,3.3807,3.3807,3.3807,3.3807,3.3807,3.3807,3.3807,3.3807,3.3807,3.3807,3.3807,3.3807,0.0,0.0,0.0,0.0,0.0,0.0,0.0,0.0,0.0,0.0,0.0,0.0,0.0,0.0,0.0,0.0,0.0,0.0,0.0,0.0,0.0,0.0,0.0,0.0,0.0,0.0,0.0,0.0,2.0362,2.0909,2.0909,2.1602,2.2383,2.3225,2.3085,2.3213,2.3656,2.3328,2.3189,2.3165,2.2873,2.3069,2.3714,2.3928,2.4298,2.4804,2.4943,2.5099,2.5284,2.5303,2.5303,2.5303,2.539,2.5434,2.5507,2.5575,2.5601,2.5552,2.527,2.5017,2.4825,2.5057,2.5029,2.4959,2.5412,2.61,2.6729,2.6756,2.7278,2.7918,2.8298,2.8394,2.8394,2.8394,2.8394,2.8471,2.8863,3.0204,3.1304,3.1347,3.2223,3.2947,3.2947,3.3864,3.4578,3.4597,3.4597,3.4615,3.4634,3.4357,3.4152,3.4152,3.3935,3.3762,3.3762,3.3762,3.3807,3.3807,3.3807,3.3807,3.3807,3.3807,3.3807,3.3807,3.3807,3.3807,3.3807,3.3807,3.3807,3.3807,3.3807,3.3807,0.8278,0.0,0.0,0.0,0.0,0.0,0.0,0.0,0.0,0.0,0.0,0.0,0.0,0.0,0.0,0.0,0.0,0.0,0.0,0.0,0.0,0.0,0.0,0.0,0.0,0.0,0.0,0.0,2.0802,2.1193,2.1193,2.1624,2.2006,2.2346,2.2539,2.2587,2.2465,2.2716,2.2848,2.2848,2.2996,2.33,2.3714,2.4155,2.4441,2.4591,2.4771,2.4943,2.5099,2.5253,2.5322,2.539,2.5447,2.5514,2.558,2.5652,2.5515,2.5271,2.4995,2.4597,2.4155,2.3743,2.3868,2.4156,2.404,2.4528,2.5188,2.5488,2.6103,2.6877,2.7794,2.802,2.802,2.802,2.802,2.8065,2.8174,2.8569,2.9215,3.0314,3.1238,3.1771,3.1524,3.1741,3.2025,3.2262,3.2306,3.2495,3.3045,3.3015,3.2973,3.2973,3.2898,3.2996,3.3332,3.3361,3.3494,3.3762,3.3807,3.3807,3.3807,3.3807,3.3807,3.3807,3.3807,3.3807,3.3807,3.3807,3.3807,3.3807,3.3807,3.3807,0.0,0.0,0.0,0.0,0.0,0.0,0.0,1.1203,0.0,0.0,0.0,0.0,0.0,0.0,0.0,0.0,0.0,0.0,0.0,0.0,0.0,0.0,0.0,0.0,0.0,1.9064,1.948,1.948,2.0073,2.0461,2.0584,2.0688,2.0901,2.1242,2.1443,2.1488,2.1376,2.1944,2.2194,2.2073,2.2708,2.3165,2.3482,2.3806,2.4081,2.43,2.4418,2.4557,2.4742,2.5046,2.5262,2.5409,2.5434,2.549,2.5571,2.5636,2.5457,2.5129,2.4933,2.4468,2.3892,2.3267,2.3228,2.3342,2.3034,2.346,2.4079,2.4327,2.4913,2.5618,2.6406,2.6609,2.6692,2.6971,2.7009,2.7103,2.7472,2.7578,2.7893,2.9034,2.988,3.0369,3.0176,3.0435,3.0724,3.0894,3.0934,3.1111,3.1523,3.1859,3.2022,3.2022,3.2323,3.2616,3.2872,3.2787,3.2785,3.303,3.2883,3.2797,3.2797,3.3128,3.3146,3.2797,3.3458,3.3807,3.3807,3.3807,3.3807,3.3807,3.3807,3.3807,0.0,0.0,0.0,0.0,0.0,0.0,0.9746,0.9854,0.9441,0.0,0.0,0.0,0.0,0.0,0.0,0.0,0.0,0.0,0.0,0.0,0.0,0.0,0.0,0.0,1.772,1.7962,1.8165,1.8296,1.8892,1.9339,1.9582,1.9394,1.9543,2.0047,2.012,2.0212,2.0362,2.106,2.1284,2.1085,2.2031,2.2713,2.3088,2.3135,2.3466,2.3968,2.3968,2.4082,2.4307,2.4742,2.5107,2.5379,2.5383,2.5448,2.5522,2.5581,2.5393,2.5074,2.4909,2.4467,2.3853,2.3315,2.2923,2.2625,2.236,2.2767,2.3291,2.3376,2.3795,2.4295,2.4646,2.4693,2.4809,2.5499,2.5645,2.5857,2.67,2.6877,2.702,2.7507,2.8294,2.8888,2.8906,2.9443,2.9907,3.0013,3.0013,3.0048,3.0137,3.0737,3.1111,3.1111,3.1714,3.2119,3.2153,3.1885,3.1768,3.1827,3.1465,3.1309,3.1334,3.203,3.2085,3.1403,3.2797,3.3532,3.3532,3.3715,3.3807,3.3807,3.3807,3.3807,-0.1238,-0.1299,-0.0722,-0.0171,0.0,0.0,0.5962,0.6986,0.7851,0.0,0.0,0.0,0.0,0.0,0.0,0.0,0.0,0.0,0.0,0.0,0.0,0.0,0.0,0.0,1.7142,1.7482,1.8021,1.8955,1.9328,1.9536,1.9601,1.9394,1.9287,1.9235,1.9591,1.9706,1.9542,2.0062,2.0281,2.0247,2.0941,2.1622,2.2331,2.2813,2.3299,2.3759,2.3759,2.3868,2.4082,2.4323,2.4745,2.5254,2.5364,2.5464,2.5588,2.5608,2.5396,2.5054,2.4706,2.4165,2.3512,2.2968,2.2616,2.236,2.231,2.2412,2.2649,2.3224,2.3217,2.3266,2.4271,2.405,2.3756,2.4753,2.474,2.4721,2.5419,2.557,2.5607,2.5733,2.6673,2.7526,2.7648,2.742,2.7485,2.8169,2.8288,2.851,2.9178,2.9383,2.9486,2.9486,2.9605,2.9815,3.0141,3.0117,3.024,3.0599,3.0576,3.0661,3.0994,3.1157,3.1291,3.1403,3.1696,3.1861,3.1861,3.3164,3.3807,3.3807,3.3807,3.3807,-0.366,-0.4265,-0.4501,-0.4091,0.0,0.0,0.0,0.5137,0.6443,0.8313,0.0,0.0,0.0,0.0,0.0,0.0,0.0,0.0,0.0,0.0,0.0,0.0,0.0,0.0,1.6265,1.6551,1.7301,1.8793,1.9335,1.9636,1.9695,1.9452,1.9148,1.8807,1.9032,1.895,1.8562,1.9151,1.9525,1.9651,2.0499,2.1185,2.1721,2.2257,2.2632,2.2879,2.3099,2.3264,2.3374,2.3933,2.4432,2.4878,2.5213,2.5422,2.5543,2.5543,2.5333,2.5024,2.4785,2.4284,2.3656,2.3112,2.2755,2.25,2.25,2.2517,2.262,2.2963,2.2635,2.232,2.3061,2.2763,2.2402,2.3075,2.338,2.3608,2.4193,2.4579,2.4855,2.5144,2.5501,2.5851,2.618,2.6232,2.6382,2.6833,2.7111,2.7402,2.7791,2.8163,2.8399,2.8399,2.8755,2.9066,2.9264,2.911,2.9099,2.9323,2.9218,2.9183,2.94,2.9804,3.0368,3.1154,3.0924,3.0999,3.1384,3.221,3.2816,3.322,3.3605,3.3807,0.0,0.0,0.0,0.0,0.0,-0.0809,0.0,0.0,0.0,0.707,0.0,0.0,0.0,0.0,0.0,0.0,0.0,0.0,0.0,0.0,0.0,0.0,0.0,0.0,0.0,1.5627,1.6558,1.824,1.8713,1.912,1.9533,1.9249,1.8917,1.8604,1.8585,1.8351,1.7811,1.8386,1.879,1.9021,1.9934,2.0557,2.0956,2.1395,2.1635,2.1743,2.2258,2.2487,2.2546,2.3497,2.4116,2.4525,2.506,2.5366,2.5524,2.5524,2.5333,2.5057,2.4943,2.4522,2.3969,2.3468,2.3069,2.2797,2.2797,2.2815,2.2849,2.2721,2.2214,2.1757,2.1989,2.1587,2.1214,2.1652,2.2049,2.243,2.2946,2.3619,2.4203,2.4642,2.4458,2.4471,2.5105,2.5577,2.5888,2.5961,2.6332,2.659,2.659,2.7077,2.7448,2.7448,2.8127,2.8535,2.8535,2.8254,2.8077,2.8077,2.7818,2.7707,2.7783,2.8481,2.934,3.0304,3.0017,3.0167,3.0833,3.1047,3.1586,3.2394,3.2983,3.3368,0.0,0.0,0.0,0.0,-0.5017,0.0,0.0,0.0,0.3609,0.4417,0.0,0.0,0.0,0.0,0.0,0.0,0.0,0.0,0.0,0.0,0.0,0.0,0.0,0.0,0.0,1.508,1.6269,1.7375,1.6865,1.7127,1.8569,1.8387,1.8356,1.8586,1.8585,1.8351,1.7811,1.7873,1.7929,1.7974,1.8331,1.8899,1.9629,1.9926,2.0287,2.0703,2.142,2.1732,2.1816,2.3052,2.3896,2.4463,2.4941,2.531,2.5582,2.5582,2.5502,2.5301,2.5015,2.4617,2.4188,2.3785,2.3414,2.3141,2.3141,2.3141,2.3093,2.2797,2.2371,2.2091,2.2219,2.1326,2.0677,2.1726,2.1424,2.1096,2.1744,2.243,2.2896,2.2979,2.339,2.3991,2.5028,2.5259,2.5449,2.5924,2.6049,2.6085,2.6085,2.6151,2.6201,2.6201,2.6654,2.6962,2.6962,2.6928,2.6877,2.6877,2.6859,2.7004,2.7348,2.7795,2.8103,2.8248,2.847,2.8652,2.8742,2.9807,3.0742,3.1531,3.1337,3.1756,0.0,0.0,0.0,0.0,0.0,0.0,-0.0887,0.0,0.1916,0.0,0.0,0.0,0.0,0.0,0.0,0.0,0.0,0.0,0.0,0.0,0.0,0.0,0.0,0.0,0.0,0.0,0.0,0.0,1.5753,1.6364,1.697,1.7699,1.8048,1.7914,1.8355,1.8351,1.7811,1.7811,1.7883,1.8018,1.8146,1.8464,1.8961,1.9339,1.9621,1.9854,2.0426,2.0951,2.143,2.2334,2.3187,2.4006,2.4658,2.5176,2.5556,2.5586,2.5515,2.5366,2.5148,2.4917,2.4639,2.4189,2.3951,2.3856,2.3856,2.3755,2.3627,2.3502,2.2975,2.2415,2.2248,2.1458,2.0761,2.0944,2.0839,2.0797,2.1066,2.165,2.2218,2.2607,2.2877,2.333,2.4122,2.4552,2.4816,2.5028,2.5335,2.554,2.554,2.554,2.554,2.554,2.5997,2.6297,2.6297,2.6556,2.6691,2.6691,2.6691,2.6791,2.6922,2.7317,2.753,2.753,2.7908,2.821,2.8394,2.8916,2.9312,2.9682,3.0505,3.1018,-1.025,0.0,0.0,0.0,0.0,0.0,0.0,0.0,0.0,0.0,0.0,0.0,0.0,0.0,0.0,0.0,0.0,0.0,0.0,0.0,0.0,0.0,0.0,0.0,0.0,0.0,0.0,0.0,0.0,1.48,1.5302,1.6382,1.7039,1.7202,1.7854,1.8061,1.7811,1.7811,1.7905,1.8082,1.8082,1.8187,1.8388,1.872,1.8891,1.892,1.9457,2.0077,2.0747,2.1715,2.2611,2.3469,2.4393,2.4985,2.5336,2.5523,2.5519,2.5382,2.5255,2.5102,2.4898,2.4554,2.4441,2.4441,2.4441,2.4346,2.4191,2.4044,2.3484,2.282,2.2398,2.1652,2.0926,2.0583,2.0467,2.0438,2.0438,2.0961,2.1575,2.2054,2.2278,2.2607,2.3236,2.3926,2.4389,2.4389,2.4736,2.4973,2.4973,2.4973,2.4973,2.4973,2.5449,2.5852,2.5977,2.6297,2.6505,2.6505,2.635,2.628,2.628,2.6707,2.6937,2.6937,2.747,2.7908,2.8264,2.8368,2.835,2.8281,2.9493,2.9951,0.0,0.0,0.0,-0.6132,0.0,0.0,0.0,0.0,-0.2712,0.0,0.0,0.0,0.0,0.0,0.0,0.0,0.0,0.0,0.0,0.0,0.0,0.0,0.0,0.0,0.0,0.0,0.0,0.0,0.0,0.0,1.3752,1.4042,1.4937,1.6669,1.7006,1.7363,1.7811,1.7811,1.7811,1.7811,1.7811,1.7811,1.7833,1.7828,1.7845,1.7879,1.8623,1.9092,1.9507,2.1348,2.2404,2.2942,2.4136,2.469,2.4891,2.5408,2.5524,2.539,2.5255,2.5022,2.4804,2.479,2.4771,2.4771,2.4771,2.479,2.4663,2.4155,2.3737,2.3343,2.2838,2.184,2.0991,2.0991,2.0326,1.972,1.972,2.0258,2.0752,2.0782,2.1291,2.1934,2.2634,2.3677,2.4389,2.4389,2.443,2.443,2.443,2.443,2.443,2.443,2.491,2.5465,2.5977,2.6013,2.5997,2.5997,2.554,2.5259,2.5259,2.5762,2.6033,2.6033,2.6872,2.7517,2.7926,2.8237,2.8237,2.7926,2.7979,2.8141,0.0,0.0,-1.0795,-0.8442,0.0,0.0,0.0,0.0,0.0,0.0,0.0,0.0,0.0,0.0,0.0,0.0,0.0,0.0,0.0,0.0,0.0,0.0,0.0,0.0,0.0,0.0,0.0,0.0,1.0467,0.0,0.0,1.2895,1.399,1.4502,1.6026,1.6908,1.7067,1.7557,1.7811,1.7811,1.7811,1.7811,1.7811,1.7811,1.7811,1.7805,1.8065,1.8597,1.9369,2.022,2.1386,2.2679,2.3436,2.4161,2.4845,2.5201,2.5269,2.5199,2.5311,2.531,2.5271,2.5271,2.5233,2.5214,2.5214,2.5068,2.4872,2.4613,2.419,2.3715,2.3177,2.238,2.1681,2.1444,2.0959,2.0481,2.0158,2.0273,2.0487,2.0655,2.0902,2.1323,2.2254,2.2519,2.2894,2.3743,2.3879,2.3879,2.3879,2.3879,2.3879,2.3879,2.4348,2.4736,2.495,2.5259,2.5449,2.5449,2.5297,2.5221,2.5221,2.5373,2.5652,2.5997,2.6298,2.679,2.75,2.7601,2.7601,2.75,2.75,2.7247,-1.2282,-1.2089,0.0,-0.9845,-0.9018,0.0,-0.7406,0.0,0.0,0.0,0.0,0.0,0.0,0.0,0.0,0.0,0.0,0.0,0.0,0.0,0.0,0.0,0.0,0.0,0.0,0.0,0.9431,0.9304,0.0,0.0,0.0,0.0,1.2765,1.3143,1.486,1.6082,1.6699,1.7168,1.754,1.7811,1.7811,1.7811,1.7811,1.7811,1.7811,1.7811,1.7811,1.8288,1.9084,1.9591,2.0598,2.1879,2.2828,2.3633,2.435,2.4934,2.5176,2.5229,2.5369,2.5428,2.5457,2.549,2.5476,2.5421,2.5418,2.5271,2.5096,2.4917,2.4511,2.4008,2.3584,2.2803,2.204,2.1845,2.1383,2.0926,2.0616,2.055,2.059,2.0757,2.0829,2.1101,2.204,2.1848,2.2015,2.3292,2.3378,2.3355,2.3565,2.3595,2.3595,2.3595,2.3921,2.4184,2.4389,2.4712,2.491,2.491,2.4752,2.4617,2.4617,2.4989,2.5373,2.5689,2.6068,2.6674,2.75,2.7348,2.7378,2.75,2.7365,2.6723]},{"header":{"parameterUnit":"m.s-1","parameterCategory":1,"la1":30.6,"la2":29.2853,"lo1":-89.7004,"lo2":-87.6739,"dy":0.0162,"dx":0.0183,"nx":112,"ny":82,"refTime":"2024-08-20T18:00:00:Z","depth":0,"parameterNumber":3,"parameterNumberName":"V-component_of_WINDS"},"data":[0.0,0.0,0.0,0.0,0.0,0.0,0.0,0.0,0.0,0.0,0.0,0.0,0.0,0.0,0.0,0.0,0.0,0.0,0.0,0.0,0.0,0.0,0.0,0.0,0.0,0.0,0.0,0.0,0.0,0.0,0.0,0.0,0.0,0.0,0.0,0.0,0.0,0.0,0.0,0.0,0.0,0.0,0.0,0.0,0.0,0.0,0.0,0.0,0.0,0.0,0.0,0.0,0.0,0.0,0.0,0.0,0.0,0.0,0.0,0.0,0.0,0.0,0.0,0.0,0.0,0.0,0.0,0.0,0.0,0.0,0.0,0.0,0.0,0.0,0.0,0.0,0.0,0.0,0.0,0.0,0.0,0.0,0.0,0.0,0.0,0.0,0.0,0.0,0.0,0.0,0.0,0.7078,0.7055,0.6967,0.6715,0.7335,0.7319,0.6264,0.0,0.0,0.0,0.0,0.0,0.0,0.0,0.0,0.0,0.0,0.0,0.0,0.0,0.0,0.0,0.0,0.0,0.0,0.0,0.0,0.0,0.0,0.0,0.0,0.0,0.0,0.0,0.0,0.0,0.0,0.0,0.0,0.0,0.0,0.0,0.0,0.0,0.0,0.0,0.0,0.0,0.0,0.0,0.0,0.0,0.0,0.0,0.0,0.0,0.0,0.0,0.0,0.0,0.0,0.0,0.0,0.0,0.0,0.0,0.0,0.0,0.0,0.0,0.0,0.0,0.0,0.0,0.0,0.0,0.0,0.0,0.0,0.0,0.0,0.0,0.0,0.0,0.0,0.0,0.0,0.0,0.0,0.0,0.0,0.0,0.0,0.0,0.0,0.0,0.0,0.0,0.0,0.0,0.0,0.0,0.0,0.0,0.0,0.0,0.0,0.0,0.0,0.0,0.0,0.6555,0.6831,0.6861,0.6871,0.6712,0.6607,0.6687,0.6944,0.0,0.0,0.0,0.0,0.0,0.0,0.0,0.0,0.0,0.0,0.0,0.0,0.0,0.0,0.0,0.0,0.0,0.0,0.0,0.0,0.0,0.0,0.0,0.0,0.0,0.0,0.0,0.0,0.0,0.0,0.0,0.0,0.0,0.0,0.0,0.0,0.0,0.0,0.0,0.0,0.0,0.0,0.0,0.0,0.0,0.0,0.0,0.0,0.0,0.0,0.0,0.0,0.0,0.0,0.0,0.0,0.0,0.0,0.0,0.0,0.0,0.0,0.0,0.0,0.0,0.0,0.0,0.0,0.0,0.0,0.0,0.0,0.0,0.0,0.0,0.0,0.0,0.0,0.0,0.0,0.0,0.0,0.0,0.0,0.0,0.0,0.0,0.0,0.0,0.0,0.0,0.0,0.0,0.0,0.0,0.0,0.0,0.0,0.0,0.0,0.0,0.0,0.0,0.6402,0.6623,0.6753,0.696,0.7118,0.7454,0.7209,0.709,0.7322,0.7003,0.0,0.0,0.0,0.0,0.0,0.0,0.0,0.0,0.0,0.0,0.0,0.0,0.0,0.0,0.0,0.0,0.0,0.0,0.0,0.0,0.0,0.0,0.0,0.0,0.0,0.0,0.0,0.0,0.0,0.0,0.0,0.0,0.0,0.0,0.0,0.0,0.0,0.0,0.0,0.0,0.0,0.0,0.0,0.0,0.0,0.0,0.0,0.0,0.0,0.0,0.0,0.0,0.0,0.0,0.0,0.0,0.0,0.0,0.0,0.0,0.0,0.0,0.0,0.0,0.0,0.0,0.0,0.0,0.0,0.0,0.0,0.0,0.0,0.0,0.0,0.0,0.0,0.0,0.0,0.0,0.0,0.0,0.0,0.0,0.0,0.0,0.0,0.0,0.0,0.0,0.0,0.0,0.0,0.0,0.0,0.0,0.0,0.0,0.0,0.0,0.0,0.0,0.6218,0.6853,0.7137,0.7279,0.7748,0.8518,0.8018,0.7708,0.7675,0.6826,0.0,0.0,0.0,0.0,0.0,0.0,0.0,0.0,0.0,0.0,0.0,0.0,0.0,0.0,0.0,0.0,0.0,0.0,0.0,0.0,0.0,0.0,0.0,0.0,0.0,0.0,0.0,0.0,0.0,0.0,0.0,0.0,0.0,0.0,0.0,0.0,0.0,0.0,0.0,0.0,0.0,0.0,0.0,0.0,0.0,0.0,0.0,0.0,0.0,0.0,0.0,0.0,0.0,0.0,0.0,0.0,0.0,0.0,0.0,0.0,0.0,0.0,0.0,0.0,0.0,0.0,0.0,0.0,0.0,0.0,0.0,0.0,0.0,0.0,0.0,0.0,0.0,0.0,0.0,0.0,0.0,0.0,0.0,0.0,0.0,0.0,0.0,0.0,0.0,0.0,0.0,0.0,0.0,0.0,0.0,0.0,0.0,0.0,0.0,0.0,0.0,0.0,0.5281,0.7074,0.8204,0.8338,0.8711,0.9715,0.8675,0.7992,0.8147,0.642,0.0,0.0,0.0,0.0,0.0,0.0,0.0,0.0,0.0,0.0,0.0,0.0,0.0,0.0,0.0,0.0,0.0,0.0,0.0,0.0,0.0,0.0,0.0,0.0,0.0,0.0,0.0,0.0,0.0,0.0,0.0,0.0,0.0,0.0,0.0,0.0,0.0,0.0,0.0,0.0,0.0,0.0,0.0,0.0,0.0,0.0,0.0,0.0,0.0,0.0,0.0,0.0,0.0,0.0,0.0,0.0,0.0,0.0,0.0,0.0,0.0,0.0,0.0,0.0,0.0,0.0,0.0,0.0,0.0,0.0,0.0,0.0,0.0,0.0,0.0,0.0,0.0,0.0,0.0,0.0,0.0,0.0,0.0,0.0,0.0,0.0,0.0,0.0,0.0,0.0,0.0,0.0,0.0,0.0,0.0,0.0,0.0,0.0,0.0,0.0,0.0,0.0,0.5067,0.6884,0.0,0.8237,0.8928,1.0469,0.9764,0.9248,0.916,0.0,0.0,0.0,0.0,0.0,0.0,0.0,0.0,0.0,0.0,0.0,0.0,0.0,0.0,0.0,0.0,0.0,0.0,0.0,0.0,0.0,0.0,0.0,0.0,0.0,0.0,0.0,0.0,0.0,0.0,0.0,0.0,0.0,0.0,0.0,0.0,0.0,0.0,0.0,0.0,0.0,0.0,0.0,0.0,0.0,0.0,0.0,0.0,0.0,0.0,0.0,0.0,0.0,0.0,0.0,0.0,0.0,0.0,0.0,0.0,0.0,0.0,0.0,0.0,0.0,0.0,0.0,0.0,0.0,0.0,0.0,0.0,0.0,0.0,0.0,0.0,0.0,0.0,0.0,0.0,0.0,0.0,0.0,0.0,0.0,0.0,0.0,0.0,0.0,0.0,0.0,0.0,0.0,0.0,0.0,0.0,0.0,0.0,0.0,0.0,0.0,0.0,0.2811,0.5547,0.7578,0.0,0.888,0.9776,1.1426,1.0695,0.9943,0.9562,0.0,0.0,0.0,0.0,0.0,0.0,0.0,0.0,0.0,0.0,0.0,0.0,0.0,0.0,0.0,0.0,0.0,0.0,0.0,0.0,0.0,0.0,0.0,0.0,0.0,0.0,0.0,0.0,0.0,0.0,0.0,0.0,0.0,0.0,0.0,0.0,0.0,0.0,0.0,0.0,0.0,0.0,0.0,0.0,0.0,0.0,0.0,0.0,0.0,0.0,0.0,0.0,0.0,0.0,0.0,0.0,0.0,0.0,0.0,0.0,0.0,0.0,0.0,0.0,0.0,0.0,0.0,0.0,0.0,0.0,0.0,0.0,0.0,0.0,0.0,0.0,0.0,0.0,0.0,0.0,0.0,0.0,0.0,0.0,0.0,0.0,0.0,0.0,0.0,0.0,0.0,0.0,0.0,0.0,0.0,0.0,0.0,0.0,0.0,0.0,0.0,0.0,0.2827,0.6696,0.9396,0.9662,1.0478,1.1486,1.2662,1.1136,0.9873,0.0,0.0,0.0,0.0,0.0,0.0,0.0,0.0,0.0,0.0,0.0,0.0,0.0,0.0,0.0,0.0,0.0,0.0,0.0,0.0,0.0,0.0,0.0,0.0,0.0,0.0,0.0,0.0,0.0,0.0,0.0,0.0,0.0,0.0,0.0,0.0,0.0,0.0,0.0,0.0,0.0,0.0,0.0,0.0,0.0,0.0,0.0,0.0,0.0,0.0,0.0,0.0,0.0,0.0,0.0,0.0,0.0,0.0,0.0,0.0,0.0,0.0,0.0,0.0,0.0,0.0,0.0,0.0,0.0,0.0,0.0,0.0,0.0,0.0,0.0,0.0,0.0,0.0,0.0,0.0,0.0,0.0,0.0,0.0,0.0,0.0,0.0,0.0,0.0,0.0,0.0,0.0,0.0,0.0,0.0,0.0,0.0,0.0,0.0,0.0,0.0,0.0,0.0,0.2819,0.6734,0.9327,0.9438,1.0296,1.1283,1.2357,1.139,1.0394,0.9599,0.0,0.0,0.0,0.0,0.0,0.0,0.0,0.0,0.0,0.0,0.0,0.0,0.0,0.0,0.0,0.0,0.0,0.0,0.0,0.0,0.0,0.0,0.0,0.0,0.0,0.0,0.0,0.0,0.0,0.0,0.0,0.0,0.0,0.0,0.0,0.0,0.0,0.0,0.0,0.0,0.0,0.0,0.0,0.0,0.0,0.0,0.0,0.0,0.0,0.0,0.0,0.0,0.0,0.0,0.0,0.0,0.0,0.0,0.0,0.0,0.0,0.0,0.0,0.0,0.0,0.0,0.0,0.0,0.0,0.0,0.0,0.0,0.0,0.0,0.0,0.0,0.0,0.0,0.0,0.0,0.0,0.0,0.0,0.0,0.0,0.0,0.0,0.0,0.0,0.0,0.0,0.0,0.0,0.0,0.0,0.0,0.0,0.0,0.0,0.0,0.0,0.0,0.2815,0.6739,0.928,0.9336,1.0571,1.162,1.2224,1.1496,1.0487,0.9317,0.0,0.0,0.0,0.0,0.0,0.0,0.0,0.0,0.0,0.0,0.0,0.0,0.0,0.0,0.0,0.0,0.0,0.0,0.0,0.0,0.0,0.0,0.0,0.0,0.0,0.0,0.0,0.0,0.0,0.0,0.0,0.0,0.0,0.0,0.0,0.0,0.0,0.0,0.0,0.0,0.0,0.0,0.0,0.0,0.0,0.0,0.0,0.0,0.0,0.0,0.0,0.0,0.0,0.0,0.0,0.0,0.0,0.0,0.0,0.0,0.0,0.0,0.0,0.0,0.0,0.0,0.0,0.0,0.0,0.0,0.0,0.0,0.0,0.0,0.0,0.0,0.0,0.0,0.0,0.0,0.0,0.0,0.0,0.0,0.0,0.0,0.0,0.0,0.0,0.0,0.0,0.0,0.0,0.0,0.0,0.0,0.0,0.0,0.0,0.0,0.0,0.0,0.2877,0.6776,0.9376,0.9331,1.1099,1.2305,1.2305,1.1496,1.0379,0.8848,0.0,0.0,0.0,0.0,0.0,0.0,0.0,0.0,0.0,0.0,0.0,0.0,0.0,0.0,0.0,0.0,0.0,0.0,0.0,0.0,0.0,0.0,0.0,0.0,0.0,0.0,0.0,0.0,0.0,0.0,0.0,0.0,0.0,0.0,0.0,0.0,0.0,0.0,0.0,0.0,0.0,0.0,0.0,0.0,0.0,0.0,0.0,0.0,0.0,0.0,0.0,0.0,0.0,0.0,0.0,0.0,0.0,0.0,0.0,0.0,0.3351,0.0,0.0,0.0,0.0,0.0,0.0,0.0,0.0,0.0,0.0,0.0,0.0,0.0,0.0,0.0,0.0,0.0,0.0,0.0,0.0,0.0,0.0,0.0,0.0,0.0,0.0,0.0,0.0,0.0,0.0,0.0,0.0,0.0,0.0,0.0,0.0,0.0,0.0,0.0,0.0,0.0,0.3186,0.7038,0.9735,0.9331,1.1099,1.2305,1.2305,1.1496,1.075,1.0207,0.8004,0.0,0.0,0.0,0.0,0.0,0.0,0.0,0.0,0.0,0.0,0.0,0.0,0.0,0.0,0.0,0.0,0.0,0.0,0.0,0.0,0.0,0.0,0.0,0.0,0.0,0.0,0.0,0.0,0.0,0.0,0.0,0.0,0.0,0.0,0.0,0.0,0.0,0.0,0.0,0.0,0.0,0.0,0.0,0.0,0.0,0.0,0.0,0.0,0.0,0.0,0.0,0.0,0.0,0.0,0.0,0.0,0.0,0.0,0.0,0.0,0.3966,0.0,0.0,0.0,0.0,0.0,0.0,0.0,0.0,0.0,0.0,0.0,0.0,0.0,0.0,0.0,0.0,0.0,0.0,0.0,0.0,0.0,0.0,0.0,0.0,0.0,0.0,0.0,0.0,0.0,0.0,0.0,0.0,0.0,0.0,0.0,0.0,0.0,0.0,0.0,0.0,0.4519,0.7749,0.9947,0.9346,1.1099,1.2305,1.2305,1.1757,1.0953,0.9735,0.8097,0.0,0.0,0.0,0.0,0.0,0.0,0.0,0.0,0.0,0.0,0.0,0.0,0.0,0.0,0.0,0.0,0.0,0.0,0.0,0.0,0.0,0.0,0.0,0.0,0.0,0.0,0.0,0.0,0.0,0.0,0.0,0.0,0.0,0.0,0.0,0.0,0.0,0.0,0.0,0.0,0.0,0.0,0.0,0.0,0.0,0.0,0.0,0.0,0.0,0.0,0.0,0.0,0.0,0.4012,0.537,0.5289,0.5335,0.5413,0.5532,0.503,0.4887,0.4852,0.4485,0.0,0.0,0.0,0.0,0.0,0.0,0.0,0.0,0.0,0.0,0.0,0.0,0.0,0.0,0.0,0.0,0.0,0.0,0.0,0.0,0.0,0.0,0.0,0.0,0.5844,0.5593,0.0,0.0,0.0,0.0,0.0,0.0,0.0,0.0,0.0,0.0,0.0,0.0,0.6375,0.8597,0.9928,0.9578,1.1174,1.2305,1.2305,1.2037,1.1071,0.9203,0.8264,0.6812,0.0,0.0,0.0,0.0,0.0,0.0,0.0,0.0,0.0,0.0,0.0,0.0,0.0,0.0,0.0,0.0,0.0,0.0,0.0,0.0,0.0,0.0,0.0,0.0,0.0,0.0,0.0,0.0,0.0,0.0,0.0,0.0,0.2388,0.3241,0.0,0.0,0.0,0.0,0.0,0.0,0.0,0.0,0.0,0.0,0.0,0.0,0.0,0.3605,0.5424,0.3934,0.3939,0.5507,0.6106,0.6338,0.6115,0.6112,0.6123,0.6189,0.6247,0.0,0.5281,0.4962,0.0,0.0,0.0,0.0,0.0,0.0,0.0,0.0,0.0,0.0,0.0,0.0,0.0,0.0,0.0,0.0,0.0,0.0,0.0,0.0,0.0,0.0,0.5163,0.3804,0.4879,0.6075,0.0,0.502,0.4675,0.4809,0.4048,0.0,0.0,0.0,0.0,0.0,0.0,0.0,0.8392,0.9109,0.9569,1.0536,1.162,1.2305,1.2305,1.2037,1.1653,1.1041,0.9188,0.7825,0.709,0.5155,0.0,0.0,0.0,0.0,0.0,0.0,0.0,0.0,0.0,0.0,0.0,0.0,0.0,0.0,0.0,0.0,0.0,0.0,0.0,0.0,0.0,0.0,0.0,0.0,0.0,0.0,0.0,0.0,0.0,0.3368,0.3719,0.381,0.3816,0.3551,0.0,0.0,0.0,0.0,0.0,0.0,0.0,0.0,0.0,0.357,0.3412,0.4382,0.6474,0.5773,0.5825,0.6773,0.6752,0.6687,0.6599,0.6512,0.6546,0.6528,0.6603,0.6417,0.6084,0.5701,0.5369,0.5067,0.0,0.0,0.0,0.0,0.382,0.3389,0.3045,0.3124,0.0,0.0727,0.0,0.0,0.0,0.0,0.0,0.0,0.0,0.0,0.0,0.0,0.6515,0.5415,0.5873,0.6548,0.6244,0.5939,0.5573,0.0,0.4907,0.4587,0.4164,0.0,0.0,0.0,0.0,0.0,0.8558,0.9275,0.9829,1.0924,1.1935,1.2485,1.2318,1.2184,1.1768,1.098,0.9896,0.8662,0.7191,0.5982,0.4892,0.0,0.0,0.0,0.0,0.0,0.0,0.0,0.0,0.0,0.0,0.0,0.0,0.0,0.0,0.0,0.0,0.0,0.0,0.0,0.0,0.0,0.0,0.0,0.0,0.0,0.0,0.0,0.0,0.4578,0.465,0.4311,0.4321,0.4292,0.0,0.0,0.0,0.0,0.0,0.0,0.3903,0.3895,0.4691,0.6364,0.5043,0.5118,0.6727,0.6722,0.688,0.7055,0.6934,0.6912,0.6912,0.6817,0.6814,0.6814,0.6814,0.6814,0.6776,0.6329,0.5993,0.5735,0.5467,0.527,0.5098,0.5117,0.4648,0.4016,0.398,0.4054,0.3772,0.2202,0.0,0.0,0.0,0.0,0.0,0.0,0.0,0.2499,0.5418,0.6642,0.7107,0.7346,0.7323,0.7253,0.7116,0.7126,0.6756,0.0,0.5566,0.543,0.4699,0.0,0.0,0.0,0.0,0.5323,0.8986,0.9658,1.0258,1.1606,1.2325,1.2735,1.2438,1.2345,1.1879,1.1019,1.0389,0.928,0.7338,0.6625,0.5667,0.4426,0.0,0.0,0.0,0.0,0.0,0.0,0.0,0.0,0.0,0.0,0.0,0.0,0.0,0.0,0.0,0.0,0.0,0.0,0.0,0.0,0.0,0.0,0.0,0.0,0.0,0.0,0.0,0.0,0.0,0.4508,0.4622,0.0,0.0,0.0,0.0,0.5208,0.5513,0.5778,0.6111,0.6144,0.6296,0.6631,0.6454,0.6522,0.6781,0.6837,0.6909,0.6909,0.7051,0.7119,0.7119,0.7119,0.7115,0.7115,0.7115,0.7115,0.7085,0.6634,0.6363,0.621,0.6047,0.5891,0.5776,0.5868,0.594,0.5909,0.6335,0.652,0.6478,0.6388,0.3484,0.0,0.0,0.0,0.0,0.0,0.6721,0.6318,0.4259,0.526,0.7202,0.8708,0.8822,0.8543,0.8357,0.8455,0.8126,0.0,0.6071,0.5776,0.5732,0.0,0.4748,0.3977,0.5301,0.7576,1.0673,1.0397,1.0734,1.2863,1.2919,1.2815,1.2802,1.2465,1.2178,1.1813,1.074,0.9565,0.8348,0.7081,0.591,0.4887,0.4388,0.0,0.0,0.0,0.0,0.0,0.0,0.0,0.0,0.0,0.0,0.0,0.0,0.0,0.0,0.0,0.0,0.0,0.0,0.0,0.0,0.0,0.0,0.0,0.0,0.0,0.0,0.0,0.0,0.492,0.5114,0.0,0.5178,0.5283,0.5384,0.5617,0.5821,0.6099,0.6384,0.6402,0.6569,0.6857,0.6773,0.6837,0.699,0.7041,0.7065,0.7065,0.7115,0.7139,0.7139,0.7139,0.7492,0.8277,0.8277,0.8711,0.9383,0.9172,0.8146,0.6675,0.6522,0.6427,0.6386,0.6447,0.6421,0.6468,0.6637,0.6675,0.6723,0.673,0.5785,0.4265,0.2782,0.2346,0.265,0.4365,0.5939,0.6867,0.6031,0.7218,0.8648,0.8888,0.9519,0.9876,0.9795,0.9843,0.951,0.8276,0.7104,0.6318,0.6129,0.6095,0.594,0.5481,0.708,0.8834,1.0442,1.104,1.1904,1.3319,1.322,1.2966,1.2842,1.2472,1.2178,1.1891,1.1305,1.0182,0.8498,0.7663,0.648,0.4921,0.4568,0.4094,0.0,0.0,0.0,0.0,0.0,0.0,0.0,0.0,0.0,0.0,0.0,0.0,0.0,0.0,0.0,0.0,0.0,0.0,0.0,0.0,0.0,0.0,0.0,0.0,0.0,0.0,0.5276,0.525,0.5555,0.5698,0.5596,0.5769,0.5928,0.602,0.6169,0.6366,0.6614,0.6627,0.6742,0.6993,0.7,0.7044,0.7139,0.7139,0.7166,0.7217,0.7656,0.786,0.7911,0.8356,0.8978,0.978,0.978,1.0219,1.0921,1.0921,0.9962,0.8345,0.7688,0.7183,0.6848,0.6848,0.6848,0.6848,0.6848,0.6848,0.6851,0.6861,0.6967,0.681,0.5235,0.4803,0.482,0.48,0.5886,0.7152,0.758,0.848,0.9441,0.9932,1.0611,1.1209,1.1209,1.1209,1.0869,0.9666,0.8296,0.7206,0.6599,0.661,0.6704,0.7046,0.8193,0.9534,1.0847,1.1741,1.2594,1.3622,1.3527,1.3233,1.2926,1.2532,1.2218,1.2031,1.155,1.051,0.8907,0.8366,0.7333,0.5699,0.5121,0.4505,0.3802,0.0,0.0,0.0,0.0,0.0,0.0,0.0,0.0,0.0,0.0,0.0,0.0,0.0,0.0,0.0,0.0,0.0,0.0,0.0,0.0,0.0,0.0,0.0,0.4131,0.4733,0.527,0.5572,0.5871,0.6051,0.6047,0.6393,0.6565,0.6645,0.6709,0.686,0.7011,0.7025,0.709,0.7228,0.7149,0.7153,0.7153,0.7153,0.7231,0.738,0.8725,0.9353,0.952,1.09,1.1548,1.1548,1.1548,1.1548,1.1639,1.1639,1.1548,1.141,0.9655,0.8197,0.7146,0.7143,0.7139,0.7139,0.7139,0.7139,0.7139,0.7139,0.7156,0.7084,0.7084,0.7091,0.7098,0.7177,0.7173,0.7432,0.8636,0.8978,0.9579,1.1809,1.2328,1.2328,1.2328,1.2328,1.1986,1.0869,0.9672,0.845,0.719,0.681,0.7174,0.8505,0.87,0.0,1.1952,1.2328,1.2766,1.3997,1.3821,1.3527,1.3233,1.2665,1.2305,1.2278,1.1476,1.0599,0.9716,0.9081,0.8199,0.7076,0.6027,0.5043,0.421,0.0,0.0,0.0,0.0,0.0,0.0,0.0,0.0,0.0,0.0,0.0,0.0,0.0,0.0,0.0,0.0,0.0,0.0,0.0,0.0,0.0,0.0,0.383,0.5186,0.5557,0.5854,0.6054,0.6335,0.683,0.7701,0.7988,0.845,0.9271,0.9461,0.9519,0.9574,0.9805,1.0,0.9962,0.9207,0.8822,0.8822,0.7923,0.7495,0.7536,0.881,0.9473,0.952,1.09,1.1914,1.2751,1.2751,1.3211,1.4038,1.4038,1.3483,1.2535,1.1059,0.9794,0.8714,0.85,0.7841,0.7228,0.8105,0.7841,0.7228,0.8101,0.7845,0.7061,0.7061,0.7064,0.7241,0.8201,0.8376,0.8636,0.984,1.0783,1.1552,1.2151,1.2942,1.3646,1.3646,1.3646,1.3294,1.2072,1.1582,1.0686,0.8727,0.7567,0.7378,0.8632,0.9584,0.0,1.2145,1.3027,1.373,1.4088,1.3821,1.3527,1.3233,1.2852,1.2351,1.1703,1.1443,1.0454,0.871,0.8348,0.738,0.5689,0.5246,0.4889,0.0,0.0,0.0,0.0,0.0,0.0,0.0,0.0,0.0,0.0,0.0,0.0,0.0,0.0,0.0,0.0,0.0,0.0,0.0,0.0,0.0,0.0,0.3813,0.4245,0.5937,0.6236,0.6298,0.6515,0.6692,0.7235,0.8468,0.8747,0.9235,1.0413,1.0712,1.0835,1.0835,1.1138,1.1261,1.1261,1.0654,1.0348,1.0348,0.9621,0.9295,0.9374,1.0669,1.1268,1.1353,1.2675,1.3624,0.0,1.4291,1.4667,1.5331,1.5331,1.495,0.0,0.0,0.0,0.0,0.0,0.9558,0.902,0.9736,0.9558,0.902,0.9736,0.9558,0.8931,0.8931,0.8931,0.911,0.9826,1.0009,1.0272,1.1425,1.2218,1.2838,1.328,1.4002,1.4422,1.4295,1.4269,1.4051,1.3228,1.2674,0.0,1.0524,0.9314,0.8965,1.0183,1.0869,1.1729,1.2942,1.3646,1.4088,1.4088,1.3935,1.3714,1.3414,1.2993,0.0,0.0,0.0,1.0604,0.8845,0.8144,0.0,0.0,0.0,0.0,0.0,0.0,0.0,0.0,0.4813,0.4454,0.0,0.0,0.0,0.0,0.0,0.0,0.0,0.0,0.0,0.0,0.0,0.0,0.0,0.0,0.0,0.0,0.5188,0.4655,0.6585,0.6711,0.6644,0.6898,0.6943,0.7519,0.896,0.9061,0.9676,1.0906,1.1361,1.1488,1.1515,0.0,0.0,0.0,0.0,1.181,1.181,1.1626,1.1631,1.1742,1.3074,1.3761,1.3974,1.5242,1.5832,1.5832,1.5832,1.5832,1.5832,1.5832,1.5832,1.5677,1.3915,1.2592,1.1639,1.1548,1.1548,1.1548,1.1639,0.0,0.0,1.1639,1.1639,1.1548,1.1548,1.1548,1.1543,1.1639,1.1731,1.1914,1.3121,1.3399,1.3676,1.4777,1.4963,1.489,1.4629,1.4569,1.4482,1.4195,1.3253,1.2534,1.2504,1.1472,1.0956,1.2151,1.2328,1.2766,1.3913,1.4088,1.4088,1.4088,0.0,0.0,1.3667,1.3153,1.2896,1.2829,1.1939,1.0823,0.9548,0.827,0.7319,0.6724,0.6801,0.6595,0.6081,0.6342,0.6424,0.6322,0.564,0.4891,0.0,0.0,0.0,0.0,0.0,0.0,0.0,0.0,0.0,0.0,0.0,0.0,0.0,0.0,0.0,0.4423,0.552,0.6569,0.7007,0.7035,0.699,0.6936,0.7031,0.7891,1.0086,1.0269,1.1213,1.361,1.3773,1.3995,1.4225,1.4494,1.4647,1.4647,1.3902,1.3435,1.3435,1.239,1.1839,1.1879,0.0,0.0,1.3974,1.5242,1.5832,1.5832,1.5832,1.5832,1.5832,1.5832,1.5832,1.5602,1.4216,1.3303,1.2751,1.1822,1.1548,1.1639,1.2564,1.2285,1.1639,1.2564,1.2285,1.1548,1.1548,1.1548,0.0,1.2564,1.2842,1.3121,1.4315,1.4687,1.4687,1.4963,1.4963,1.495,1.489,1.4877,1.479,1.4496,1.4256,1.4004,1.3776,1.1992,1.0956,1.2151,1.2328,1.2766,1.3913,1.4088,1.4088,1.4088,1.4088,1.3968,1.3667,1.3534,1.326,1.2856,1.1822,1.0709,0.9585,0.8714,0.7713,0.6532,0.656,0.6513,0.6386,0.6444,0.6583,0.6793,0.6536,0.6408,0.0,0.0,0.0,0.0,0.0,0.0,0.0,0.0,0.0,0.0,0.0,0.4215,0.6316,0.0,0.6554,0.5548,0.6347,0.7314,0.7891,0.745,0.7112,0.7044,0.7099,0.7837,0.9575,1.045,1.1614,1.3517,1.4421,1.5023,1.517,1.5451,1.5611,1.5611,1.507,1.4854,1.4854,1.4178,1.3884,1.3884,1.4561,1.4854,1.4848,1.5534,1.5832,1.5832,1.5832,1.5832,1.5832,1.5832,1.5832,1.5717,1.4999,1.4665,1.4446,1.3876,1.3683,1.3776,1.426,1.4161,1.3776,1.4353,1.4161,1.3683,1.3683,1.3683,1.3776,1.4353,1.4545,1.4638,1.5206,1.5398,1.5398,1.5398,1.5398,1.5357,1.5211,1.5177,1.509,1.4803,1.4743,1.4649,1.4355,1.333,1.2665,1.3143,1.3203,1.3379,1.3997,1.4088,1.4088,1.4088,1.4088,1.4028,1.3874,1.3728,1.3454,1.3006,1.2023,1.0903,0.9776,0.8833,0.7792,0.6586,0.6661,0.6702,0.6702,0.6848,0.7,0.7149,0.716,0.7207,0.0,0.0,0.0,0.0,0.0,0.0,0.0,0.0,0.3009,0.1112,0.3735,0.6549,0.6969,0.6876,0.6869,0.7062,0.7314,0.7801,0.8786,0.8277,0.7749,0.7749,0.7401,0.7665,0.9061,1.0377,1.1671,1.3145,1.4624,1.5424,1.5478,1.5705,1.5832,1.5832,1.5832,1.5832,1.5832,1.5832,1.5832,1.5832,1.5832,1.5832,1.5832,1.5832,1.5832,1.5832,1.5832,1.5832,1.5832,1.5832,1.5832,1.5832,1.5832,1.5832,1.5832,1.5832,1.5832,1.5832,1.5832,1.5832,1.5832,1.5832,1.5832,1.5832,1.5832,1.5832,1.5832,1.5832,1.5832,1.5832,1.5832,1.5832,1.5832,1.5832,1.5832,1.5765,1.5531,1.5478,1.5398,1.5104,1.505,1.4957,1.4656,1.4603,1.4489,1.4135,1.4088,1.4088,1.4088,1.4088,1.4088,1.4088,1.4088,1.4088,1.4088,1.3868,1.3627,1.3394,1.2388,1.1311,1.007,0.9004,0.7939,0.6787,0.6909,0.6987,0.7017,0.7255,0.7387,0.7417,0.757,0.7577,0.6819,0.5615,0.4168,0.2047,0.2567,0.3955,0.0,0.0,0.5971,0.3674,0.3659,0.4545,0.652,0.6936,0.7062,0.6926,0.7899,0.8782,0.8886,0.9662,1.0178,1.0178,0.8356,0.8009,1.0178,1.0813,1.2104,1.4615,1.5119,1.5504,1.5765,1.5812,1.5832,1.5832,1.5832,1.5832,1.5832,1.5832,1.5832,1.5832,1.5832,1.5832,1.5832,1.5832,1.5832,1.5832,1.5832,1.5832,1.5832,1.5832,1.5832,1.5832,1.5832,1.5832,1.5832,1.5832,1.5832,1.5832,1.5832,1.5832,1.5832,1.5832,1.5832,1.5832,1.5832,1.5832,1.5832,1.5832,1.5832,1.5832,1.5832,1.5832,1.5832,1.5832,1.5832,1.5818,1.5792,1.5785,1.5698,1.5404,1.5351,1.5257,1.4963,1.4917,1.4723,1.4168,1.4088,1.4088,1.4088,1.4088,1.4088,1.4088,1.4088,1.4088,1.4088,1.4055,1.4021,1.3995,1.2849,1.173,1.0535,0.9425,0.8305,0.7088,0.7109,0.7183,0.7322,0.7356,0.7441,0.7577,0.7723,0.7777,0.685,0.5706,0.0,0.0,0.3843,0.3846,0.4678,0.7096,0.8871,0.7865,0.8052,0.8652,0.9514,0.939,0.8867,0.0,0.9096,0.9923,0.9923,1.0265,1.0818,1.1281,0.9416,0.854,0.9492,1.0548,1.1663,1.291,1.4479,1.5524,1.5812,1.5832,1.5832,1.5832,1.5832,1.5832,1.5832,1.5832,1.5832,1.5832,1.5832,1.5832,1.5832,1.5832,1.5832,1.5832,1.5832,1.5832,1.5832,1.5832,1.5832,1.5832,1.5832,1.5832,1.5832,1.5832,1.5832,1.5832,1.5832,1.5832,1.5832,1.5832,1.5832,1.5832,1.5832,1.5832,1.5832,1.5832,1.5832,1.5832,1.5832,1.5832,1.6015,1.6763,1.6943,1.6943,1.6943,1.6943,1.6626,1.5765,1.5651,1.5558,1.5264,1.5217,1.5077,1.4663,1.4596,1.4596,1.4596,1.4596,1.4529,1.4355,1.4188,1.4088,1.4088,1.4088,1.3822,1.3118,1.2589,1.1466,0.9666,0.9252,0.8422,0.7275,0.736,0.7438,0.7506,0.7587,0.7658,0.7726,0.7875,0.7943,0.6721,0.0,0.0,0.6039,0.5644,0.516,0.5381,0.8277,1.0857,1.0659,1.0974,1.1394,1.1394,1.0624,0.9751,0.8901,0.9543,1.0096,1.0096,1.0646,1.1075,1.1478,1.0208,0.9178,0.8886,0.9939,1.0831,1.1348,1.3591,1.5013,1.522,1.5596,1.5832,1.5832,1.5832,1.5832,1.5832,1.5832,1.5832,1.5832,1.5832,1.5832,1.5832,1.5832,1.5635,1.5337,1.5635,1.5832,1.5832,1.5832,1.5832,1.5737,1.5439,1.5242,1.5242,1.5242,1.5534,1.5832,1.5832,1.5832,1.5832,1.5832,1.5832,1.5832,1.5832,1.5832,1.5832,1.5832,1.5832,1.5832,1.5832,1.5832,1.6103,1.7412,1.7692,1.7692,1.7692,1.7692,1.7318,1.6015,1.5832,1.5758,1.5551,1.5518,1.5444,1.5237,1.5204,1.5144,1.4983,1.4963,1.4883,1.4663,1.4456,1.4329,1.4329,1.4329,1.3965,1.3077,1.2371,1.1319,0.966,0.8989,0.8333,0.7434,0.7543,0.7617,0.7658,0.7763,0.7831,0.7875,0.7987,0.8038,0.0,0.0,0.5731,0.6508,0.7752,0.8827,0.9219,1.0605,1.1528,1.0732,1.0429,1.0287,1.0287,0.9288,0.845,0.845,0.8685,0.8978,0.8978,1.0593,1.1545,1.0747,1.0334,0.979,0.0,0.9144,0.988,1.1043,1.2757,1.38,1.3806,1.51,1.5832,1.5832,1.5832,1.5832,1.5832,1.5832,1.5832,1.5832,1.5832,1.5832,1.5832,1.5832,1.5146,1.407,1.5242,1.5832,1.5832,1.5832,1.5832,1.5635,1.4459,1.3968,1.3968,1.3968,1.4752,1.5832,1.5832,1.5832,1.5832,1.5832,1.5832,1.5832,1.5832,1.5832,1.5832,1.5832,1.5832,1.5832,1.5832,1.5832,1.6103,1.7412,1.7692,1.7692,1.7692,1.7692,1.7318,1.6015,1.5832,1.5825,1.5818,1.5812,1.5812,1.5805,1.5805,1.5598,1.5037,1.4963,1.4963,1.495,1.4943,1.4937,1.4937,1.4937,1.4937,1.4937,1.2638,1.1263,1.1263,0.8881,0.7594,0.7594,0.7597,0.7665,0.7804,0.7811,0.7885,0.8031,0.8038,0.8038,0.0,0.0,0.863,0.9766,0.9989,0.999,1.0203,1.1219,1.221,1.232,1.2273,1.2302,1.2798,1.1981,1.085,0.9466,1.0163,1.0444,0.9131,1.012,1.0895,1.0403,0.9781,0.0,0.0,0.0,0.0,1.1023,1.2507,1.3792,1.4817,1.4609,1.4949,1.5737,1.4949,1.4949,1.5825,1.5832,1.5832,1.5825,1.4949,1.4949,1.5737,1.4949,1.4752,1.5146,1.5635,1.5832,1.573,1.4854,1.4555,1.4364,1.3108,1.2528,1.2528,1.2528,1.3397,1.4657,1.5534,1.5832,1.5832,1.5832,1.5832,1.5832,1.5832,1.5832,1.5832,1.5832,1.5832,1.6015,1.685,1.7037,1.7584,1.9579,1.9497,1.8864,1.8864,1.8234,1.7318,1.6015,1.5832,1.5832,1.5832,1.5832,1.5832,1.5832,1.5832,1.5758,1.5565,1.5371,1.5251,1.5251,1.5077,1.4963,1.4963,1.4963,1.4315,1.266,1.1742,1.0546,0.8893,0.8157,0.774,0.774,0.7838,0.7916,0.7963,0.7963,0.7987,0.8038,0.8038,0.8038,0.0,0.9079,0.9983,1.1006,1.1515,1.1674,1.1838,1.2897,1.3912,1.417,1.3733,1.3304,1.3637,1.2535,1.123,1.0199,1.0215,1.0005,0.9018,0.9434,0.9619,0.9132,0.8896,0.8607,0.0,0.0,0.0,0.9584,1.1546,1.3101,1.3915,1.4358,1.4752,1.514,1.4364,1.4268,1.514,1.5146,1.5343,1.5825,1.4949,1.4752,1.5051,1.4262,1.4364,1.5146,1.5146,1.5343,1.573,1.4949,1.4561,1.4364,1.2624,1.1945,1.1945,1.1945,1.2431,1.3392,1.4657,1.5439,1.5832,1.5832,1.5832,1.5832,1.5832,1.5832,1.5832,1.5832,1.5832,1.6015,1.6857,1.7037,1.749,1.9579,1.9405,1.8864,1.8864,1.8234,1.7318,1.6015,1.5832,1.5832,1.5832,1.5832,1.5832,1.5832,1.5832,1.5832,1.5832,1.5665,1.5551,1.5551,1.5384,1.5087,1.4615,1.4615,1.3767,1.1614,1.1051,1.0112,0.8516,0.8035,0.7892,0.7892,0.7987,0.8038,0.8038,0.8038,0.8038,0.8038,0.8038,0.8038,0.9315,0.9781,1.0163,1.0595,1.2362,1.4058,1.4045,1.536,1.6452,1.5992,1.4431,1.308,0.0,0.0,0.9616,1.0415,0.8923,0.8012,0.881,0.8574,0.8021,0.0,0.0,0.0,0.0,0.0,0.0,0.7262,0.0,1.1687,1.1574,1.4178,1.5146,1.407,1.3974,1.3974,1.3974,1.3974,1.4555,1.5832,1.573,1.514,1.3974,1.3974,1.3878,1.3878,1.3878,1.4561,1.5635,1.5534,1.5534,1.5248,1.2818,1.1755,1.1848,1.1853,1.1945,1.2139,1.3488,1.4752,1.5832,1.5832,1.5832,1.5832,1.5832,1.5832,1.5832,1.5832,1.5832,1.5825,1.5927,1.592,1.6197,1.7498,1.7777,1.7692,1.7692,1.7692,1.7225,1.6015,1.5832,1.5832,1.5832,1.5832,1.5832,1.5832,1.5832,1.5832,1.5832,1.5832,1.5832,1.5832,1.573,1.5242,1.3974,1.3878,1.3199,1.1848,1.0681,0.9998,0.9899,0.8627,0.8038,0.8038,0.8038,0.8038,0.8038,0.8038,0.8038,0.8038,0.8041,0.8041,1.1437,1.2147,1.3258,1.4117,1.4788,1.5202,1.4969,1.496,1.4764,1.4106,1.2577,1.1298,1.1458,0.0,0.0,1.002,0.9469,0.0,0.8918,0.8178,0.0,0.7309,0.0,0.7773,0.7536,0.7638,0.0,0.0,1.0523,1.196,1.2915,1.3892,1.4657,1.5337,1.4364,1.4364,1.5337,1.5343,1.5439,1.5825,1.4848,1.4752,1.5242,1.4364,1.3878,1.3878,1.3878,1.3494,1.2818,1.1848,1.1453,1.1458,1.0779,1.0485,1.0583,1.1556,1.2528,1.3392,1.3782,1.4752,1.5832,1.5832,1.5832,1.5832,1.5832,1.5832,1.5832,1.5832,1.5832,1.6015,1.6943,1.7225,1.7498,1.8772,1.8319,1.7692,1.7692,1.6943,1.6204,1.5825,1.5832,1.5832,1.5832,1.5832,1.5832,1.5832,1.5832,1.5832,1.5832,1.5832,1.5832,1.5832,1.4949,1.4268,1.3974,1.3006,1.1848,1.0583,1.0194,0.9509,0.8528,0.8134,0.8038,0.8038,0.8038,0.8038,0.8038,0.8038,0.8038,0.8038,0.7955,0.7965,1.4216,1.4416,1.5061,1.6108,1.6238,1.6149,1.6049,1.5602,1.4924,1.3827,1.2028,0.0,1.0486,0.0,0.0,0.0,0.0,0.0,0.945,0.8228,0.7295,0.0,0.7506,0.0,0.7685,0.7767,0.809,0.0,1.0622,1.224,1.3496,1.4319,1.4848,1.4949,1.4262,1.4262,1.4949,1.4949,1.4949,1.4949,1.4262,1.3974,1.4082,1.3397,1.3006,1.3006,0.0,1.2037,1.1848,1.1165,1.0877,1.0877,1.0877,1.0877,1.0974,1.2328,1.3295,1.3974,1.4555,1.5242,1.5832,1.5832,1.5832,1.5832,1.5832,1.5832,1.5832,1.5832,1.5832,1.592,1.6669,1.685,1.7037,1.7762,1.7397,1.685,1.685,1.6292,1.5832,1.5832,1.5832,1.5832,1.5832,1.5832,1.5832,1.5832,1.5832,1.5629,1.5045,1.4949,1.4758,1.4172,1.3494,1.2813,1.2231,1.1458,1.0485,0.9217,0.9118,0.8825,0.8038,0.8038,0.8038,0.8038,0.8038,0.8038,0.8038,0.8048,0.7955,0.7955,0.7972,0.7363,1.6661,1.6364,1.6191,1.7253,1.7179,1.6825,1.6916,1.6419,1.5496,1.3829,0.0,1.0231,0.9452,0.9082,0.9163,1.0197,0.0,0.8817,0.9824,0.8332,0.7197,0.7353,0.7506,0.7648,0.777,0.7784,0.7931,0.8164,1.0405,1.2283,1.3379,1.4924,1.5242,1.3974,1.3843,1.3825,1.3825,1.379,1.3891,1.4112,1.3921,1.3267,1.2139,1.1945,1.1848,1.1556,1.0485,0.0,1.1361,1.1361,1.1361,1.1458,1.175,1.1945,1.2042,1.359,1.4166,1.4268,1.5242,1.554,1.554,1.573,1.5832,1.5832,1.5832,1.5832,1.5832,1.5832,1.5832,1.5832,1.5832,1.5832,1.5832,1.5832,1.5832,1.5832,1.5832,1.5832,1.5832,1.5832,1.5832,1.5832,1.5832,1.5832,1.573,1.5534,1.554,1.5045,1.3584,1.368,1.3392,1.2042,1.175,1.1165,1.0096,0.9801,0.9217,0.8038,0.8038,0.8038,0.8038,0.8038,0.8038,0.8038,0.8038,0.8038,0.8038,0.7962,0.7972,0.7972,0.7989,0.6762,1.6006,1.6472,1.7253,1.839,1.8098,1.737,1.6812,1.5387,0.0,0.0,0.0,0.8787,0.7997,0.8565,0.0,0.8961,0.0,0.0,0.0,0.0,0.7197,0.0,0.0,0.0,0.0,0.0,0.0,0.0,0.0,1.1635,1.2159,1.4447,1.5242,1.3974,1.3773,1.3661,1.3461,1.3356,1.3921,1.5093,1.4036,1.3478,1.3494,1.2431,1.1361,1.0293,1.0096,0.0,0.8627,0.8627,0.8627,0.892,1.1072,1.1945,1.2237,1.4567,1.5439,1.5343,1.4561,1.4262,1.4364,1.5439,1.5832,1.5832,1.5832,1.5832,1.5832,1.5832,1.5832,1.5832,1.5832,1.5832,1.5832,1.5832,1.5832,1.5832,1.5832,1.5832,1.5832,1.5832,1.5832,1.5832,1.5832,1.5832,1.5439,1.4364,1.4262,1.3392,1.097,1.2522,1.3392,1.2042,1.0974,1.0194,0.9998,0.9019,0.8237,0.8041,0.8038,0.8038,0.8038,0.8038,0.8038,0.8038,0.8038,0.8038,0.8038,0.7962,0.7972,0.7972,0.8006,0.7711,1.5873,1.6487,1.7535,1.8381,1.7582,1.6361,1.5674,0.0,0.0,0.0,0.0,0.7662,0.7145,0.0,0.0,0.0,0.0,0.0,0.0,0.0,0.0,0.0,0.0,0.0,0.0,0.0,0.0,0.0,0.0,1.1651,1.2538,1.4341,1.5094,1.4526,1.44,1.433,1.4232,1.3453,1.3453,1.4135,1.3481,1.2609,1.1492,1.1596,1.0564,0.8764,0.8764,0.0,0.7916,0.7841,0.7855,0.8105,0.9927,1.0645,1.0929,1.2813,1.3572,1.3473,1.2813,1.2626,1.272,1.338,1.4139,1.4949,1.5629,1.5832,1.5832,1.5832,1.5832,1.5832,1.5832,1.5832,1.5832,1.5832,1.5832,1.5832,1.5832,1.5832,1.5832,1.5832,1.5832,1.5832,1.5832,1.5242,1.4555,1.3974,1.3295,1.2134,1.0293,1.1063,1.1356,0.9993,0.9312,0.892,0.892,0.8333,0.8038,0.8038,0.8038,0.8038,0.8038,0.8038,0.8038,0.8038,0.7952,0.7955,0.7955,0.7985,0.8002,0.7899,0.5153,0.384,1.5382,1.6401,1.7734,1.7908,1.6721,1.5242,1.4294,1.2793,0.0,0.0,0.7285,0.6652,0.6454,0.0,0.0,0.0,0.0,0.0,0.0,0.0,0.0,0.0,0.0,0.0,0.0,0.0,0.0,0.0,0.0,0.0,1.3115,1.4134,1.4405,1.3851,1.4071,1.4129,1.4135,1.3243,1.2968,1.3303,1.275,1.1592,0.9714,1.0269,0.9444,0.76,0.76,0.0,0.0,0.7645,0.7665,0.7849,0.9023,0.952,0.9705,1.0992,1.1548,1.1456,1.1176,1.1084,1.1084,1.1084,1.216,1.3613,1.4578,1.4867,1.4867,1.4867,1.4867,1.4867,1.4867,1.4867,1.498,1.524,1.5589,1.5832,1.5832,1.5832,1.5832,1.5832,1.554,1.5439,1.5439,1.4364,1.3392,1.3097,1.2134,1.1072,0.9702,0.9608,0.9217,0.8137,0.8038,0.8038,0.8038,0.8038,0.8038,0.8038,0.8038,0.8038,0.8038,0.8038,0.8041,0.8045,0.7965,0.7669,0.7153,0.7701,0.8026,0.7918,0.2524,0.0,1.3943,1.63,1.8532,1.7335,1.6319,1.5132,1.3013,0.0,0.0,0.7708,0.652,0.5813,0.579,0.5739,0.0,0.0,0.0,0.0,0.0,0.0,0.0,0.0,0.0,0.0,0.0,0.0,0.0,0.0,0.0,0.0,1.3097,1.3308,1.229,1.0071,1.0985,1.1337,1.1158,1.1995,1.3046,1.4381,1.2048,1.1086,1.1007,0.8889,0.7785,0.76,0.76,0.0,0.0,0.7604,0.7607,0.7708,0.8979,0.952,0.9705,1.0992,1.1548,1.1359,1.0071,0.9701,0.9701,0.9701,1.0648,1.1702,1.1886,1.1886,1.1886,1.1886,1.1886,1.1886,1.1886,1.1886,1.2216,1.3578,1.4873,1.5832,1.5832,1.5832,1.5832,1.5832,1.4854,1.407,1.407,1.3006,1.1653,1.0485,1.0293,0.9706,0.8333,0.8137,0.8137,0.8038,0.8038,0.8038,0.8038,0.8038,0.8038,0.8038,0.8038,0.8038,0.8038,0.8038,0.8048,0.7969,0.7972,0.6848,0.4418,0.6776,0.8026,0.7918,0.2524,0.0,1.1378,1.4706,1.7787,1.6179,1.553,1.465,1.2076,0.0,0.884,0.6163,0.5248,0.4943,0.5039,0.515,0.5217,0.0,0.5085,0.519,0.0,0.0,0.0,0.0,0.0,0.0,0.0,0.0,0.0,0.0,0.0,0.0,1.158,1.2289,1.2201,1.1217,1.157,1.1788,1.1701,1.2118,1.2991,1.4255,1.2492,1.1401,1.0878,0.9817,0.8661,0.7322,0.7322,0.0,0.0,0.736,0.7377,0.7543,0.7891,0.8027,0.8117,0.8653,0.8833,0.8743,0.8207,0.8027,0.8027,0.8027,0.8387,0.9139,1.0913,1.1548,1.1548,1.1548,1.1548,1.1548,1.1548,1.1548,1.166,1.2221,1.2896,1.3366,1.3366,1.3391,1.3499,1.3499,1.3011,1.2716,1.2716,1.1653,1.0583,1.0096,0.9312,0.8627,0.8038,0.8038,0.8038,0.8038,0.8038,0.8038,0.8038,0.8038,0.8038,0.8038,0.8038,0.8038,0.8038,0.7952,0.7965,0.7972,0.7995,0.7491,0.6366,0.4241,0.3232,0.3131,0.101,0.0,0.9579,1.2729,1.5438,1.3757,1.3316,1.2719,0.0,0.0,0.7377,0.4868,0.413,0.3972,0.4242,0.4413,0.449,0.4525,0.449,0.4538,0.4814,0.0,0.0,0.0,0.0,0.0,0.0,0.0,0.0,0.0,0.0,0.0,1.0611,1.1037,1.1295,1.1295,1.1295,1.1295,1.1295,1.1638,1.2248,1.3039,1.1821,1.0869,1.0096,0.9744,0.8703,0.7139,0.7139,0.0,0.0,0.7183,0.7204,0.7292,0.7183,0.7139,0.7139,0.7139,0.7139,0.7139,0.7139,0.7139,0.7139,0.7139,0.7139,0.7528,0.9547,1.0171,1.0171,1.0171,1.0171,1.0171,1.0171,1.0486,1.0812,1.0812,1.1256,1.1619,1.1686,1.1733,1.1864,1.1935,1.1556,1.1365,1.1365,1.0293,0.941,0.941,0.8627,0.8038,0.8038,0.8038,0.8041,0.8048,0.8048,0.8045,0.8038,0.8038,0.8038,0.8038,0.8038,0.8038,0.8038,0.7962,0.7666,0.6848,0.7598,0.7202,0.5667,0.1817,0.0,0.0,0.0,0.0,0.9114,1.0629,1.104,0.9728,0.9326,0.876,0.0,0.5982,0.5355,0.4082,0.3211,0.2895,0.351,0.3358,0.3222,0.3578,0.3746,0.4058,0.4683,0.0,0.0,0.0,0.0,0.0,0.0,0.0,0.0,0.0,0.0,0.0,1.0524,0.9579,0.8978,0.8978,0.8978,0.8978,0.8978,1.0009,1.0611,1.0611,0.9492,0.889,0.889,0.7665,0.7139,0.0,0.0,0.0,0.0,0.7139,0.7143,0.7143,0.7139,0.7139,0.7139,0.7139,0.7139,0.7139,0.7139,0.7139,0.7139,0.7139,0.7139,0.7139,0.7143,0.7146,0.7146,0.7146,0.7146,0.7146,0.7146,0.8232,0.9345,0.9345,1.0481,1.1518,1.1655,1.1706,1.1772,1.1905,1.0877,0.9998,0.9998,0.892,0.8038,0.8038,0.8038,0.8038,0.8038,0.8038,0.8048,0.7969,0.7972,0.7962,0.8041,0.8038,0.8038,0.8038,0.8038,0.8038,0.8038,0.7962,0.6748,0.4116,0.6673,0.5363,0.0101,0.0,0.0,0.0,0.0,0.0,0.5648,0.8572,1.0696,0.9141,0.9061,0.9025,0.7436,0.6606,0.5648,0.3726,0.2972,0.2771,0.2947,0.2977,0.3174,0.3782,0.3829,0.0,0.0,0.0,0.0,0.0,0.0,0.0,0.0,0.0,0.0,0.0,0.0,0.0,0.9642,0.8937,0.8704,0.8882,0.889,0.889,0.889,0.9235,0.9836,1.0611,0.9405,0.889,0.889,0.854,0.7841,0.0,0.0,0.0,0.0,0.7139,0.7139,0.7139,0.7139,0.7139,0.7139,0.7139,0.7139,0.7139,0.7139,0.7139,0.7139,0.7139,0.7139,0.7139,0.7139,0.7139,0.7139,0.7139,0.7139,0.7139,0.7139,0.7439,0.7827,0.7827,0.8219,0.8722,0.8782,0.8796,0.8895,0.8954,0.8675,0.8459,0.8459,0.8262,0.8038,0.8038,0.8038,0.8038,0.8038,0.8038,0.8041,0.8048,0.8048,0.7952,0.7962,0.7962,0.7955,0.8041,0.8038,0.8045,0.7962,0.7975,0.7582,0.6776,0.3939,0.1716,0.0,0.0,0.0,0.0,0.0,0.0,0.0,0.6133,0.799,0.7015,0.7075,0.7157,0.6333,0.5666,0.4733,0.3071,0.2518,0.2447,0.2663,0.2798,0.308,0.3595,0.3654,0.0,0.0,0.0,0.0,0.0,0.0,0.0,0.0,0.0,0.0,0.0,0.0,0.0,0.8309,0.7942,0.7863,0.7998,0.8088,0.8088,0.8088,0.8088,0.8422,0.9096,0.8492,0.8186,0.819,0.8162,0.7845,0.0,0.0,0.0,0.0,0.7064,0.7061,0.7139,0.7139,0.7139,0.7139,0.7139,0.7139,0.7139,0.7139,0.7139,0.7139,0.7139,0.7139,0.7139,0.7139,0.7139,0.7139,0.7139,0.7139,0.7139,0.7139,0.7139,0.7139,0.7139,0.7214,0.7299,0.736,0.7448,0.7533,0.759,0.7672,0.7746,0.7801,0.7889,0.7974,0.8031,0.8038,0.8041,0.7952,0.7952,0.7955,0.7969,0.7962,0.7965,0.7979,0.7969,0.7955,0.8041,0.8038,0.8048,0.7972,0.7056,0.6971,0.8022,0.2726,0.0,0.0,0.0,0.0,0.0,0.0,0.0,0.0,0.3459,0.363,0.385,0.3843,0.3756,0.384,0.3574,0.0,0.2149,0.1908,0.205,0.2643,0.2857,0.2971,0.3168,0.0,0.0,0.0,0.0,0.0,0.0,0.0,0.0,0.0,0.0,0.0,0.0,0.0,0.0,0.6778,0.6602,0.6519,0.6605,0.6678,0.6678,0.6702,0.6702,0.6702,0.6702,0.6848,0.6912,0.6919,0.7051,0.7126,0.0,0.0,0.0,0.0,0.7054,0.7139,0.7129,0.7129,0.7132,0.7143,0.7139,0.7139,0.7139,0.7143,0.7143,0.7139,0.7139,0.7139,0.7139,0.7139,0.7139,0.7139,0.7139,0.7139,0.7139,0.7139,0.7139,0.7139,0.7139,0.7139,0.718,0.7322,0.7356,0.7397,0.7539,0.7577,0.7624,0.7756,0.7787,0.7848,0.8001,0.8024,0.7939,0.7969,0.7869,0.7679,0.7711,0.7695,0.7785,0.7989,0.7959,0.8041,0.8038,0.8038,0.8048,0.7972,0.5429,0.5035,0.7406,0.2524,0.0,0.0,0.0,0.0,0.0,0.0,0.0,0.1353,0.0,0.3512,0.3115,0.3155,0.3336,0.0,0.3609,0.2937,0.0899,0.0,0.2671,0.3257,0.3155,0.3186,0.0,0.0,0.0,0.0,0.0,0.0,0.0,0.0,0.0,0.0,0.0,0.0,0.0,0.0,0.661,0.6427,0.4862,0.478,0.6583,0.6472,0.6481,0.6698,0.6702,0.6702,0.6702,0.6746,0.6853,0.6853,0.6996,0.7109,0.0,0.0,0.0,0.4598,0.6329,0.7097,0.7107,0.709,0.7068,0.7074,0.7058,0.7139,0.7143,0.7071,0.7068,0.7139,0.7139,0.7139,0.7139,0.7139,0.7139,0.7139,0.7139,0.7139,0.7139,0.7139,0.7139,0.7139,0.7139,0.7139,0.7149,0.7187,0.7193,0.7207,0.7241,0.7343,0.7438,0.7468,0.7573,0.7699,0.7841,0.7781,0.7835,0.7959,0.6237,0.4924,0.4931,0.4929,0.5737,0.7872,0.7969,0.7959,0.8041,0.8038,0.7952,0.7985,0.5432,0.3318,0.1918,0.0606,0.0,0.0,0.0,0.0,0.0,0.0,0.0,-0.0223,0.0536,0.1829,0.1322,0.1734,0.2214,0.2005,0.0,0.0,0.0,0.0,0.1688,0.2429,0.0,0.0,0.0,0.0,0.0,0.0,0.0,0.0,0.0,0.0,0.0,0.0,0.0,0.0,0.0,0.0,0.4379,0.6172,0.5196,0.424,0.3614,0.5349,0.6366,0.6505,0.6508,0.6508,0.6508,0.659,0.604,0.5117,0.5352,0.6071,0.0,0.0,0.0,0.201,0.3355,0.4484,0.5483,0.5469,0.6114,0.6966,0.7052,0.7046,0.6953,0.7063,0.7107,0.7071,0.7071,0.7112,0.7074,0.7074,0.7074,0.7071,0.7058,0.7139,0.7139,0.7139,0.7139,0.7139,0.7139,0.7139,0.7139,0.7139,0.7139,0.7139,0.7139,0.7207,0.7288,0.736,0.7441,0.7546,0.7699,0.7733,0.778,0.7983,0.67,0.4929,0.2382,0.3276,0.5088,0.7785,0.7985,0.7969,0.8041,0.8048,0.7965,0.7989,0.6561,0.4033,0.0101,0.0,0.0,0.0,0.0,0.0,0.0,0.0,0.0,-0.158,-0.1466,-0.0695,-0.071,-0.0112,0.0314,-0.0385,0.0,0.0,0.0,0.0,0.0,0.0,0.0,0.0,0.0,0.0,0.0,0.0,0.0,0.0,0.0,0.0,0.0,0.0,0.0,0.0,0.0,0.0,0.1551,0.5151,0.5309,0.3732,0.0078,0.3498,0.561,0.6294,0.6335,0.6122,0.5802,0.6179,0.5339,0.3549,0.3208,0.4159,0.6022,0.0,0.0,0.0,0.0,0.1164,0.3087,0.3084,0.4596,0.6816,0.7003,0.6739,0.6299,0.6489,0.6317,0.6067,0.6417,0.6579,0.6587,0.6609,0.6526,0.6523,0.6605,0.6786,0.7058,0.7058,0.7058,0.7058,0.7139,0.7139,0.7139,0.7139,0.7139,0.7139,0.7139,0.7139,0.718,0.7312,0.7339,0.7397,0.7657,0.759,0.7712,0.7974,0.7298,0.5003,0.0488,0.2049,0.4326,0.662,0.7531,0.7813,0.7375,0.7736,0.7982,0.7995,0.7193,0.4649,0.0101,0.0,0.0,0.0,0.0,0.0,0.0,0.0,0.0,-0.3178,-0.3956,-0.338,-0.1635,-0.2195,-0.3138,-0.2991,0.0,0.0,0.0,0.0,0.0,0.0,0.0,0.0,0.0,0.0,0.0,0.0,0.0,0.0,0.0,0.0,0.0,0.0,0.0,0.0,0.0,0.0,0.0294,0.0958,0.0958,0.0663,0.0,0.0662,0.2651,0.6236,0.6329,0.5413,0.3595,0.5454,0.6116,0.5714,0.2139,0.0714,0.1111,0.0,0.0714,0.0,0.0,0.0241,0.0572,0.057,0.3052,0.6676,0.6756,0.5638,0.4107,0.411,0.2771,0.1431,0.3455,0.4141,0.4166,0.4159,0.4094,0.4108,0.4174,0.5547,0.7091,0.7081,0.7081,0.7074,0.7058,0.7139,0.7139,0.7139,0.7139,0.7139,0.7139,0.7139,0.7146,0.7173,0.7101,0.7258,0.7414,0.7273,0.7343,0.7963,0.401,0.0954,0.0096,0.0383,0.0766,0.1152,0.5398,0.705,0.4791,0.6738,0.7999,0.8019,0.3636,0.0808,0.0,0.0,0.0,0.0,0.0,0.0,0.0,0.0,0.0,-0.1789,-0.3176,-0.3871,-0.3338,-0.4077,-0.4866,-0.4703,0.0,0.0,0.0,0.0,0.0,0.0,0.0,0.0,0.0,0.0,0.0,0.0,0.0,0.0,0.0,0.0,0.0,0.0,0.0,0.0,0.0,0.0,0.0,0.0,0.0,0.0,0.0,-0.1892,-0.1964,-0.0073,0.0964,0.1435,0.1454,0.2413,0.2904,0.2826,0.0863,0.0,0.0,0.0,-0.1256,-0.3224,-0.0942,0.0,0.0,0.0,0.1283,0.3324,0.5615,0.4463,0.1618,0.1618,0.0898,0.0165,0.1319,0.1663,0.1936,0.3235,0.3589,0.3605,0.3594,0.4351,0.5188,0.5186,0.618,0.7091,0.7081,0.7078,0.7078,0.7071,0.7071,0.7068,0.7143,0.7139,0.7143,0.7068,0.7078,0.7115,0.7205,0.7138,0.6244,0.3974,0.1571,0.0,0.0,0.0,0.0,0.0,0.3626,0.5934,0.6116,0.7271,0.6747,0.3823,0.1298,0.0,0.0,-0.2813,-0.2929,0.0,0.0,0.0,0.0,0.0,-0.1515,-0.057,-0.2224,-0.3865,-0.4778,0.0,-0.5748,-0.6486,0.0,0.0,0.0,0.0,0.0,0.0,0.0,0.0,0.0,0.0,0.0,0.0,0.0,0.0,0.0,0.0,0.0,0.0,0.0,0.0,0.0,0.0,0.0,-0.0,0.0,-0.0357,-0.1216,-0.3944,-0.5396,-0.5393,-0.4099,-0.2696,-0.1343,-0.1372,-0.0847,0.0,0.0,0.0,0.0,0.0,-0.2435,-0.6009,-0.283,-0.0863,0.0,0.0,0.0,0.0392,0.3616,0.2752,0.0,0.0,0.0,0.0,0.0,0.0,0.0332,0.2171,0.2762,0.2775,0.2752,0.2792,0.2735,0.276,0.4113,0.5557,0.6189,0.6281,0.6278,0.6269,0.6723,0.7084,0.7064,0.7061,0.7064,0.7074,0.6627,0.6278,0.6299,0.5765,0.3683,-0.1077,-0.1707,-0.1445,-0.0916,-0.0367,0.0,0.0,0.1882,0.3959,0.5954,0.6085,0.3776,-0.1431,-0.1669,-0.1386,-0.0877,-0.4849,-0.5298,-0.1905,-0.12,-0.0902,-0.0907,-0.0907,-0.3126,-0.1281,-0.2725,-0.4081,-0.5306,-0.5435,0.0,-0.8865,-0.9587,0.0,0.0,0.0,0.0,0.0,0.0,0.0,0.0,0.0,0.0,0.0,0.0,0.0,0.0,0.0,0.0,0.0,0.0,0.0,0.0,0.0,0.0,-0.0135,0.0,-0.1552,-0.4892,-0.5238,-0.5373,-0.543,-0.5487,-0.5419,-0.5349,-0.5359,-0.3514,0.0,0.0,0.0,0.0,0.0,-0.2435,-0.625,-0.594,-0.3542,0.0,0.0,0.0,0.0,0.0314,0.0236,0.0,0.0,0.0,0.0,0.0,0.0,0.0,0.0243,0.0245,0.0246,0.0252,0.0253,0.0256,0.0266,0.0358,0.1072,0.3303,0.3838,0.3838,0.3838,0.5552,0.7098,0.7084,0.7084,0.7078,0.7058,0.5265,0.3838,0.384,0.1971,-0.1167,-0.595,-0.6588,-0.576,-0.358,-0.1343,0.0,0.0,0.0181,0.0361,0.0541,0.0561,-0.1622,-0.6421,-0.6631,-0.5561,-0.3425,-0.3716,-0.5111,-0.74,-0.4908,-0.3755,-0.3715,-0.3715,-0.3917,-0.1061,-0.3203,-0.5274,-0.6319,-0.7561,0.0,0.0,-1.1698,0.0,0.0,0.0,0.0,0.0,0.0,0.0,0.0,0.0,0.0,0.0,0.0,0.0,0.0,0.0,0.0,0.0,0.0,0.0,0.0,0.0,0.0,-0.3467,-0.2262,-0.2335,-0.3694,-0.4846,-0.5389,-0.5386,-0.55,-0.5555,-0.5549,-0.5674,-0.4954,-0.3489,-0.2273,-0.1032,-0.0074,-0.1194,-0.2547,-0.4208,-0.5686,-0.4548,-0.207,-0.3359,-0.2278,0.0,0.0,0.0,0.0,0.0,0.0,0.0,0.0,0.0,0.0,0.0,0.0,0.0,0.0,0.0,0.0,0.0,0.0,0.0265,0.1161,0.1344,0.1343,0.134,0.2055,0.3307,0.5272,0.6447,0.7081,0.7074,0.6358,0.4287,-0.0178,-0.2864,-0.4495,-0.4839,-0.6201,-0.6745,-0.5827,-0.3664,-0.2233,-0.2236,-0.2236,-0.2236,-0.2236,-0.3593,-0.5227,-0.7031,-0.7088,-0.6649,-0.5797,-0.5858,-0.6498,-0.7442,-0.6646,-0.6277,-0.6233,-0.6233,-0.6225,-0.1516,-0.3601,-0.5712,0.0,0.0,0.0,-1.2136,0.0,0.0,0.0,0.0,0.0,0.0,0.0,0.0,0.0,0.0,0.0,0.0,0.0,0.0,0.0,0.0,0.0,0.0,0.0,0.0,0.0,0.0,0.0,0.0,-0.4467,-0.3561,-0.3776,-0.5026,-0.5517,-0.5301,-0.5549,-0.557,-0.5428,-0.5851,-0.5892,-0.555,-0.4148,-0.2868,-0.1722,-0.2391,-0.3054,-0.3787,-0.538,-0.5187,-0.3894,-0.4814,-0.3859,-0.1939,-0.1239,-0.1011,-0.0862,-0.0235,0.0,0.0,0.0,0.0,0.0,0.0,-0.0942,-0.1971,-0.2003,-0.1527,-0.0972,-0.1011,-0.0514,0.0,0.0,0.0,0.0,0.0,0.1159,0.2684,0.4105,0.5902,0.7084,0.7074,0.7091,0.4919,-0.1513,-0.5112,-0.6487,-0.4919,-0.6536,-0.762,-0.716,-0.563,-0.4736,-0.4739,-0.4739,-0.4739,-0.4739,-0.6192,-0.7134,-0.7125,-0.7116,-0.7073,-0.7057,-0.7234,-0.7306,-0.7179,-0.7449,-0.7573,-0.7634,-0.7634,-0.753,-0.288,-0.3945,-0.5041,0.0,0.0,0.0,0.0,0.0,0.0,0.0,0.0,0.0,0.0,0.0,0.0,0.0,0.0,0.0,0.0,0.0,0.0,0.0,0.0,0.0,0.0,0.0,0.0,0.0,0.0,0.0,0.0,-0.6242,-0.5446,-0.6203,-0.6203,-0.5855,-0.5128,-0.5813,-0.5901,-0.5422,-0.6264,-0.6207,-0.5382,-0.5395,-0.5398,-0.5272,-0.352,-0.3926,-0.5775,-0.5491,-0.5422,-0.5198,-0.3419,-0.4215,-0.6006,-0.3929,-0.3139,-0.281,-0.0782,-0.0078,-0.0,-0.0,0.0,-0.0,-0.0079,-0.2987,-0.6329,-0.6329,-0.4792,-0.3141,-0.3135,-0.1567,-0.0084,-0.0,0.0,0.0,0.0,0.3717,0.6394,0.4107,0.5542,0.7074,0.7139,0.7074,0.5458,0.071,-0.4024,-0.7121,-0.7088,-0.8496,-0.8911,-0.7267,-0.7139,-0.7088,-0.7101,-0.7101,-0.7101,-0.7101,-0.7091,-0.7084,-0.7084,-0.7084,-0.7074,-0.7139,-0.7139,-0.7214,-0.737,-0.737,-0.7448,-0.7597,-0.7597,-0.7597,-0.24,-0.4438,0.0,0.0,0.0,0.0,0.0,0.0,0.0,0.0,0.0,0.0,0.0,0.0,0.0,0.0,0.0,0.0,0.0,0.0,0.0,0.0,0.0,0.0,0.0,0.0,0.0,0.0,0.0,0.0,0.0,-0.7235,-0.6699,-0.6837,-0.6302,-0.5965,-0.5705,-0.5949,-0.5736,-0.5053,-0.5399,-0.583,-0.6342,-0.6328,-0.5948,-0.5349,-0.486,-0.4962,-0.5538,-0.5434,-0.5399,-0.5346,-0.4957,-0.5128,-0.5619,-0.5237,-0.5111,-0.4921,-0.4323,-0.3236,-0.1907,-0.0458,0.0,-0.0549,-0.3538,-0.5288,-0.6325,-0.6312,-0.5821,-0.5344,-0.5381,-0.4862,-0.3714,-0.0666,0.0,0.0,0.0,0.342,0.6376,0.5837,0.6263,0.6773,0.6848,0.7041,0.551,0.0693,-0.4019,-0.7428,-0.8281,-0.9506,-1.0101,-0.9639,-0.8882,-0.838,-0.8384,-0.7595,-0.7068,-0.7068,-0.7064,-0.7068,-0.7084,-0.7071,-0.7058,-0.7139,-0.7139,-0.7163,-0.721,-0.721,-0.7231,-0.7275,-0.7275,-0.7275,-0.2661,0.0,0.0,0.0,0.0,0.0,0.0,0.0,0.0,0.0,0.0,0.0,0.0,0.0,0.0,0.0,0.0,0.0,0.0,0.0,0.0,0.0,0.0,0.0,0.0,0.0,0.0,0.0,0.0,0.0,0.0,-0.7835,-0.7437,-0.7328,-0.6927,-0.6446,-0.594,-0.6234,-0.5862,-0.4918,-0.5305,-0.5892,-0.6502,-0.6651,-0.6388,-0.5924,-0.5564,-0.5109,-0.4709,-0.5209,-0.5372,-0.5387,-0.551,-0.5544,-0.5529,-0.5742,-0.5851,-0.5761,-0.5768,-0.5082,-0.3943,-0.2677,-0.1814,-0.1698,-0.426,-0.5631,-0.6305,-0.6291,-0.6285,-0.6281,-0.6281,-0.6281,-0.5686,-0.3079,-0.1888,-0.124,-0.1242,0.15,0.4199,0.4868,0.5886,0.6652,0.6805,0.7,0.549,0.0847,-0.4253,-0.8013,-0.9352,-1.0052,-1.068,-1.1198,-1.0265,-0.9579,-0.9579,-0.8882,-0.8273,-0.7841,-0.8273,-0.8281,-0.7863,-0.7323,-0.7139,-0.7139,-0.7139,-0.7316,-0.7841,-0.7316,-0.7316,-0.7841,-0.7316,-0.7139,0.0,0.0,0.0,0.0,0.0,0.0,0.0,0.0,0.0,0.0,0.0,0.0,0.0,0.0,0.0,0.0,0.0,0.0,0.0,0.0,0.0,0.0,0.0,0.0,0.0,0.0,0.0,0.0,0.0,0.0,0.0,-0.8103,-0.7723,-0.7777,-0.7723,-0.7122,-0.5971,-0.6596,-0.6236,-0.4934,-0.5719,-0.6079,-0.6207,-0.6506,-0.6603,-0.6477,-0.5734,-0.4812,-0.3865,-0.496,-0.5379,-0.5376,-0.5432,-0.5447,-0.5569,-0.5569,-0.565,-0.5762,-0.5711,-0.5656,-0.5669,-0.5755,-0.4656,-0.331,-0.331,-0.4665,-0.624,-0.6251,-0.6247,-0.6244,-0.6257,-0.6338,-0.6268,-0.6288,-0.4777,-0.3388,-0.3388,-0.1474,0.0581,0.1907,0.4417,0.6363,0.6688,0.6881,0.5358,0.0415,-0.4886,-0.8877,-1.0216,-1.0413,-1.0999,-1.2234,-1.1321,-1.0722,-1.0722,-1.057,-1.0154,-0.9126,-1.0,-1.0183,-0.9061,-0.7929,-0.7228,-0.7228,-0.7139,-0.7665,-0.889,-0.7841,-0.7841,-0.889,-0.7753,-0.7228,0.0,-0.1956,0.0,0.0,0.0,0.0,0.0,0.0,0.0,0.0,0.0,0.0,0.0,0.0,0.0,0.0,0.0,0.0,0.0,0.0,0.0,0.0,0.0,0.0,0.0,0.0,0.0,0.0,0.0,0.0,-0.8804,-0.8103,-0.7943,-0.8533,-0.7996,-0.7586,-0.7307,-0.6877,-0.6239,0.0,-0.5135,-0.537,-0.6062,-0.6237,-0.592,-0.5264,-0.5339,-0.5264,-0.5009,-0.5262,-0.5379,-0.5376,-0.5432,-0.5449,-0.541,-0.541,-0.543,-0.5457,-0.546,-0.5542,-0.5574,-0.5514,-0.5325,-0.514,-0.514,-0.5456,-0.5875,-0.6054,-0.6081,-0.6108,-0.623,-0.6338,-0.6264,-0.6268,-0.598,-0.5608,-0.5617,-0.3474,-0.1185,0.0237,0.1898,0.3808,0.6004,0.642,0.3848,-0.3741,-0.757,-0.9634,-1.0004,-1.1491,-1.2667,-1.2972,-1.1984,-1.1322,-1.1322,-1.0668,-1.0184,-0.9936,-1.0343,-1.0524,-1.0265,-0.9148,-0.854,-0.854,-0.7577,-0.7665,-0.889,-0.8627,-0.8627,-0.889,-0.8627,-0.8017,0.0,0.0,0.0,0.0,0.0,0.0,0.0,0.0,0.0,0.0,0.0,0.0,0.0,0.0,0.0,0.0,0.0,0.0,0.0,0.0,0.0,0.0,0.0,0.0,0.0,0.0,0.0,0.0,0.0,-0.9517,-0.8857,-0.8427,-0.8427,-0.8804,-0.8427,-0.8049,-0.7723,-0.7343,-0.6745,-0.6036,-0.5763,-0.5638,-0.575,-0.6091,-0.5928,-0.5517,-0.525,-0.5168,-0.5178,-0.5199,-0.526,-0.5267,-0.5335,-0.5428,-0.5428,-0.5428,-0.5428,-0.5428,-0.5428,-0.5413,-0.5481,-0.5416,-0.552,-0.5644,-0.5644,-0.5691,-0.5758,-0.5901,-0.5922,-0.5939,-0.602,-0.6095,-0.6301,-0.6749,-0.6965,-0.7034,-0.7042,-0.5452,-0.3722,-0.2476,0.0388,0.3051,0.4553,0.3132,-0.0078,-0.5504,-0.7782,-0.9118,-0.9697,-1.123,-1.2491,-1.3114,-1.2638,-1.2307,-1.2307,-1.1861,-1.1362,-1.0865,-1.1481,-1.1638,-1.105,-1.0465,-0.9724,-0.8886,-0.8794,-0.9052,-0.9753,-0.9753,-1.0009,-1.0524,-0.9405,-0.854,0.0,0.0,0.0,0.0,0.0,0.0,0.0,0.0,0.0,0.0,0.0,0.0,0.0,0.0,0.0,0.0,0.0,0.0,0.0,0.0,0.0,0.0,0.0,0.0,0.0,0.0,0.0,0.0,0.0,-0.9666,-0.9008,-0.8857,-0.8804,-0.8804,-0.8804,-0.848,-0.7889,-0.7777,-0.7396,-0.6804,-0.6642,-0.6199,-0.5496,-0.5921,-0.6007,-0.5893,-0.516,-0.488,-0.4891,-0.5036,-0.5094,-0.5104,-0.5237,-0.5284,-0.5287,-0.5311,-0.5321,-0.5325,-0.5418,-0.5428,-0.5428,-0.5428,-0.5447,-0.5552,-0.5552,-0.5633,-0.5732,-0.5755,-0.5766,-0.5769,-0.6008,-0.611,-0.6434,-0.7482,-0.7988,-0.8192,-0.808,-0.7375,-0.643,-0.5169,-0.1163,0.2034,0.2029,-0.1168,-0.4222,-0.6038,-0.7184,-0.8218,-0.9466,-1.0501,-1.1599,-1.2948,-1.3053,-1.3053,-1.3053,-1.31,-1.2719,-1.1817,-1.2685,-1.2797,-1.181,-1.181,-1.1029,-0.9388,-1.0071,-1.058,-1.075,-1.075,-1.1261,-1.2108,-1.011,-0.91,0.0,0.0,0.0,0.0,0.0,0.0,0.0,0.0,0.0,0.0,0.0,0.0,0.0,0.0,0.0,0.0,0.0,0.0,0.0,0.0,0.0,0.0,0.0,0.0,0.0,0.0,0.0,0.0,-1.1399,-1.0364,-0.9718,-0.9106,-0.8804,-0.8804,-0.8804,-0.8752,-0.8646,-0.7996,-0.767,-0.7557,-0.6912,-0.6199,-0.5487,-0.5593,-0.529,-0.4752,-0.4721,-0.4721,-0.4731,-0.4884,-0.4948,-0.4948,-0.4969,-0.4979,-0.4992,-0.5118,-0.5162,-0.5179,-0.5315,-0.5428,-0.5428,-0.5428,-0.5442,-0.5459,-0.5459,-0.5473,-0.5447,-0.5583,-0.5616,-0.5853,-0.6687,-0.6956,-0.7225,-0.8389,-0.9332,-0.9862,-0.9256,-0.8988,-0.8367,-0.6433,-0.4042,-0.2264,-0.2262,-0.4297,-0.596,-0.6278,-0.7184,-0.8169,-0.9185,-1.024,-1.1234,-1.2344,-1.2425,-1.2425,-1.2425,-1.2659,-1.2806,-1.2645,-1.2981,-1.3127,-1.2962,-1.2962,-1.2424,-1.1179,-1.0284,-1.0366,-1.1341,-1.1341,-1.1422,-1.1589,-1.0486,-0.9991,0.0,0.0,0.0,0.0,0.0,0.0,0.0,0.0,0.0,0.0,0.0,0.0,0.0,0.0,0.0,0.0,0.0,0.0,0.0,0.0,0.0,0.0,0.0,0.0,0.0,0.0,0.0,0.0,-1.1738,-1.0517,-0.9814,-0.8778,-0.8374,-0.8804,-0.8374,-0.8374,-0.8804,-0.848,-0.8315,-0.8315,-0.7563,-0.6853,-0.6091,-0.5706,-0.5109,-0.4522,-0.4535,-0.4562,-0.4575,-0.4728,-0.4792,-0.4799,-0.4887,-0.4925,-0.4999,-0.5064,-0.5085,-0.5109,-0.5324,-0.5305,-0.5247,-0.5332,-0.5428,-0.5491,-0.6009,-0.5815,-0.5505,-0.6033,-0.5858,-0.5677,-0.6615,-0.6915,-0.7355,-0.8906,-0.9735,-1.026,-1.0676,-1.0399,-0.9346,-0.6824,-0.5535,-0.4929,-0.4929,-0.5643,-0.6278,-0.6271,-0.6644,-0.7326,-0.8313,-0.9367,-1.034,-1.1316,-1.1996,-1.2305,-1.2305,-1.2418,-1.2498,-1.2498,-1.2625,-1.2705,-1.2705,-1.2705,-1.2464,-1.1986,-1.1745,-1.1576,-1.1484,-1.2141,-1.2473,-1.2393,-1.1439,-1.0914,0.0,0.0,0.0,0.0,0.0,0.0,0.0,0.0,0.0,0.0,0.0,0.0,0.0,0.0,0.0,0.0,0.0,0.0,0.0,0.0,0.0,0.0,0.0,0.0,0.0,0.0,0.0,0.0,-1.1975,-1.0568,-1.0064,-0.8554,-0.8049,-0.8752,-0.8103,-0.8049,-0.8804,-0.8962,-0.8962,-0.8804,-0.8415,-0.7765,-0.6858,-0.6091,-0.5382,-0.4732,-0.457,-0.4519,-0.4525,-0.4585,-0.4633,-0.4643,-0.4758,-0.4872,-0.4949,-0.4991,-0.4756,-0.4466,-0.5047,-0.5342,-0.5483,-0.5643,-0.5756,-0.6086,-0.6837,-0.6593,-0.6207,-0.685,-0.6531,-0.6272,-0.7111,-0.7423,-0.7952,-0.9632,-1.0135,-1.0498,-1.1642,-1.1351,-1.0099,-0.7884,-0.7007,-0.6655,-0.6655,-0.6504,-0.6271,-0.6264,-0.6338,-0.6641,-0.7706,-0.8694,-0.9669,-1.0714,-1.1694,-1.2305,-1.2305,-1.2305,-1.2305,-1.2305,-1.2305,-1.2305,-1.2305,-1.2305,-1.2305,-1.2305,-1.2746,-1.257,-1.1685,-1.2577,-1.2979,-1.2979,-1.1842,-1.155,0.0,0.0,0.0,0.0,0.0,0.0,0.0,0.0,0.0,0.0,0.0,0.0,0.0,0.0,0.0,0.0,0.0,0.0,0.0,0.0,0.0,0.0,0.0,0.0,0.0,0.0,0.0,0.0,-1.2278,-1.0762,-1.0771,-0.881,-0.8049,-0.8752,-0.8103,-0.8049,-0.8804,-0.9413,-0.9413,-0.8811,-0.9413,-0.8974,-0.7616,-0.6858,-0.615,-0.5433,-0.4787,-0.4519,-0.4519,-0.4525,-0.4529,-0.4529,-0.4539,-0.4549,-0.4577,-0.4725,-0.3767,-0.2598,-0.4275,-0.5555,-0.6441,-0.6349,-0.6836,-0.7433,-0.7832,-0.7897,-0.7897,-0.7897,-0.7897,-0.8091,-0.8941,-0.9151,-0.9479,-1.066,-1.0936,-1.1102,-1.1744,-1.1351,-1.0783,-1.0634,-0.9059,-0.771,-0.771,-0.6949,-0.6338,-0.6338,-0.6338,-0.6641,-0.7706,-0.8694,-0.9669,-1.0714,-1.1694,-1.2305,-1.2305,-1.2305,-1.2305,-1.2305,-1.2305,-1.2305,-1.2305,-1.2305,-1.2305,-1.2305,-1.2331,-1.2351,-1.2271,-1.2351,-1.2351,-1.2358,-1.1471,-1.1664,0.0,0.0,0.0,0.0,0.0,0.0,0.0,0.0,0.0,0.0,0.0,0.0,0.0,0.0,0.0,0.0,0.0,0.0,0.0,0.0,0.0,0.0,0.0,0.0,0.0,0.0,0.0,0.0,0.0,-1.0813,-1.0813,-0.8376,-0.7563,-0.8752,-0.7616,-0.7765,-0.9406,-0.9666,-0.9666,-0.9465,-0.9666,-0.9086,-0.767,-0.6912,-0.6199,-0.5487,-0.4787,-0.4519,-0.4519,-0.4519,-0.4519,-0.4519,-0.4525,-0.448,-0.4497,-0.4562,-0.3594,-0.2283,-0.289,-0.4405,-0.6149,-0.6607,-0.7471,-0.846,-0.9659,-0.9805,-0.9566,-0.9597,-0.9209,-0.8832,-0.9198,-0.9274,-0.9554,-1.0496,-1.0855,-1.1049,-1.1263,-1.0891,-1.0542,-1.0542,-0.9564,-0.8765,-0.8765,-0.8466,-0.8237,-0.8237,-0.8237,-0.8389,-0.8694,-0.9669,-1.0415,-1.0783,-1.1694,-1.2305,-1.2305,-1.2305,-1.2305,-1.2305,-1.2305,-1.2305,-1.2305,-1.2305,-1.2305,-1.2305,-1.2305,-1.2305,-1.2305,-1.2305,-1.2305,-1.2305,-1.1951,-1.2078,0.0,0.0,0.0,0.0,0.0,0.0,0.0,0.0,0.0,0.0,0.0,0.0,0.0,0.0,0.0,0.0,0.0,0.0,0.0,0.0,0.0,0.0,0.0,0.0,0.0,0.0,0.0,0.0,0.0,0.0,-1.0458,-0.8037,-0.7182,-0.8287,-0.7594,-0.8044,-0.9762,-1.0012,-1.0167,-1.0167,-1.0364,-0.9747,-0.8402,-0.7646,-0.6784,-0.5814,-0.5113,-0.4736,-0.4519,-0.4519,-0.4519,-0.4519,-0.4473,-0.42,-0.3811,-0.4281,-0.3878,-0.303,-0.3493,-0.483,-0.6511,-0.7422,-0.8404,-0.9512,-1.0901,-1.1212,-1.1099,-1.1135,-1.0829,-1.0398,-1.0199,-1.0148,-1.0275,-1.0856,-1.1142,-1.1224,-1.0913,-1.0814,-1.071,-1.071,-1.0126,-0.9702,-0.9702,-0.9471,-0.9296,-0.9296,-0.9296,-0.9296,-0.9296,-1.019,-1.0783,-1.0783,-1.1694,-1.2305,-1.2305,-1.2305,-1.2305,-1.2305,-1.2305,-1.2305,-1.2305,-1.2305,-1.2305,-1.2305,-1.2305,-1.2305,-1.2305,-1.2305,-1.2305,-1.2305,-1.2305,-1.2305,0.0,0.0,0.0,0.0,0.0,0.0,0.0,0.0,0.0,0.0,0.0,0.0,0.0,0.0,0.0,0.0,0.0,0.0,0.0,0.0,0.0,0.0,0.0,0.0,0.0,0.0,0.0,0.0,-1.0713,-0.9694,-0.9694,-0.7862,-0.695,-0.7267,-0.8005,-0.8853,-0.9799,-1.0509,-1.0813,-1.0864,-1.1466,-1.1065,-0.9762,-0.9006,-0.7953,-0.6588,-0.5873,-0.5164,-0.4515,-0.4519,-0.4519,-0.4519,-0.4477,-0.3574,-0.2456,-0.3822,-0.4399,-0.4678,-0.6184,-0.6997,-0.7649,-0.8873,-0.9733,-1.053,-1.1447,-1.2102,-1.2464,-1.2406,-1.272,-1.287,-1.2012,-1.1834,-1.1834,-1.1834,-1.1834,-1.1648,-1.0863,-1.1068,-1.1471,-1.141,-1.086,-1.0467,-1.0467,-0.9871,-0.9427,-0.9432,-0.9432,-0.9437,-0.9442,-1.034,-1.0932,-1.0932,-1.1768,-1.2372,-1.2372,-1.2372,-1.2305,-1.2305,-1.2305,-1.2305,-1.2305,-1.2305,-1.2305,-1.2305,-1.2305,-1.2305,-1.2305,-1.2305,-1.2305,-1.2305,-1.2305,-1.2305,-0.1016,0.0,0.0,0.0,0.0,0.0,0.0,0.0,0.0,0.0,0.0,0.0,0.0,0.0,0.0,0.0,0.0,0.0,0.0,0.0,0.0,0.0,0.0,0.0,0.0,0.0,0.0,0.0,-0.9922,-0.9105,-0.9105,-0.8139,-0.7417,-0.6939,-0.8371,-0.9471,-1.0238,-1.1079,-1.1516,-1.1516,-1.1216,-1.0618,-0.9762,-0.8554,-0.7765,-0.7343,-0.6637,-0.5873,-0.5164,-0.468,-0.4522,-0.4477,-0.4487,-0.4212,-0.3652,-0.1906,-0.2569,-0.4798,-0.7285,-0.823,-0.8554,-0.9895,-1.1066,-1.2044,-1.2782,-1.3318,-1.3534,-1.2917,-1.3086,-1.3327,-1.2813,-1.2696,-1.2696,-1.2696,-1.2696,-1.2642,-1.2397,-1.2422,-1.2251,-1.1334,-1.1139,-1.1329,-1.1943,-1.1867,-1.2054,-1.2953,-1.3053,-1.3211,-1.3519,-1.3845,-1.3996,-1.3996,-1.4219,-1.4091,-1.3382,-1.331,-1.3025,-1.2372,-1.2305,-1.2305,-1.2305,-1.2305,-1.2305,-1.2305,-1.2305,-1.2305,-1.2305,-1.2305,-1.2305,-1.2305,-1.2305,-1.2305,0.0,0.0,0.0,0.0,0.0,0.0,0.0,-0.5135,0.0,0.0,0.0,0.0,0.0,0.0,0.0,0.0,0.0,0.0,0.0,0.0,0.0,0.0,0.0,0.0,0.0,-1.0405,-1.0249,-1.0249,-0.8937,-0.8008,-0.7799,-0.7632,-0.7504,-0.7418,-0.8393,-0.9455,-1.0484,-1.1181,-1.1677,-1.1985,-1.1446,-1.0864,-1.021,-0.9377,-0.8646,-0.8072,-0.7641,-0.7042,-0.6284,-0.5324,-0.4739,-0.4366,-0.3123,-0.2623,-0.2406,-0.0671,-0.1613,-0.4262,-0.7563,-0.8725,-0.8933,-1.0359,-1.1455,-1.2346,-1.3032,-1.3545,-1.3762,-1.3277,-1.3386,-1.3765,-1.4114,-1.4148,-1.4118,-1.4341,-1.4436,-1.4259,-1.3622,-1.3451,-1.3155,-1.2026,-1.2072,-1.2424,-1.2887,-1.3076,-1.3439,-1.416,-1.4261,-1.4342,-1.4616,-1.4772,-1.4932,-1.4932,-1.5072,-1.495,-1.4378,-1.3833,-1.3329,-1.2762,-1.2213,-1.1937,-1.1937,-1.2058,-1.2064,-1.1937,-1.2178,-1.2305,-1.2305,-1.2305,-1.2305,-1.2305,-1.2305,-1.2305,0.0,0.0,0.0,0.0,0.0,0.0,-0.692,-0.6522,-0.619,0.0,0.0,0.0,0.0,0.0,0.0,0.0,0.0,0.0,0.0,0.0,0.0,0.0,0.0,0.0,-1.0128,-0.9651,-0.9306,-0.9222,-0.7777,-0.6706,-0.6221,-0.6725,-0.7404,-0.8253,-0.8334,-0.9105,-1.0543,-1.1021,-1.1556,-1.2112,-1.1776,-1.1262,-1.0705,-1.0604,-0.99,-0.8842,-0.8842,-0.841,-0.7606,-0.6284,-0.5222,-0.419,-0.1164,0.0222,0.0501,0.0502,-0.0942,-0.3468,-0.7438,-0.8784,-0.9037,-1.0442,-1.1366,-1.203,-1.2715,-1.3145,-1.3447,-1.3496,-1.3669,-1.4169,-1.5401,-1.5656,-1.5729,-1.6245,-1.6416,-1.6079,-1.48,-1.4517,-1.4291,-1.364,-1.3495,-1.3471,-1.3479,-1.3808,-1.4105,-1.4155,-1.4155,-1.4172,-1.4213,-1.4497,-1.4756,-1.4756,-1.5127,-1.532,-1.525,-1.4196,-1.3485,-1.3346,-1.2315,-1.1628,-1.156,-1.1817,-1.1837,-1.143,-1.1937,-1.2204,-1.2204,-1.2271,-1.2305,-1.2305,-1.2305,-1.2305,-0.7496,-0.7763,-0.825,-0.8709,0.0,0.0,-0.7462,-0.7426,-0.7418,0.0,0.0,0.0,0.0,0.0,0.0,0.0,0.0,0.0,0.0,0.0,0.0,0.0,0.0,0.0,-0.9114,-0.8621,-0.8071,-0.7515,-0.6797,-0.6301,-0.6227,-0.6725,-0.7307,-0.7968,-0.8723,-0.9452,-1.0173,-1.1063,-1.1591,-1.1689,-1.0612,-1.0198,-1.0295,-0.9333,-0.9119,-0.9599,-0.9599,-0.9162,-0.841,-0.7553,-0.6112,-0.4226,-0.1163,0.1502,0.3596,0.3599,0.0831,-0.3465,-0.7436,-0.9095,-0.9739,-1.114,-1.2089,-1.2715,-1.2881,-1.2939,-1.3076,-1.3408,-1.3882,-1.4328,-1.444,-1.5175,-1.5949,-1.5998,-1.6375,-1.6753,-1.6905,-1.6925,-1.6869,-1.6711,-1.5245,-1.395,-1.4012,-1.4579,-1.5157,-1.5614,-1.5681,-1.5804,-1.609,-1.6204,-1.626,-1.626,-1.6326,-1.6104,-1.5358,-1.5016,-1.4586,-1.3864,-1.3534,-1.3094,-1.2444,-1.2509,-1.2169,-1.143,-1.1536,-1.1597,-1.1597,-1.2071,-1.2305,-1.2305,-1.2305,-1.2305,-0.8269,-0.8371,-0.893,-0.9466,0.0,0.0,0.0,-0.8466,-0.8027,-0.7258,0.0,0.0,0.0,0.0,0.0,0.0,0.0,0.0,0.0,0.0,0.0,0.0,0.0,0.0,-0.8969,-0.8388,-0.7478,-0.6061,-0.6096,-0.605,-0.5787,-0.6556,-0.7398,-0.8275,-0.8774,-0.9397,-1.0183,-1.089,-1.1103,-1.0837,-1.0054,-0.9655,-0.9557,-0.9448,-0.9665,-1.0126,-1.0588,-1.0602,-1.0163,-0.8711,-0.7121,-0.5175,-0.1432,0.1833,0.4504,0.4504,0.1716,-0.2575,-0.6352,-0.8362,-0.9438,-1.0839,-1.1783,-1.2344,-1.2344,-1.2353,-1.241,-1.2598,-1.3333,-1.422,-1.4692,-1.5499,-1.6351,-1.6919,-1.7459,-1.7871,-1.7739,-1.794,-1.8058,-1.7688,-1.6959,-1.6311,-1.5965,-1.5918,-1.6009,-1.6283,-1.597,-1.582,-1.6045,-1.626,-1.6396,-1.6396,-1.6602,-1.6529,-1.6055,-1.5478,-1.4907,-1.4461,-1.378,-1.3299,-1.286,-1.2959,-1.2734,-1.2037,-1.1485,-1.1283,-1.1423,-1.1724,-1.1944,-1.2091,-1.2231,-1.2305,0.0,0.0,0.0,0.0,0.0,-1.0888,0.0,0.0,0.0,-0.7852,0.0,0.0,0.0,0.0,0.0,0.0,0.0,0.0,0.0,0.0,0.0,0.0,0.0,0.0,0.0,-0.792,-0.6774,-0.4973,-0.5454,-0.5664,-0.528,-0.6301,-0.7452,-0.8675,-0.8716,-0.9199,-1.0283,-1.0615,-1.0577,-1.0114,-0.9831,-0.9477,-0.9112,-0.9807,-1.0262,-1.0488,-1.1341,-1.1706,-1.155,-0.9673,-0.8069,-0.6343,-0.2193,0.1496,0.4501,0.4501,0.2216,-0.1423,-0.5245,-0.7439,-0.8724,-1.0143,-1.1065,-1.1616,-1.1616,-1.1625,-1.1642,-1.1765,-1.2696,-1.3794,-1.4762,-1.5612,-1.65,-1.7456,-1.8175,-1.8572,-1.8089,-1.837,-1.8572,-1.7986,-1.8431,-1.8608,-1.7743,-1.709,-1.6652,-1.6539,-1.5979,-1.5584,-1.5584,-1.595,-1.6168,-1.6168,-1.6321,-1.6475,-1.6475,-1.5581,-1.5007,-1.5007,-1.4022,-1.3364,-1.3252,-1.3281,-1.314,-1.2785,-1.1673,-1.1279,-1.1451,-1.1377,-1.1496,-1.179,-1.2168,-1.231,0.0,0.0,0.0,0.0,-1.1747,0.0,0.0,0.0,-0.9848,-0.8622,0.0,0.0,0.0,0.0,0.0,0.0,0.0,0.0,0.0,0.0,0.0,0.0,0.0,0.0,0.0,-0.6054,-0.5169,-0.4656,-0.4598,-0.475,-0.5106,-0.6108,-0.7277,-0.8667,-0.8716,-0.9199,-1.0283,-1.0371,-1.0352,-1.0273,-0.9747,-0.963,-0.9787,-0.9398,-0.9731,-1.0606,-1.1091,-1.1253,-1.1176,-1.0023,-0.8697,-0.7015,-0.3839,0.0331,0.4511,0.4511,0.2512,-0.0773,-0.5089,-0.7117,-0.7976,-0.9429,-1.0364,-1.0914,-1.0914,-1.0914,-1.1015,-1.1616,-1.2337,-1.2948,-1.3153,-1.4452,-1.5723,-1.5785,-1.6738,-1.7702,-1.8084,-1.8572,-1.8958,-1.8858,-1.9281,-1.9254,-1.7852,-1.7523,-1.7246,-1.6595,-1.6436,-1.6379,-1.6379,-1.642,-1.6452,-1.6452,-1.5936,-1.5566,-1.5566,-1.539,-1.5361,-1.5361,-1.5196,-1.4815,-1.4085,-1.3407,-1.303,-1.2948,-1.2158,-1.1722,-1.1759,-1.1293,-1.1189,-1.1476,-1.2265,-1.2429,0.0,0.0,0.0,0.0,0.0,0.0,-1.096,0.0,-0.9974,0.0,0.0,0.0,0.0,0.0,0.0,0.0,0.0,0.0,0.0,0.0,0.0,0.0,0.0,0.0,0.0,0.0,0.0,0.0,-0.4221,-0.4577,-0.4946,-0.6008,-0.7155,-0.8353,-0.8608,-0.9199,-1.0283,-1.0283,-1.0118,-0.9834,-0.9597,-0.9408,-0.9197,-0.9537,-0.989,-1.0335,-1.109,-1.1554,-1.1696,-1.0474,-0.9604,-0.8738,-0.5806,-0.1981,0.2124,0.3881,0.2569,-0.0498,-0.4152,-0.581,-0.6602,-0.8035,-0.8717,-0.8919,-0.8919,-0.9238,-0.9666,-0.9915,-1.1082,-1.2297,-1.2716,-1.3935,-1.5153,-1.5498,-1.6502,-1.7451,-1.7677,-1.8166,-1.8643,-1.897,-1.9196,-1.9231,-1.8931,-1.8501,-1.8112,-1.7852,-1.7413,-1.7146,-1.7146,-1.7146,-1.7146,-1.7146,-1.6482,-1.6036,-1.6036,-1.5642,-1.541,-1.541,-1.541,-1.5235,-1.4923,-1.4145,-1.3726,-1.3726,-1.294,-1.2266,-1.1834,-1.1536,-1.1546,-1.1617,-1.2402,-1.2848,-0.8008,0.0,0.0,0.0,0.0,0.0,0.0,0.0,0.0,0.0,0.0,0.0,0.0,0.0,0.0,0.0,0.0,0.0,0.0,0.0,0.0,0.0,0.0,0.0,0.0,0.0,0.0,0.0,0.0,-0.4631,-0.5232,-0.6044,-0.7145,-0.8483,-0.866,-0.9252,-1.0283,-1.0283,-1.0079,-0.9716,-0.9716,-0.9518,-0.9168,-0.9849,-1.015,-1.0219,-1.1064,-1.1475,-1.1559,-1.0591,-1.0008,-0.9482,-0.7458,-0.4631,-0.1328,0.1114,0.0668,-0.1552,-0.3718,-0.505,-0.5977,-0.6983,-0.7298,-0.7298,-0.7298,-0.7676,-0.8212,-0.8574,-0.9908,-1.144,-1.2288,-1.3595,-1.4789,-1.5231,-1.628,-1.7149,-1.7149,-1.7589,-1.8103,-1.8505,-1.8694,-1.897,-1.9497,-1.9117,-1.8715,-1.8715,-1.8221,-1.7895,-1.7895,-1.7895,-1.7895,-1.7895,-1.7246,-1.6708,-1.6549,-1.6036,-1.569,-1.569,-1.5911,-1.6026,-1.6026,-1.5264,-1.4855,-1.4855,-1.3846,-1.294,-1.2143,-1.1896,-1.1888,-1.2151,-1.2595,-1.3257,0.0,0.0,0.0,-1.1472,0.0,0.0,0.0,0.0,-1.0394,0.0,0.0,0.0,0.0,0.0,0.0,0.0,0.0,0.0,0.0,0.0,0.0,0.0,0.0,0.0,0.0,0.0,0.0,0.0,0.0,0.0,-0.6087,-0.6252,-0.7245,-0.9288,-0.8995,-0.9281,-1.0283,-1.0283,-1.0283,-1.0283,-1.0283,-1.0283,-1.0244,-1.0293,-1.0303,-1.0322,-1.0752,-1.0637,-1.0155,-1.0183,-0.9452,-0.8407,-0.8606,-0.749,-0.5575,-0.4595,-0.4271,-0.4363,-0.4453,-0.5433,-0.6588,-0.6642,-0.6637,-0.6637,-0.6637,-0.6642,-0.6956,-0.8317,-0.9231,-1.0089,-1.1449,-1.3253,-1.4698,-1.4698,-1.5668,-1.6547,-1.6547,-1.6999,-1.7413,-1.7438,-1.7865,-1.8405,-1.8908,-1.8833,-1.8715,-1.8715,-1.8661,-1.8661,-1.8661,-1.8661,-1.8661,-1.8661,-1.8015,-1.7257,-1.6549,-1.6492,-1.6482,-1.6482,-1.7146,-1.7523,-1.7523,-1.681,-1.6425,-1.6425,-1.4972,-1.3795,-1.2948,-1.2205,-1.2205,-1.2948,-1.2972,-1.3498,0.0,0.0,-0.8548,-0.9973,0.0,0.0,0.0,0.0,0.0,0.0,0.0,0.0,0.0,0.0,0.0,0.0,0.0,0.0,0.0,0.0,0.0,0.0,0.0,0.0,0.0,0.0,0.0,0.0,-0.4229,0.0,0.0,-0.622,-0.709,-0.8121,-0.8837,-0.9421,-0.9853,-1.0137,-1.0283,-1.0283,-1.0283,-1.0283,-1.0283,-1.0283,-1.0283,-1.0332,-1.043,-1.0362,-1.0083,-0.9644,-0.9299,-0.8933,-0.8127,-0.7214,-0.6195,-0.4956,-0.4912,-0.5356,-0.4691,-0.4805,-0.5199,-0.5199,-0.5191,-0.5187,-0.5187,-0.55,-0.6086,-0.7058,-0.8153,-0.9341,-1.0746,-1.2278,-1.3548,-1.3993,-1.4744,-1.5433,-1.582,-1.6054,-1.6443,-1.7255,-1.7539,-1.7734,-1.7861,-1.8154,-1.8622,-1.9312,-1.9423,-1.9423,-1.9423,-1.9423,-1.9423,-1.9423,-1.8768,-1.8221,-1.7961,-1.7523,-1.7246,-1.7246,-1.7468,-1.7578,-1.7578,-1.7357,-1.6978,-1.6482,-1.5958,-1.508,-1.3786,-1.3537,-1.3537,-1.3786,-1.3786,-1.4488,-0.8091,-0.785,0.0,-0.8943,-0.8824,0.0,-0.7942,0.0,0.0,0.0,0.0,0.0,0.0,0.0,0.0,0.0,0.0,0.0,0.0,0.0,0.0,0.0,0.0,0.0,0.0,0.0,-0.4498,-0.4216,0.0,0.0,0.0,0.0,-0.7185,-0.7858,-0.8753,-0.9332,-0.9592,-0.9912,-1.0127,-1.0283,-1.0283,-1.0283,-1.0283,-1.0283,-1.0283,-1.0283,-1.0283,-1.0033,-0.9567,-0.924,-0.8956,-0.8673,-0.7972,-0.7338,-0.6696,-0.5471,-0.5179,-0.5305,-0.4702,-0.4484,-0.4432,-0.3866,-0.3694,-0.3799,-0.4311,-0.4798,-0.5277,-0.5982,-0.7202,-0.8561,-0.9769,-1.1431,-1.2918,-1.3321,-1.4086,-1.4789,-1.5186,-1.5276,-1.5516,-1.6291,-1.642,-1.6486,-1.6609,-1.7147,-1.7907,-1.9031,-1.9357,-1.9597,-1.9773,-1.9798,-1.9798,-1.9798,-1.9371,-1.898,-1.8715,-1.8286,-1.8015,-1.8015,-1.8232,-1.8382,-1.8382,-1.7907,-1.7357,-1.6922,-1.6368,-1.5323,-1.3786,-1.4085,-1.4025,-1.3786,-1.4094,-1.5196]}]]